[[{"header":{"parameterUnit":"m.s-1","parameterCategory":1,"la1":30.6,"la2":29.2853,"lo1":-89.7004,"lo2":-87.6739,"dy":0.0162,"dx":0.0183,"nx":112,"ny":82,"refTime":"2023-10-11T00:00:00:Z","depth":0,"parameterNumber":2,"parameterNumberName":"U-component_of_WINDS"},"data":[0.0,0.0,0.0,0.0,0.0,0.0,0.0,0.0,0.0,0.0,0.0,0.0,0.0,0.0,0.0,0.0,0.0,0.0,0.0,0.0,0.0,0.0,0.0,0.0,0.0,0.0,0.0,0.0,0.0,0.0,0.0,0.0,0.0,0.0,0.0,0.0,0.0,0.0,0.0,0.0,0.0,0.0,0.0,0.0,0.0,0.0,0.0,0.0,0.0,0.0,0.0,0.0,0.0,0.0,0.0,0.0,0.0,0.0,0.0,0.0,0.0,0.0,0.0,0.0,0.0,0.0,0.0,0.0,0.0,0.0,0.0,0.0,0.0,0.0,0.0,0.0,0.0,0.0,0.0,0.0,0.0,0.0,0.0,0.0,0.0,0.0,0.0,0.0,0.0,0.0,4.3282,4.3987,4.179,3.9143,3.6562,3.4158,3.2461,3.168,0.0,0.0,0.0,0.0,0.0,0.0,0.0,0.0,0.0,0.0,0.0,0.0,0.0,0.0,0.0,0.0,0.0,0.0,0.0,0.0,0.0,0.0,0.0,0.0,0.0,0.0,0.0,0.0,0.0,0.0,0.0,0.0,0.0,0.0,0.0,0.0,0.0,0.0,0.0,0.0,0.0,0.0,0.0,0.0,0.0,0.0,0.0,0.0,0.0,0.0,0.0,0.0,0.0,0.0,0.0,0.0,0.0,0.0,0.0,0.0,0.0,0.0,0.0,0.0,0.0,0.0,0.0,0.0,0.0,0.0,0.0,0.0,0.0,0.0,0.0,0.0,0.0,0.0,0.0,0.0,0.0,0.0,0.0,0.0,0.0,0.0,0.0,0.0,0.0,0.0,0.0,0.0,0.0,0.0,0.0,0.0,0.0,0.0,0.0,0.0,0.0,0.0,0.0,0.0,4.1811,4.0514,3.9469,3.7853,3.5236,3.3666,3.2578,3.2109,0.0,0.0,0.0,0.0,0.0,0.0,0.0,0.0,0.0,0.0,0.0,0.0,0.0,0.0,0.0,0.0,0.0,0.0,0.0,0.0,0.0,0.0,0.0,0.0,0.0,0.0,0.0,0.0,0.0,0.0,0.0,0.0,0.0,0.0,0.0,0.0,0.0,0.0,0.0,0.0,0.0,0.0,0.0,0.0,0.0,0.0,0.0,0.0,0.0,0.0,0.0,0.0,0.0,0.0,0.0,0.0,0.0,0.0,0.0,0.0,0.0,0.0,0.0,0.0,0.0,0.0,0.0,0.0,0.0,0.0,0.0,0.0,0.0,0.0,0.0,0.0,0.0,0.0,0.0,0.0,0.0,0.0,0.0,0.0,0.0,0.0,0.0,0.0,0.0,0.0,0.0,0.0,0.0,0.0,0.0,0.0,0.0,0.0,0.0,0.0,0.0,0.0,0.0,4.2246,4.1197,4.0095,3.8916,3.7147,3.4609,3.3398,3.25,3.1875,3.1916,0.0,0.0,0.0,0.0,0.0,0.0,0.0,0.0,0.0,0.0,0.0,0.0,0.0,0.0,0.0,0.0,0.0,0.0,0.0,0.0,0.0,0.0,0.0,0.0,0.0,0.0,0.0,0.0,0.0,0.0,0.0,0.0,0.0,0.0,0.0,0.0,0.0,0.0,0.0,0.0,0.0,0.0,0.0,0.0,0.0,0.0,0.0,0.0,0.0,0.0,0.0,0.0,0.0,0.0,0.0,0.0,0.0,0.0,0.0,0.0,0.0,0.0,0.0,0.0,0.0,0.0,0.0,0.0,0.0,0.0,0.0,0.0,0.0,0.0,0.0,0.0,0.0,0.0,0.0,0.0,0.0,0.0,0.0,0.0,0.0,0.0,0.0,0.0,0.0,0.0,0.0,0.0,0.0,0.0,0.0,0.0,0.0,0.0,0.0,0.0,0.0,0.0,4.176,4.0606,4.0527,3.8594,3.6469,3.4269,3.3281,3.2422,3.1562,3.1133,0.0,0.0,0.0,0.0,0.0,0.0,0.0,0.0,0.0,0.0,0.0,0.0,0.0,0.0,0.0,0.0,0.0,0.0,0.0,0.0,0.0,0.0,0.0,0.0,0.0,0.0,0.0,0.0,0.0,0.0,0.0,0.0,0.0,0.0,0.0,0.0,0.0,0.0,0.0,0.0,0.0,0.0,0.0,0.0,0.0,0.0,0.0,0.0,0.0,0.0,0.0,0.0,0.0,0.0,0.0,0.0,0.0,0.0,0.0,0.0,0.0,0.0,0.0,0.0,0.0,0.0,0.0,0.0,0.0,0.0,0.0,0.0,0.0,0.0,0.0,0.0,0.0,0.0,0.0,0.0,0.0,0.0,0.0,0.0,0.0,0.0,0.0,0.0,0.0,0.0,0.0,0.0,0.0,0.0,0.0,0.0,0.0,0.0,0.0,0.0,0.0,0.0,4.1199,3.9461,4.0957,3.7805,3.5171,3.4205,3.3281,3.2422,3.1562,3.1133,0.0,0.0,0.0,0.0,0.0,0.0,0.0,0.0,0.0,0.0,0.0,0.0,0.0,0.0,0.0,0.0,0.0,0.0,0.0,0.0,0.0,0.0,0.0,0.0,0.0,0.0,0.0,0.0,0.0,0.0,0.0,0.0,0.0,0.0,0.0,0.0,0.0,0.0,0.0,0.0,0.0,0.0,0.0,0.0,0.0,0.0,0.0,0.0,0.0,0.0,0.0,0.0,0.0,0.0,0.0,0.0,0.0,0.0,0.0,0.0,0.0,0.0,0.0,0.0,0.0,0.0,0.0,0.0,0.0,0.0,0.0,0.0,0.0,0.0,0.0,0.0,0.0,0.0,0.0,0.0,0.0,0.0,0.0,0.0,0.0,0.0,0.0,0.0,0.0,0.0,0.0,0.0,0.0,0.0,0.0,0.0,0.0,0.0,0.0,0.0,0.0,0.0,4.1409,3.9757,4.1046,3.7491,3.4726,3.4141,3.3047,3.2148,3.1562,0.0,0.0,0.0,0.0,0.0,0.0,0.0,0.0,0.0,0.0,0.0,0.0,0.0,0.0,0.0,0.0,0.0,0.0,0.0,0.0,0.0,0.0,0.0,0.0,0.0,0.0,0.0,0.0,0.0,0.0,0.0,0.0,0.0,0.0,0.0,0.0,0.0,0.0,0.0,0.0,0.0,0.0,0.0,0.0,0.0,0.0,0.0,0.0,0.0,0.0,0.0,0.0,0.0,0.0,0.0,0.0,0.0,0.0,0.0,0.0,0.0,0.0,0.0,0.0,0.0,0.0,0.0,0.0,0.0,0.0,0.0,0.0,0.0,0.0,0.0,0.0,0.0,0.0,0.0,0.0,0.0,0.0,0.0,0.0,0.0,0.0,0.0,0.0,0.0,0.0,0.0,0.0,0.0,0.0,0.0,0.0,0.0,0.0,0.0,0.0,0.0,0.0,4.3746,4.1574,4.0104,4.032,3.718,3.4844,3.4141,3.3008,3.2109,3.1562,0.0,0.0,0.0,0.0,0.0,0.0,0.0,0.0,0.0,0.0,0.0,0.0,0.0,0.0,0.0,0.0,0.0,0.0,0.0,0.0,0.0,0.0,0.0,0.0,0.0,0.0,0.0,0.0,0.0,0.0,0.0,0.0,0.0,0.0,0.0,0.0,0.0,0.0,0.0,0.0,0.0,0.0,0.0,0.0,0.0,0.0,0.0,0.0,0.0,0.0,0.0,0.0,0.0,0.0,0.0,0.0,0.0,0.0,0.0,0.0,0.0,0.0,0.0,0.0,0.0,0.0,0.0,0.0,0.0,0.0,0.0,0.0,0.0,0.0,0.0,0.0,0.0,0.0,0.0,0.0,0.0,0.0,0.0,0.0,0.0,0.0,0.0,0.0,0.0,0.0,0.0,0.0,0.0,0.0,0.0,0.0,0.0,0.0,0.0,0.0,0.0,0.0,4.221,4.1433,4.0408,3.8816,3.7059,3.5508,3.418,3.3281,3.2422,0.0,0.0,0.0,0.0,0.0,0.0,0.0,0.0,0.0,0.0,0.0,0.0,0.0,0.0,0.0,0.0,0.0,0.0,0.0,0.0,0.0,0.0,0.0,0.0,0.0,0.0,0.0,0.0,0.0,0.0,0.0,0.0,0.0,0.0,0.0,0.0,0.0,0.0,0.0,0.0,0.0,0.0,0.0,0.0,0.0,0.0,0.0,0.0,0.0,0.0,0.0,0.0,0.0,0.0,0.0,0.0,0.0,0.0,0.0,0.0,0.0,0.0,0.0,0.0,0.0,0.0,0.0,0.0,0.0,0.0,0.0,0.0,0.0,0.0,0.0,0.0,0.0,0.0,0.0,0.0,0.0,0.0,0.0,0.0,0.0,0.0,0.0,0.0,0.0,0.0,0.0,0.0,0.0,0.0,0.0,0.0,0.0,0.0,0.0,0.0,0.0,0.0,0.0,4.2445,4.0587,3.9226,3.95,3.7421,3.5625,3.4609,3.3476,3.2422,3.1562,0.0,0.0,0.0,0.0,0.0,0.0,0.0,0.0,0.0,0.0,0.0,0.0,0.0,0.0,0.0,0.0,0.0,0.0,0.0,0.0,0.0,0.0,0.0,0.0,0.0,0.0,0.0,0.0,0.0,0.0,0.0,0.0,0.0,0.0,0.0,0.0,0.0,0.0,0.0,0.0,0.0,0.0,0.0,0.0,0.0,0.0,0.0,0.0,0.0,0.0,0.0,0.0,0.0,0.0,0.0,0.0,0.0,0.0,0.0,0.0,0.0,0.0,0.0,0.0,0.0,0.0,0.0,0.0,0.0,0.0,0.0,0.0,0.0,0.0,0.0,0.0,0.0,0.0,0.0,0.0,0.0,0.0,0.0,0.0,0.0,0.0,0.0,0.0,0.0,0.0,0.0,0.0,0.0,0.0,0.0,0.0,0.0,0.0,0.0,0.0,0.0,0.0,4.1638,4.0083,3.8969,3.8861,3.7421,3.6094,3.5078,3.3789,3.2617,3.1601,0.0,0.0,0.0,0.0,0.0,0.0,0.0,0.0,0.0,0.0,0.0,0.0,0.0,0.0,0.0,0.0,0.0,0.0,0.0,0.0,0.0,0.0,0.0,0.0,0.0,0.0,0.0,0.0,0.0,0.0,0.0,0.0,0.0,0.0,0.0,0.0,0.0,0.0,0.0,0.0,0.0,0.0,0.0,0.0,0.0,0.0,0.0,0.0,0.0,0.0,0.0,0.0,0.0,0.0,0.0,0.0,0.0,0.0,0.0,0.0,0.0,0.0,0.0,0.0,0.0,0.0,0.0,0.0,0.0,0.0,0.0,0.0,0.0,0.0,0.0,0.0,0.0,0.0,0.0,0.0,0.0,0.0,0.0,0.0,0.0,0.0,0.0,0.0,0.0,0.0,0.0,0.0,0.0,0.0,0.0,0.0,0.0,0.0,0.0,0.0,0.0,0.0,4.0338,3.9899,3.9122,3.7673,3.7383,3.6797,3.5508,3.418,3.2828,3.1362,0.0,0.0,0.0,0.0,0.0,0.0,0.0,0.0,0.0,0.0,0.0,0.0,0.0,0.0,0.0,0.0,0.0,0.0,0.0,0.0,0.0,0.0,0.0,0.0,0.0,0.0,0.0,0.0,0.0,0.0,0.0,0.0,0.0,0.0,0.0,0.0,0.0,0.0,0.0,0.0,0.0,0.0,0.0,0.0,0.0,0.0,0.0,0.0,0.0,0.0,0.0,0.0,0.0,0.0,0.0,0.0,0.0,0.0,0.0,0.0,4.8553,4.8414,0.0,0.0,0.0,0.0,0.0,0.0,0.0,0.0,0.0,0.0,0.0,0.0,0.0,0.0,0.0,0.0,0.0,0.0,0.0,0.0,0.0,0.0,0.0,0.0,0.0,0.0,0.0,0.0,0.0,0.0,0.0,0.0,0.0,0.0,0.0,0.0,0.0,0.0,0.0,0.0,4.1061,3.9467,3.8477,3.8784,3.7891,3.6797,3.5508,3.418,3.2291,2.9781,2.9182,0.0,0.0,0.0,0.0,0.0,0.0,0.0,0.0,0.0,0.0,0.0,0.0,0.0,0.0,0.0,0.0,0.0,0.0,0.0,0.0,0.0,0.0,0.0,0.0,0.0,0.0,0.0,0.0,0.0,0.0,0.0,0.0,0.0,0.0,0.0,0.0,0.0,0.0,0.0,0.0,0.0,0.0,0.0,0.0,0.0,0.0,0.0,0.0,0.0,0.0,0.0,0.0,0.0,0.0,0.0,0.0,0.0,0.0,0.0,4.8467,4.7937,0.0,0.0,0.0,0.0,0.0,0.0,0.0,0.0,0.0,0.0,0.0,0.0,0.0,0.0,0.0,0.0,0.0,0.0,0.0,0.0,0.0,0.0,0.0,0.0,0.0,0.0,0.0,0.0,0.0,0.0,0.0,0.0,0.0,0.0,0.0,0.0,0.0,0.0,0.0,0.0,4.0423,3.917,3.8476,3.9141,3.8437,3.7383,3.6133,3.4805,3.2664,2.9585,2.8992,0.0,0.0,0.0,0.0,0.0,0.0,0.0,0.0,0.0,0.0,0.0,0.0,0.0,0.0,0.0,0.0,0.0,0.0,0.0,0.0,0.0,0.0,0.0,0.0,0.0,0.0,0.0,0.0,0.0,0.0,0.0,0.0,0.0,0.0,0.0,0.0,0.0,0.0,0.0,0.0,0.0,0.0,0.0,0.0,0.0,0.0,0.0,0.0,0.0,0.0,0.0,0.0,0.0,5.3752,5.3351,5.2026,5.2578,5.2578,5.2026,4.9626,4.8352,4.7868,4.7669,0.0,0.0,0.0,0.0,0.0,0.0,0.0,0.0,0.0,0.0,0.0,0.0,0.0,0.0,0.0,0.0,0.0,0.0,0.0,0.0,0.0,0.0,3.9206,3.9964,3.8588,3.7708,4.0231,0.0,0.0,0.0,0.0,0.0,0.0,0.0,0.0,0.0,0.0,0.0,3.9562,3.92,3.8945,3.9375,3.8906,3.8125,3.6992,3.5625,3.3325,2.9789,2.9101,2.7704,0.0,0.0,0.0,0.0,0.0,0.0,0.0,0.0,0.0,0.0,0.0,0.0,0.0,0.0,0.0,0.0,0.0,0.0,0.0,0.0,0.0,0.0,0.0,0.0,0.0,0.0,0.0,0.0,0.0,0.0,0.0,0.0,5.1763,5.5195,0.0,0.0,0.0,0.0,0.0,0.0,0.0,0.0,0.0,0.0,0.0,0.0,0.0,5.7071,5.7847,5.7055,5.6095,5.5021,5.6031,5.5959,5.4888,5.544,5.5641,5.5418,5.2696,0.0,4.7628,4.6782,0.0,0.0,0.0,0.0,0.0,0.0,0.0,0.0,0.0,0.0,0.0,0.0,0.0,0.0,0.0,0.0,0.0,0.0,0.0,0.0,0.0,0.0,3.8208,3.8721,3.8616,3.8465,3.8891,3.9219,3.9432,3.9432,3.9647,3.9988,0.0,0.0,0.0,0.0,0.0,0.0,3.9687,3.9763,3.9883,4.0312,3.9297,3.8359,3.7812,3.625,3.3481,2.9325,2.8322,2.6758,2.4263,2.2617,0.0,0.0,0.0,0.0,0.0,0.0,0.0,0.0,0.0,0.0,0.0,0.0,0.0,0.0,0.0,0.0,0.0,0.0,0.0,0.0,0.0,0.0,0.0,0.0,0.0,0.0,0.0,0.0,0.0,5.2748,5.5313,5.5917,5.765,5.7881,0.0,0.0,0.0,0.0,0.0,0.0,0.0,0.0,0.0,5.9456,5.8713,5.8613,5.9073,5.9287,5.9106,5.8654,5.9458,5.9408,5.8654,5.9207,5.8412,5.6484,5.4974,5.1909,4.7866,4.6864,4.5393,4.3695,0.0,0.0,0.0,0.0,4.8718,5.0519,5.0167,4.9298,4.8161,4.6854,0.0,0.0,0.0,0.0,0.0,0.0,0.0,4.1814,4.0805,3.9804,3.9062,3.9258,3.9297,3.9375,3.9609,3.9374,3.903,3.8547,3.8425,3.8611,3.9451,3.8099,0.0,0.0,0.0,3.8748,3.9682,4.0057,4.0312,4.0508,3.9805,3.9023,3.8359,3.7148,3.4502,2.99,2.8893,2.6851,2.3229,2.2992,2.3825,0.0,0.0,0.0,0.0,0.0,0.0,0.0,0.0,0.0,0.0,0.0,0.0,0.0,0.0,0.0,0.0,0.0,0.0,0.0,0.0,0.0,0.0,0.0,0.0,0.0,0.0,0.0,0.0,5.6784,5.8732,5.7197,5.973,6.0178,0.0,0.0,0.0,0.0,0.0,0.0,6.0596,6.0525,6.0901,6.1655,6.1342,6.1416,6.1818,6.2521,6.2873,6.2873,6.3274,6.3174,6.2672,6.2348,6.0618,5.8,5.6053,5.2864,4.8861,4.7242,4.5244,4.3353,4.4387,4.5367,4.6325,4.8075,5.0084,5.1875,5.1574,5.0112,4.8114,4.7252,4.4188,4.1069,4.1979,0.0,0.0,0.0,0.0,4.229,4.1048,4.0703,4.0742,4.0859,4.0781,4.082,4.125,4.0742,3.9844,3.8672,3.7891,3.7806,3.871,3.7308,0.0,3.8902,3.8476,3.8398,3.957,4.0273,4.0703,4.0703,3.9739,3.882,3.8169,3.6743,3.4089,2.9829,2.9,2.7034,2.3361,2.3978,2.4568,2.4982,0.0,0.0,0.0,0.0,0.0,0.0,0.0,0.0,0.0,0.0,0.0,0.0,0.0,0.0,0.0,0.0,0.0,0.0,0.0,0.0,0.0,0.0,0.0,0.0,0.0,0.0,0.0,0.0,0.0,6.127,6.2952,0.0,0.0,0.0,0.0,5.9954,6.107,6.1782,6.1886,6.2885,6.4244,6.572,6.5735,6.6538,6.8145,6.7693,6.7442,6.7442,6.7493,6.7241,6.6552,6.3778,6.2058,6.109,5.5574,5.2524,5.1211,4.7559,4.49,4.3256,4.4577,4.6106,4.7946,5.059,5.2447,5.3632,5.4185,5.2661,5.0101,4.7881,4.3954,3.9876,3.948,4.0302,0.0,0.0,4.1798,4.2463,4.2893,4.293,4.3008,4.3398,4.3203,4.3047,4.3437,4.3203,4.2266,4.0195,3.875,3.8008,3.8543,0.0,3.7812,3.7962,3.9019,3.9648,3.9297,4.0351,4.1133,4.1133,3.8625,3.6954,3.6881,3.3919,3.093,2.8352,2.7843,2.6918,2.5398,2.5405,2.6468,2.876,2.8967,0.0,0.0,0.0,0.0,0.0,0.0,0.0,0.0,0.0,0.0,0.0,0.0,0.0,0.0,0.0,0.0,0.0,0.0,0.0,0.0,0.0,0.0,0.0,0.0,0.0,0.0,0.0,0.0,6.8879,7.0066,0.0,6.5589,6.4162,6.3349,6.2959,6.4327,6.5503,6.6187,6.7292,6.8346,6.93,6.9652,7.0104,7.0706,7.0907,7.0807,7.0455,7.0455,6.9082,6.6499,6.5096,6.2226,5.816,5.5825,5.3384,5.1089,5.1005,4.9399,4.6948,4.693,4.9172,5.2459,5.3152,5.4719,5.6174,5.4912,5.3029,5.0475,4.6248,4.3416,4.1562,4.1641,4.2226,4.2851,4.3164,4.3476,4.375,4.3867,4.3711,4.3516,4.3672,4.3594,4.3594,4.4062,4.3789,4.3359,4.2891,4.1523,4.0391,4.0273,3.9648,3.9375,3.9922,4.0195,4.0351,4.0469,4.0898,4.0666,3.9216,3.7915,3.6432,3.4864,3.3403,3.1349,2.8566,2.8057,2.6821,2.4512,2.6148,2.6694,2.5798,2.7661,2.7937,0.0,0.0,0.0,0.0,0.0,0.0,0.0,0.0,0.0,0.0,0.0,0.0,0.0,0.0,0.0,0.0,0.0,0.0,0.0,0.0,0.0,0.0,0.0,0.0,0.0,7.1183,7.5048,7.4629,7.5111,7.4021,7.0345,6.8039,6.6785,6.6675,6.8095,6.9501,7.0807,7.156,7.2213,7.2765,7.2916,7.3016,7.3016,7.3217,7.3117,7.2765,7.1716,6.9934,6.72,6.4863,6.1384,5.7325,5.6626,5.4828,5.2671,5.4681,5.4604,5.306,5.2171,5.3576,5.6247,5.6939,5.7953,5.8571,5.5265,5.2636,5.0093,4.5787,4.3906,4.3359,4.3633,4.4023,4.4453,4.4922,4.5156,4.5273,4.543,4.5234,4.5,4.5,4.4883,4.4922,4.5391,4.5117,4.4844,4.5,4.3633,4.2305,4.1875,4.1328,4.1172,4.1719,4.1328,4.1094,4.1523,4.0702,3.9531,3.8073,3.6253,3.4451,3.2744,3.2155,3.0901,2.8702,2.8221,2.7458,2.633,2.7423,2.7377,2.5865,2.6494,2.6188,2.4932,0.0,0.0,0.0,0.0,0.0,0.0,0.0,0.0,0.0,0.0,0.0,0.0,0.0,0.0,0.0,0.0,0.0,0.0,0.0,0.0,0.0,0.0,0.0,6.9875,7.5626,7.9464,7.8136,7.7649,7.6152,7.2846,7.0784,7.0104,7.1209,7.2313,7.3619,7.5226,7.5327,7.5578,7.608,7.5578,7.5327,7.5327,7.4774,7.4376,7.4279,7.1682,6.9908,6.8989,6.2967,5.9774,5.9026,5.7844,5.6752,5.602,5.8274,5.9922,6.0876,5.9867,5.9237,5.9105,6.1721,6.2008,6.0237,5.5325,5.1822,4.9105,4.6637,4.5469,4.5117,4.5117,4.543,4.5859,4.625,4.668,4.707,4.75,4.7578,4.7578,4.7578,4.7266,4.707,4.75,4.7266,4.6836,4.6406,4.4961,4.3672,4.3203,4.3125,4.3125,4.3086,4.2383,0.0,4.2344,3.986,3.7993,3.7914,3.3855,3.0956,3.0515,3.0057,2.9353,2.8372,2.7834,2.8585,3.0826,2.9155,2.8483,2.9368,2.5545,2.3494,2.3494,0.0,0.0,0.0,0.0,0.0,0.0,0.0,0.0,0.0,0.0,0.0,0.0,0.0,0.0,0.0,0.0,0.0,0.0,0.0,0.0,0.0,7.3971,7.6942,7.5684,8.0512,8.3644,8.2372,8.1943,8.0803,7.8399,7.6193,7.5126,7.5829,7.6532,7.6984,7.7034,7.7034,7.7084,7.7235,7.7084,7.7034,7.7034,7.6482,7.5136,7.3126,7.4092,7.1,6.4578,6.4591,6.1929,5.7401,5.8705,5.8784,5.8253,6.2165,6.2503,6.057,6.0551,6.0486,6.0343,6.1133,5.8818,5.5049,5.3339,5.0886,4.8424,4.7718,4.7226,4.6953,4.7226,4.7422,4.7617,4.8047,4.8008,4.7891,4.8008,4.7812,4.7578,4.7578,4.75,4.7422,4.7539,4.75,4.7266,4.6836,4.6367,4.5625,4.4258,4.4023,4.3828,4.3164,4.2891,4.2539,4.2031,4.1283,4.0028,3.8109,3.5375,3.2822,3.0706,2.8702,2.7213,2.6081,2.552,2.5285,2.5451,2.5952,2.6222,2.6308,2.3659,2.174,0.0,0.0,0.0,0.0,0.0,0.0,0.0,0.0,0.0,0.0,0.0,0.0,0.0,0.0,0.0,0.0,0.0,0.0,0.0,0.0,0.0,0.0,7.8998,8.2388,8.1624,8.4427,8.6456,8.6313,8.4537,8.2764,8.1598,7.9549,7.839,7.8741,7.9043,7.9193,7.9093,7.8892,7.8741,7.8741,7.8741,7.8641,7.839,7.6669,7.4891,7.3289,7.1993,6.8506,6.3258,6.3333,6.114,5.756,6.0824,6.172,6.1069,6.4728,6.4648,6.2179,0.0,0.0,0.0,0.0,5.7089,5.352,5.289,5.0884,4.875,4.8555,4.832,4.8164,4.8398,4.8476,4.8516,4.8789,4.8789,4.8711,4.8516,4.8437,4.8359,4.8164,4.8242,4.8359,4.8164,4.8281,4.8203,4.7578,4.7305,0.0,4.543,4.5039,4.4687,4.3984,4.3594,4.3086,4.2422,4.1196,3.9743,3.8109,3.5154,3.2655,3.0836,2.9223,0.0,0.0,0.0,2.5313,2.4511,2.4368,0.0,0.0,0.0,1.9594,1.8663,1.7077,0.0,0.0,1.6386,1.6067,0.0,0.0,0.0,0.0,0.0,0.0,0.0,0.0,0.0,0.0,0.0,0.0,0.0,0.0,0.0,0.0,8.3675,8.7015,8.7263,8.7534,8.7973,8.8884,8.571,8.3305,8.3058,8.1545,8.0599,8.0599,8.0599,8.075,8.1202,8.075,0.0,0.0,0.0,7.9675,7.9126,7.5563,7.3593,7.3134,6.778,6.467,6.348,6.0938,5.9318,5.8847,6.3096,6.4455,6.3668,6.5891,6.573,6.4038,6.2864,6.0844,5.8377,5.7478,5.5883,5.3945,5.2978,0.0,0.0,4.9141,4.9023,4.9023,4.9023,4.9023,4.9023,4.9023,4.9297,4.9492,4.9101,4.9258,4.9414,4.9023,4.9219,4.9414,4.9023,4.9258,4.9297,4.8437,4.793,4.7383,4.6601,4.6016,4.5547,4.5078,4.4297,4.3633,4.3203,4.0696,3.8821,3.842,3.4424,0.0,3.135,3.0534,2.9542,2.863,2.7614,2.6603,2.5557,2.338,2.2439,2.2898,1.9351,1.7559,1.752,1.599,1.5145,1.5145,1.4983,1.4951,0.0,0.0,0.0,0.0,0.0,0.0,0.0,0.0,0.0,0.0,0.0,0.0,0.0,0.0,0.0,8.3547,8.6496,8.8911,9.0998,8.9009,8.6879,8.5801,8.5698,8.5159,8.352,8.3081,8.2859,8.2859,8.2859,8.2708,8.2357,8.2257,8.2206,8.2206,7.9685,7.8147,7.7667,7.3942,7.0648,6.763,6.8218,0.0,6.1142,6.2455,6.1604,5.9246,6.1959,6.2762,6.2378,6.4246,6.2946,5.958,5.7858,5.6885,5.6052,5.3216,5.1888,5.1467,5.0952,5.0417,5.0039,4.9961,4.9922,4.9922,4.9922,4.9922,0.0,4.9922,5.0,5.0039,4.9961,4.9726,4.9492,4.9414,4.9453,4.9492,4.9414,4.9453,4.9375,4.8828,4.8398,4.793,4.7422,4.6406,4.5547,4.5078,4.4609,4.4101,4.3633,4.2407,4.1471,4.1048,3.6857,3.3937,3.358,3.0049,2.7606,2.6871,2.4469,2.2949,2.2507,2.0483,1.9492,1.9662,1.7563,1.6551,1.6656,1.5095,1.4323,1.4309,1.3856,1.3615,0.0,0.0,0.0,0.0,0.0,0.0,0.0,0.0,0.0,0.0,0.0,7.3432,7.6724,0.0,8.3759,8.6696,8.9292,9.0668,8.9978,8.8953,8.7617,8.6196,8.5679,8.5022,8.3972,8.3914,8.3914,8.3914,8.3914,8.3763,8.3512,8.1994,8.1064,8.1064,7.8066,7.6227,7.6064,7.2367,6.9565,6.7498,6.6597,6.4373,6.1055,6.2028,6.1467,5.9677,6.2241,6.2899,6.2251,6.2429,6.0545,5.7367,5.5789,5.4998,5.4356,5.2443,5.1641,5.1367,5.0937,5.0664,5.0469,5.0234,5.0195,5.0195,5.0195,5.0195,5.0195,5.0195,5.0312,5.043,5.0234,5.0156,5.0117,4.9922,5.0,5.0117,4.9883,4.9844,4.9726,4.9297,4.8672,4.8125,4.793,4.7187,4.6484,4.6055,4.5625,4.5117,4.4453,4.3594,4.2485,4.089,3.7311,3.4425,3.312,2.8427,2.5382,2.5026,2.2419,2.0857,2.0777,1.8899,1.7924,1.8126,1.6291,1.5429,1.5682,1.4811,1.4407,1.4394,1.4095,1.3878,0.0,0.0,0.0,0.0,0.0,0.0,0.0,6.9004,7.038,7.421,7.6066,7.8136,8.204,8.5228,8.7602,8.8619,9.0785,9.1287,8.8085,8.8245,8.8291,8.7297,8.5675,8.4447,8.3684,8.3684,8.3512,8.2942,8.2893,8.2893,8.2893,8.0431,7.8968,7.8941,7.5822,7.4178,7.4046,7.0657,6.86,6.7979,6.4752,6.2812,6.1953,6.1445,6.0859,6.027,6.2273,6.2611,6.1702,6.0692,5.8783,5.6601,5.5469,5.457,5.3789,5.3086,5.2578,5.2148,5.1797,5.1445,5.1133,5.0781,5.0664,5.0664,5.0586,5.0586,5.0625,5.0469,5.0742,5.0976,5.0547,5.0625,5.0703,5.0391,5.0547,5.0703,5.0391,5.0234,5.0078,4.9726,4.8945,4.832,4.832,4.8047,4.7656,4.7148,4.668,4.5958,4.475,4.3779,4.2132,3.9431,3.6492,3.3615,3.0778,2.663,2.3871,2.3343,2.0915,1.9599,1.9723,1.7825,1.6912,1.714,1.5538,1.4841,1.5059,1.4936,1.4841,1.4787,1.4787,1.4638,6.1622,6.2571,6.5211,6.8504,7.026,7.2475,0.0,7.7861,7.84,8.1811,8.3547,8.4754,8.5761,8.7724,8.9419,8.998,8.9296,8.8721,8.8829,8.7872,8.6974,8.6873,8.6297,8.4714,8.1845,8.1616,8.049,7.8088,7.7896,7.7896,7.7896,7.7538,7.7193,7.6697,7.3632,7.1806,7.1462,6.8207,6.5963,6.4743,6.434,6.3711,6.2851,6.1992,6.1601,6.1445,6.0615,5.9744,5.8957,5.88,5.814,5.7109,5.6562,5.6094,5.5469,5.3867,5.3008,5.2617,5.2578,5.2539,5.25,5.2422,5.2422,5.2344,5.1992,5.2148,5.2266,5.1484,5.1601,5.1836,5.1406,5.1055,5.0781,5.0742,5.0781,5.0781,5.0742,5.043,5.0156,5.0117,4.9375,4.8789,4.8789,4.875,4.8437,4.7617,4.7148,4.5845,4.319,4.216,4.0556,3.7745,3.4721,3.1094,2.6384,2.5625,2.4453,2.2219,2.0025,1.8828,1.9032,1.6834,1.5614,1.5794,1.5602,1.5466,1.5357,1.5343,1.5208,1.495,1.495,1.4855,6.4922,6.7073,6.9772,7.1738,7.439,7.7203,7.9776,8.1033,8.2269,8.4397,8.6547,8.7872,8.7705,8.924,9.016,8.9206,8.8826,8.8348,8.7402,8.6752,8.5612,8.3408,8.4863,8.4935,8.2273,8.2087,8.0867,7.8015,7.767,7.758,7.7817,7.5578,7.4209,7.3951,7.0753,6.885,6.8648,6.7315,6.6211,6.543,6.5195,6.4609,6.375,6.2851,6.207,6.1289,6.0273,5.9609,5.9219,5.875,5.832,5.789,5.7226,5.668,5.6133,5.4687,5.3867,5.3437,5.3164,5.293,5.2695,5.2695,5.2695,5.2656,5.25,5.2578,5.2617,5.2266,5.0984,4.9679,4.9492,4.9156,4.8857,4.8857,5.0066,5.1172,5.1172,5.0664,5.0195,5.0195,4.8289,4.6616,4.6616,4.5361,4.4311,4.3897,4.4745,4.4508,4.1717,4.0664,3.8318,3.3633,3.069,2.7575,2.3833,2.2454,2.1337,2.0454,1.828,1.7173,1.7239,1.6279,1.5832,1.59,1.5723,1.5601,1.5547,1.5371,1.5208,1.5099,1.5181,1.514,6.6914,7.0388,7.3783,7.5876,7.9297,8.2529,8.3547,8.4733,8.5956,8.7293,8.8667,8.9449,8.8511,8.9584,9.0015,8.803,8.8177,8.7884,8.6459,8.5599,8.4334,8.2046,8.3503,8.3684,8.1174,8.1101,7.977,7.6223,7.5676,7.5676,7.5848,7.304,7.1368,7.1121,6.954,6.8499,6.8379,6.8379,6.81,6.7542,6.6271,6.5351,6.4609,6.3672,6.25,6.1211,6.0508,6.0039,5.9765,5.9101,5.875,5.8476,5.7851,5.7226,5.664,5.5586,5.4844,5.4336,5.4023,5.3672,5.3398,5.3281,5.332,5.3359,5.3008,5.3047,5.2963,5.172,4.9815,4.795,4.693,4.6446,4.647,4.7167,4.8885,5.053,5.1251,5.0166,4.9072,4.9072,4.6324,4.3909,4.3909,4.2386,4.0947,4.0271,4.1481,4.1755,3.9754,3.7567,3.4515,3.0184,2.7368,2.4627,2.183,2.0097,1.9002,1.8498,1.6998,1.6103,1.6252,1.6225,1.6198,1.6198,1.5913,1.5737,1.5696,1.5398,1.5262,1.5316,1.5384,1.5371,6.5667,7.0318,7.548,8.1137,8.5462,8.8933,9.0848,9.0751,9.0653,9.1975,9.1154,8.9823,8.8352,8.8671,8.8604,8.7086,8.6839,8.6839,8.6776,8.4562,8.3462,8.4764,8.2888,7.9978,7.6685,7.7222,7.5622,7.0081,7.0029,7.0107,6.9676,6.9545,6.9115,6.8293,7.1321,7.2662,7.2119,7.2202,7.1782,7.0861,6.7666,6.5976,6.5508,6.4258,6.293,6.168,6.125,6.0586,5.9805,5.9805,5.9297,5.8515,5.8476,5.7969,5.7148,5.668,5.5976,5.5273,5.5273,5.5234,5.5156,5.4765,5.4883,5.5,5.3711,5.3945,5.3744,4.9359,4.8433,4.7832,4.4329,4.342,4.4127,4.6769,4.7464,4.8194,5.0822,4.8775,4.6404,4.6404,4.3703,4.1332,4.1332,4.1235,4.0368,3.7772,3.7478,3.7358,3.7027,3.2181,2.8599,2.8121,2.5635,2.2904,2.0068,1.9941,1.896,1.6495,1.6429,1.6564,1.6727,1.6592,1.651,1.651,1.6225,1.5995,1.5845,1.5547,1.5479,1.5615,1.5479,1.5493,7.1591,7.7211,8.2795,8.6918,9.0668,9.3171,9.2917,9.3313,9.2867,8.9694,8.8398,8.713,8.4936,8.4966,8.5305,8.5129,8.6073,8.6048,8.3893,8.3122,8.0845,7.5551,7.6716,7.5703,6.9761,7.6028,7.8469,7.3604,7.3376,7.3663,7.4114,7.1159,6.9336,6.9023,6.9558,6.9799,6.9551,6.9358,6.9037,6.8591,6.6947,6.5859,6.5117,6.414,6.3125,6.207,6.1094,6.0508,6.0195,5.9648,5.9219,5.8945,5.8633,5.8359,5.8008,5.7578,5.707,5.6445,5.5586,5.5312,5.5273,5.5156,5.5,5.4494,5.2091,5.1422,5.0651,4.727,4.4942,4.3067,4.1682,4.1089,4.108,4.1856,4.342,4.4933,4.5835,4.4747,4.3611,4.3849,4.1242,3.8956,3.9203,3.7591,3.5365,3.2446,3.2019,3.1967,3.189,2.8419,2.5333,2.3442,2.2223,2.0578,1.7923,1.7778,1.7557,1.6858,1.6795,1.6849,1.6904,1.6659,1.6524,1.6524,1.613,1.59,1.5859,1.5655,1.5588,1.5642,1.5683,1.5683,7.7684,8.3234,8.8394,9.2464,9.4456,9.5331,9.4594,9.3675,9.1803,8.7867,8.5784,8.3912,8.1871,8.1805,8.2257,8.301,8.3584,8.3424,8.1844,8.0022,7.7119,7.2518,7.3309,7.2528,6.8124,7.4999,7.7943,7.3434,7.4406,7.4993,7.4393,7.1465,6.9844,6.9687,7.0114,7.028,7.0119,6.9926,6.901,6.75,6.6797,6.5976,6.5117,6.4297,6.3437,6.2539,6.1367,6.0781,6.0625,6.0117,5.9687,5.9375,5.9101,5.8828,5.8476,5.8203,5.7812,5.7305,5.6328,5.5898,5.5742,5.5586,5.4695,5.3345,5.1178,4.9619,4.7961,4.4784,4.2464,4.0416,3.9044,3.8465,3.8445,3.9137,4.0595,4.2099,4.3115,4.2052,4.0996,4.1251,3.8731,3.6579,3.678,3.4401,3.1458,2.8472,2.7111,2.6862,2.7802,2.5358,2.2968,2.1328,2.0087,1.8633,1.709,1.6944,1.6944,1.7053,1.7012,1.6985,1.6985,1.6686,1.6524,1.6524,1.6076,1.5886,1.594,1.5737,1.5696,1.5805,1.5832,1.5832,8.3593,8.803,9.1971,9.7133,9.6814,9.5443,9.5921,9.2017,8.788,8.6564,8.3395,8.0449,7.9294,7.9243,7.9695,8.08,8.0136,7.968,8.079,7.5908,7.3169,7.546,7.2656,7.0706,7.1122,7.4177,7.418,6.9768,7.3182,7.4328,7.1409,7.0915,7.0586,7.0156,7.283,7.396,7.3415,7.35,7.1525,6.75,6.707,6.6406,6.5547,6.4726,6.3828,6.2969,6.207,6.1445,6.1094,6.1015,6.0547,5.9805,5.9805,5.9297,5.8483,5.8333,5.8061,5.7594,5.6948,5.663,5.631,5.5708,5.3821,5.1729,5.0652,4.8539,4.5551,4.2061,4.0803,3.9909,3.6555,3.5672,3.6203,3.8573,3.9107,3.9771,4.2335,4.0622,3.8572,3.8602,3.6145,3.4156,3.413,3.1597,2.8633,2.5862,2.3044,2.223,2.4849,2.29,2.1341,2.1341,1.9003,1.7419,1.7419,1.7283,1.7188,1.7188,1.7053,1.6985,1.6985,1.6686,1.6524,1.6524,1.6103,1.594,1.6076,1.5805,1.5805,1.6076,1.5927,1.594,8.9014,9.1983,9.403,9.6297,9.5298,9.3323,9.1548,8.9347,8.6673,8.2723,7.9454,7.6883,7.5327,7.7084,7.9093,8.0248,8.3616,8.4574,8.0332,7.9102,7.6401,7.0945,6.9911,6.9518,6.9002,7.2161,7.3203,7.0499,7.3599,7.6711,7.9213,7.4516,7.1484,7.1055,7.1201,7.1119,7.104,7.0045,6.8905,6.75,6.707,6.6406,6.5547,6.4726,6.3828,6.2969,6.1758,6.1211,6.1015,6.039,6.0,5.9765,5.9453,5.9219,5.8761,5.6441,5.5205,5.4501,5.2105,5.2321,5.3293,5.0837,4.9275,4.7909,4.5503,4.4032,4.2568,3.9335,3.828,3.8004,3.6638,3.6126,3.6154,3.6797,3.6546,3.6481,3.7307,3.6656,3.583,3.6051,3.3795,3.1668,3.1449,2.7419,2.3799,2.2743,2.0387,1.969,2.2141,2.015,1.8481,1.8481,1.785,1.7419,1.7419,1.7283,1.7188,1.7188,1.7053,1.6985,1.6985,1.6795,1.6632,1.6524,1.6307,1.6157,1.6076,1.6008,1.6008,1.6076,1.6035,1.6049,9.2747,9.4529,9.529,9.5417,9.3453,9.0716,8.8032,8.5628,8.2624,7.7888,7.5276,7.3368,7.1711,7.4322,7.7185,7.854,8.2273,8.4274,8.1917,7.9782,7.6931,7.2645,7.1003,7.0195,6.9883,7.1512,7.2912,7.3821,7.4968,7.6276,7.7727,7.401,7.1601,7.1367,7.0742,7.0273,7.0078,6.8828,6.8086,6.7773,6.7148,6.6523,6.582,6.5,6.3329,6.123,6.0023,5.8595,5.7183,5.6601,5.6165,5.5917,5.5698,5.537,5.485,5.3062,5.2233,5.1601,4.8448,4.8208,4.9169,4.8304,4.68,4.5008,4.3354,4.1708,4.0067,3.8262,3.7676,3.7462,3.6821,3.658,3.6393,3.6126,3.5832,3.5591,3.5618,3.5485,3.5059,3.3778,3.1175,2.8728,2.7192,2.4457,2.1837,2.0326,1.8947,1.8559,1.9902,1.866,1.7609,1.7609,1.7609,1.7609,1.7609,1.7419,1.7297,1.7297,1.7093,1.6985,1.6985,1.6836,1.6714,1.6619,1.6483,1.6361,1.6279,1.6212,1.6212,1.6279,1.6212,1.6212,9.5108,9.5612,9.522,9.3912,9.1102,8.7775,8.5044,8.1545,7.7586,7.3217,7.1359,7.0054,6.8447,7.141,7.4724,7.6682,7.9316,8.1884,8.3628,7.954,7.6455,7.6665,7.3822,7.1836,7.2148,7.1836,7.3268,7.6962,7.5977,7.4547,7.2807,7.2068,7.1523,7.1367,7.0937,7.0508,7.0078,6.8828,6.8203,6.8203,6.7265,6.664,6.6211,6.4818,6.2362,5.9125,5.757,5.5097,5.2374,5.2068,5.154,5.0879,5.0879,5.0417,4.979,4.9323,4.9239,4.8739,4.562,4.4372,4.4342,4.6367,4.5047,4.2691,4.2691,4.0688,3.829,3.8263,3.805,3.7702,3.7114,3.6927,3.6767,3.6286,3.6126,3.6019,3.5805,3.5589,3.4638,3.1558,2.8565,2.5681,2.3052,2.2411,2.1284,1.8696,1.8369,1.8369,1.8314,1.8097,1.7921,1.7894,1.7894,1.788,1.7867,1.7595,1.7419,1.7419,1.7148,1.6985,1.6985,1.6849,1.6768,1.6754,1.6619,1.6537,1.6524,1.6374,1.6388,1.6524,1.6374,1.6388,9.6576,9.4181,9.116,9.0844,8.7602,8.3864,8.1533,7.8342,7.4824,7.0857,6.8798,6.7292,6.6086,6.9401,7.3468,7.6984,8.1378,8.3862,8.2081,8.1575,7.9686,7.4617,7.3735,7.3398,7.3086,7.3047,7.344,7.4505,7.3992,7.4609,7.6714,7.4417,7.2461,7.1406,7.0937,7.0508,7.0078,6.8828,6.8203,6.8203,6.7265,6.664,6.6047,6.2467,6.0218,5.8965,5.4968,5.2988,5.2341,5.1715,5.1155,5.0879,5.0582,5.0186,4.944,4.6891,4.5945,4.5471,4.2332,4.1111,4.093,4.1297,4.0646,3.9856,3.9856,3.92,3.8584,3.8317,3.805,3.7729,3.7382,3.6954,3.6607,3.6767,3.642,3.6126,3.6313,3.4195,3.1449,2.8554,2.5573,2.3484,2.3069,2.1179,1.9356,1.8531,1.8599,1.8599,1.8355,1.8274,1.8192,1.807,1.8057,1.8002,1.788,1.7595,1.7419,1.7419,1.7148,1.6985,1.6985,1.6958,1.6876,1.6754,1.6727,1.6646,1.6524,1.6374,1.6388,1.6524,1.6374,1.6388,9.3849,9.2276,9.0247,8.8774,8.5966,8.2135,7.6954,7.3598,7.0362,6.5615,6.4206,6.3964,6.4412,6.7844,7.1194,7.3108,7.7171,8.0116,8.0268,7.9491,7.8341,7.666,7.5298,7.4531,7.4336,7.4297,7.4414,7.4609,7.4258,7.4584,7.5719,7.405,7.25,7.1406,7.0937,7.0508,7.0078,6.8828,6.8203,6.8203,6.7265,6.5834,6.3792,6.1475,5.8272,5.4387,5.1573,4.9371,4.7554,4.6805,4.6334,4.5888,4.5739,4.5353,4.4817,4.3293,4.2693,4.2452,4.0966,4.0374,4.0267,4.0267,3.9867,3.9332,3.9199,3.9038,3.8905,3.8584,3.829,3.7996,3.7863,3.7515,3.7195,3.7168,3.5475,3.4018,3.4293,3.0511,2.6813,2.5551,2.2942,2.0983,2.1059,1.9975,1.9047,1.8898,1.8938,1.8925,1.8694,1.8667,1.8518,1.8124,1.8097,1.8016,1.788,1.7595,1.7419,1.7419,1.7148,1.6985,1.6985,1.6985,1.6944,1.6876,1.6876,1.6836,1.6754,1.6605,1.6619,1.6754,1.6605,1.6619,9.1003,9.045,8.9466,8.7339,8.4868,8.1022,7.3421,6.9985,6.685,6.1374,6.0781,6.1741,6.2761,6.5595,6.7904,6.8193,7.1303,7.4618,7.7209,7.6279,7.5973,7.7749,7.6514,7.5351,7.5234,7.5234,7.5234,7.5234,7.4765,7.4258,7.3867,7.3047,7.2187,7.1367,7.0937,7.0508,7.0078,6.8828,6.8203,6.8203,6.6501,6.4347,6.1578,5.9638,5.5601,4.9988,4.8255,4.5871,4.3046,4.2485,4.1897,4.1336,4.1336,4.0989,4.0481,4.0535,4.0508,4.0481,4.0561,4.0508,4.0481,4.0481,4.0107,3.9626,3.9412,3.9134,3.9001,3.8878,3.8557,3.8263,3.8263,3.805,3.7616,3.6649,3.37,3.1092,3.0598,2.671,2.314,2.274,2.0812,1.925,1.9291,1.9305,1.9291,1.925,1.925,1.9196,1.9061,1.9006,1.8803,1.8287,1.8179,1.807,1.788,1.7623,1.746,1.7419,1.7175,1.7012,1.6985,1.6985,1.6985,1.6985,1.6985,1.6985,1.6985,1.6822,1.6836,1.6971,1.6822,1.6836,9.0466,8.9078,8.7114,8.6889,8.4014,7.9521,7.3179,7.0071,6.6958,6.1346,6.1516,6.225,6.0748,6.1643,6.2937,6.4187,6.6575,6.9061,7.1638,7.3836,7.4844,7.3913,7.5087,7.5625,7.5273,7.5234,7.5234,7.5234,7.4492,7.3828,7.3398,7.2539,7.1836,7.1367,7.0937,7.0508,7.0078,6.8828,6.8203,6.8164,6.4118,6.1873,6.132,5.4651,5.1009,4.9856,4.5683,4.36,4.3046,4.2485,4.1897,4.1336,4.1336,4.0989,4.0508,4.0775,4.0695,4.0508,4.0775,4.0695,4.0481,4.0481,4.0267,4.0,3.9947,3.9481,3.9028,3.9118,3.8691,3.8263,3.8263,3.805,3.705,3.3977,3.0773,2.7668,2.4943,2.404,2.2935,2.0288,1.952,1.9454,1.959,1.963,1.9576,1.9427,1.9413,1.9359,1.9196,1.9074,1.8925,1.8721,1.8464,1.8179,1.788,1.7717,1.7568,1.7433,1.727,1.7121,1.6985,1.6985,1.6985,1.6985,1.6985,1.6985,1.6985,1.6822,1.6836,1.6971,1.6822,1.6836,8.7645,8.7878,8.7178,8.6877,8.3361,7.8015,7.0305,6.7058,6.4005,5.8745,5.8174,5.8894,5.9507,5.8858,5.8297,5.8438,5.9269,6.0804,6.3217,6.5061,6.7347,7.0563,7.25,7.418,7.582,7.5976,7.5664,7.4883,7.4062,7.2387,6.9626,7.1302,7.1992,7.1015,7.0547,7.0039,6.9336,6.6131,6.4565,6.4565,6.0401,5.7248,5.5106,5.2222,4.9472,4.707,4.4914,4.3821,4.3314,4.2726,4.2031,4.1336,4.1523,4.1229,4.0775,4.1042,4.0989,4.0775,4.0882,4.0829,4.0695,4.0535,4.0508,4.0508,4.0134,3.9893,3.9626,3.9493,3.7683,3.5852,3.6,3.4275,3.2152,3.0724,2.791,2.5158,2.3991,2.2378,2.0765,1.9667,1.9508,1.959,1.9644,1.9657,1.9644,1.9576,1.9576,1.9522,1.9359,1.9196,1.902,1.8776,1.8491,1.8233,1.8016,1.7785,1.7582,1.7433,1.727,1.7134,1.6985,1.6985,1.6985,1.6985,1.6985,1.6985,1.6985,1.6917,1.6917,1.6985,1.6917,1.6917,8.4617,8.5699,8.5761,8.5133,8.0828,7.4649,6.6826,6.3596,6.074,5.5932,5.5443,5.6226,5.7045,5.5966,5.4556,5.3643,5.3787,5.512,5.7913,5.9648,6.2539,6.7695,6.9687,7.1875,7.4883,7.4815,7.3547,7.112,7.0232,6.8513,6.5511,6.7714,6.8542,6.7399,6.7123,6.6488,6.5535,6.229,6.0683,6.0587,5.6624,5.3412,5.1034,4.9957,4.795,4.5264,4.4703,4.4142,4.3607,4.2939,4.2245,4.1603,4.1737,4.1497,4.0946,4.0219,3.9769,3.9537,3.9537,3.9537,3.9609,4.0329,4.0163,3.946,3.9048,3.8764,3.8507,3.8301,3.5609,3.2888,3.2977,3.0419,2.7573,2.7382,2.4873,2.2544,2.2544,2.0973,1.9549,1.9549,1.9685,1.978,1.978,1.9752,1.9725,1.9725,1.9698,1.9603,1.9454,1.9291,1.9101,1.8803,1.8491,1.8247,1.8111,1.7826,1.7582,1.7433,1.727,1.7134,1.6985,1.6985,1.6985,1.6985,1.6985,1.6985,1.6985,1.6985,1.6985,1.6985,1.6985,1.6985,8.1955,8.2348,8.1823,8.0938,7.5468,6.8704,6.2833,6.021,5.7799,5.3353,5.4301,5.518,5.2924,5.2476,5.1998,5.0511,5.1347,5.3437,5.7305,5.9726,6.2187,6.5234,6.6797,6.875,7.1758,7.0865,6.7913,6.2952,6.2085,6.1721,6.1357,6.077,6.0206,5.9735,5.9338,5.8808,5.808,5.7352,5.7021,5.7021,5.2931,5.1034,5.09,4.7331,4.5585,4.5264,4.4703,4.4249,4.3928,4.302,4.2485,4.2191,4.1897,4.1603,4.0867,3.7817,3.6484,3.6249,3.6249,3.6249,3.6727,3.9881,3.8846,3.6249,3.6249,3.5685,3.5098,3.5098,3.2443,2.9663,2.9462,2.6962,2.4383,2.4316,2.178,1.9427,1.9427,1.9657,1.9875,1.9875,1.9997,2.0105,2.0105,1.9983,1.9875,1.9875,1.9752,1.9603,1.9454,1.9291,1.9101,1.8803,1.8491,1.8247,1.8111,1.7826,1.7582,1.7433,1.727,1.7134,1.6985,1.6985,1.6985,1.6985,1.6985,1.6985,1.6985,1.6985,1.6985,1.6985,1.6985,1.6985,7.4334,7.5058,7.4917,7.2241,6.8273,6.381,5.9524,5.7716,5.6066,5.3008,5.2716,5.2854,5.2482,5.1075,5.0225,5.0877,5.1641,5.293,5.5351,5.6101,5.7775,6.1193,6.3724,6.5574,6.6447,6.5671,6.4365,6.2594,6.1853,6.0066,5.7156,5.6548,5.725,5.9596,5.8737,5.8077,5.7582,5.445,5.29,5.29,4.9098,4.7331,4.7331,4.6156,4.5611,4.5291,4.4917,4.4463,4.3955,4.3233,4.2646,4.1938,3.9502,3.8289,3.7691,3.4469,3.3145,3.2933,3.2933,3.2933,3.3018,3.3815,3.365,3.2912,3.2742,3.2424,3.1588,2.921,2.7642,2.6291,2.3781,2.2388,2.1377,2.1324,2.0457,1.9725,1.9725,1.9888,2.0037,2.0037,2.0064,2.0064,1.9956,1.9902,1.9834,1.9752,1.9698,1.9603,1.9454,1.9223,1.8979,1.8776,1.8409,1.8111,1.7948,1.7758,1.7541,1.7283,1.7311,1.7243,1.6985,1.7175,1.7188,1.6985,1.708,1.7121,1.7121,1.7026,1.6013,1.4096,1.408,1.4069,6.9201,7.0118,6.9305,6.7006,6.2836,5.8587,5.5711,5.4158,5.2839,5.119,5.0584,5.0503,5.0993,4.9931,4.9336,5.0742,5.0414,5.0753,5.2997,5.2767,5.375,5.7346,6.057,6.1752,5.9886,6.0204,5.9763,5.7708,5.7008,5.5565,5.2803,5.2371,5.3173,5.5057,5.4339,5.2917,5.104,4.8232,4.6921,4.6921,4.4706,4.4345,4.5745,4.5745,4.5611,4.5318,4.4997,4.4543,0.0,4.1986,4.0952,4.0034,3.6499,3.5054,3.4363,3.1009,2.9673,2.9541,2.9465,2.9503,2.9799,3.0851,3.0417,2.9264,2.779,2.8086,2.8139,2.4706,2.377,2.3202,2.0881,2.0227,1.9803,1.8423,1.9,1.9615,1.8262,1.9156,2.0187,2.0187,2.0227,2.0227,2.0064,1.9997,1.9902,1.9766,1.9644,1.9522,1.9359,1.9074,1.883,1.8626,1.8287,1.8002,1.7785,1.7704,1.7541,1.7297,1.7365,1.7338,1.7161,1.7324,1.7338,1.7148,1.7229,1.7283,1.7283,1.6111,1.5105,1.4455,1.3348,1.3423,0.0,6.6346,6.4225,6.3735,5.8583,5.3164,5.1523,4.9883,0.0,4.8242,4.8164,4.832,4.8789,4.8775,4.8901,4.9872,4.7984,4.741,5.0438,4.9925,5.0492,5.3904,5.7029,5.7171,5.2846,5.4697,5.4339,5.0024,4.9379,4.9112,4.8818,4.8206,4.7743,4.7452,4.6701,4.446,4.0665,3.9964,3.9824,4.0102,4.0102,4.2089,4.5745,4.5718,4.5558,4.5264,4.4997,4.4409,4.3296,3.964,3.7762,3.6799,3.3107,3.1657,3.1068,2.7566,2.6256,2.6239,2.5925,2.5992,2.6746,2.967,2.8709,2.5567,2.2178,2.331,2.4934,2.1697,2.077,2.0702,2.0417,2.0227,1.9208,1.5827,1.7411,1.8657,1.5424,1.75,1.9958,1.9958,2.0191,2.0485,2.0349,2.02,2.0051,1.9888,1.963,1.9373,1.9196,1.8925,1.864,1.8342,1.8165,1.7962,1.7663,1.765,1.7582,1.7433,1.7433,1.7433,1.7433,1.7446,1.7446,1.7433,1.7217,1.7217,1.7419,1.4275,1.4275,1.7096,1.4264,1.4412,5.5528,0.0,5.4081,5.2118,5.0358,4.8984,0.0,4.793,4.7461,4.7695,4.7734,4.7969,4.8711,4.7307,4.6513,4.8281,4.6772,4.6015,4.7835,4.9017,4.9757,4.9837,5.1577,5.2039,5.0178,5.0654,5.0523,4.9554,4.8871,4.8551,4.8471,4.5316,4.3308,4.2896,3.9506,3.8855,4.0924,3.7514,3.7296,4.0102,4.0102,4.2089,4.5745,4.5531,4.5237,4.4943,4.465,4.2813,3.975,3.8534,3.6365,3.3432,2.9674,2.8075,2.7627,2.3964,2.2613,2.2598,2.2584,2.2584,2.2731,2.3478,2.323,2.248,2.1659,2.1784,2.2124,2.1109,2.077,2.0743,2.0539,2.0376,1.9377,1.5917,1.5791,1.5404,1.2001,1.4,1.6513,1.6513,1.8708,2.0485,2.0349,2.02,2.0051,1.9888,1.963,1.9345,1.9074,1.8776,1.8477,1.8179,1.8002,1.784,1.7663,1.765,1.7582,1.7433,1.7528,1.7595,1.7595,1.7704,1.7704,1.7595,1.5379,1.5222,1.7419,1.2349,1.1352,1.4155,1.3471,1.3408,4.8598,4.9786,5.0534,4.9508,4.8504,4.7812,4.7617,4.7226,4.6992,4.7226,4.7422,4.7412,4.689,4.6051,4.5512,4.5739,4.4266,4.3613,4.4898,4.6551,4.777,4.8385,4.9326,4.9807,4.9326,4.9139,4.9032,4.8871,4.831,4.7243,4.546,4.2996,4.0774,3.8764,3.4554,3.3277,3.5406,3.3064,3.3793,3.7575,3.7326,4.0214,4.5395,4.3581,4.246,4.2047,4.038,3.823,3.5853,3.4219,3.2193,2.9869,2.6103,2.4505,2.428,2.2139,2.1435,2.1435,2.1435,2.1435,2.1421,2.1353,2.1394,2.1435,2.1435,2.134,2.1163,2.0946,2.0878,2.0824,2.0594,1.9279,1.7149,1.371,1.2825,1.2319,1.0539,1.2902,1.5919,1.746,1.9255,2.0471,2.0254,2.0159,2.0037,1.9807,1.9522,1.9278,1.9115,1.8708,1.8369,1.8219,1.8057,1.7921,1.7758,1.7812,1.7758,1.7541,1.7663,1.7758,1.7758,1.7894,1.7962,1.7948,1.6317,1.6243,1.7717,1.3137,1.2434,1.5305,1.3926,1.3939,4.4414,4.7163,4.9849,5.0231,4.9098,4.7891,4.7461,4.7109,4.6747,4.6343,4.6729,4.6375,4.4472,4.4482,4.4416,4.3137,4.1713,4.1373,4.2975,4.4329,4.6012,4.8123,4.8925,4.9245,4.9112,4.8818,4.8524,4.8257,4.7123,4.5162,4.1966,4.0419,3.8027,3.451,3.0459,2.8319,2.8011,2.8011,2.9982,3.3633,3.3315,3.683,4.347,4.0197,3.8417,3.8052,3.5098,3.3195,3.1906,2.9205,2.7438,2.6204,2.3157,2.1815,2.1692,2.1516,2.1435,2.1435,2.1435,2.1435,2.1421,2.1285,2.093,2.0758,2.1156,2.0904,2.0522,2.0884,2.096,2.0763,1.9969,1.7494,1.4243,1.0447,0.9805,0.9926,0.9551,1.2664,1.6301,1.9115,2.0145,2.0458,2.0187,2.0119,2.001,1.9739,1.9413,1.9196,1.9169,1.8694,1.8342,1.8314,1.7755,1.761,1.7948,1.7596,1.7445,1.7662,1.784,1.7921,1.7935,1.807,1.8219,1.8314,1.7716,1.7636,1.8097,1.4909,1.4952,1.7867,1.5284,1.5254,4.5156,4.6708,4.7761,4.6821,4.6787,4.7031,4.6601,4.6445,4.5868,4.4083,4.3997,4.3963,4.295,4.1347,4.0508,4.1873,4.1627,4.2112,4.4837,4.6119,4.7135,4.823,4.8925,4.8978,4.823,4.7856,4.7669,4.7642,4.4198,4.1703,4.1136,3.4736,3.0906,3.019,2.6298,2.4101,2.4073,2.4073,2.6048,2.9716,2.9663,3.1952,3.5977,3.5221,3.4799,3.4592,3.3925,3.1858,2.8898,2.8242,2.6085,2.3271,2.2304,2.1869,2.1815,2.1543,2.1435,2.1435,2.1435,2.1435,2.1435,2.1408,1.9406,1.7391,2.035,1.9102,1.7312,2.009,2.0811,2.0114,1.6984,1.5781,1.3729,0.7369,0.8122,0.9506,0.6469,1.0951,1.5536,1.6036,1.8479,2.0485,2.0336,2.0187,2.0051,1.9875,1.9481,1.9169,1.9047,1.8708,1.8464,1.8342,1.5895,1.5407,1.8021,1.586,1.5395,1.7981,1.8111,1.8111,1.8247,1.8396,1.8423,1.8314,1.5664,1.5594,1.8097,1.4909,1.4952,1.7867,1.7411,1.7252,4.4453,4.5742,4.6797,4.6445,4.7344,4.7761,4.5709,4.51,4.4304,4.2006,4.209,4.208,4.0708,4.0605,4.1177,4.2347,4.2857,4.3661,4.5478,4.6119,4.6734,4.7803,4.815,4.823,4.7963,4.7669,4.6548,4.4374,4.2103,3.8951,3.4961,3.1174,2.8241,2.6026,2.4185,2.3307,2.3225,2.3225,2.5062,2.8864,2.878,3.0614,3.4013,3.1809,3.0881,3.0669,2.8687,2.6932,2.5385,2.5234,2.4138,2.2506,2.2059,2.1828,2.1747,2.153,2.1435,2.1421,2.1353,2.0031,1.8476,1.8394,1.6112,1.3841,1.7247,1.7137,1.6484,1.9896,2.077,1.9959,1.6323,1.5408,1.4131,0.9158,0.9139,1.041,1.0573,1.3125,1.5908,1.7842,1.9382,2.0485,2.0349,2.0282,2.0132,1.9902,1.963,1.94,1.925,1.8884,1.8037,1.6234,1.6163,1.6104,1.5805,1.608,1.6788,1.8201,1.8247,1.8287,1.8423,1.8491,1.8531,1.8545,1.7016,1.6916,1.8219,1.6715,1.6602,1.7867,1.7867,1.7758,4.4219,4.5,4.5795,4.6331,4.7366,4.7703,4.5412,4.4039,4.2674,4.0692,4.0681,4.0607,3.8848,4.0452,4.2303,4.3217,4.4222,4.5237,4.6146,4.6333,4.6707,4.7616,4.7562,4.7562,4.7829,4.6575,4.4624,4.1515,3.9093,3.5324,2.9565,2.8258,2.6344,2.328,2.3361,2.3347,2.3225,2.3225,2.4632,2.7585,2.7314,2.8627,3.1363,2.8335,2.7024,2.6852,2.426,2.3049,2.2995,2.2846,2.2683,2.2466,2.2045,2.1774,2.1597,2.1475,2.1435,2.1289,2.0363,1.8262,1.5928,1.5042,1.2872,1.1262,1.4805,1.5714,1.6334,1.9805,2.0716,1.9907,1.6323,1.5408,1.4504,1.1065,1.0282,1.1043,1.3637,1.4779,1.6174,1.8746,1.9904,2.0485,2.0349,2.0295,2.0187,1.9902,1.9712,1.9576,1.9454,1.9101,1.7923,1.556,1.6645,1.6537,1.4004,1.6756,1.864,1.8531,1.8491,1.8545,1.8694,1.8694,1.8721,1.8816,1.8654,1.8518,1.8369,1.8179,1.8043,1.7921,1.788,1.7455,4.5664,4.5032,4.4086,4.494,4.494,4.5042,4.636,4.4081,4.1493,4.0439,4.0297,3.9761,3.8219,3.9998,4.231,4.3688,4.5344,4.676,4.7642,4.8016,4.823,4.831,4.7829,4.7509,4.7535,4.3614,4.1016,4.0688,3.3932,2.9535,2.9135,2.558,2.3595,2.3429,2.3307,2.3239,2.3225,2.3225,2.3369,2.3642,2.3629,2.3703,2.3848,2.356,2.3546,2.3408,2.3287,2.313,2.2995,2.2846,2.2601,2.2316,2.2004,2.1706,2.1462,2.1435,2.1435,2.0891,1.7679,1.6327,1.5528,1.2179,1.0796,1.113,1.4589,1.5533,1.6077,1.9561,2.0553,1.979,1.6301,1.5408,1.4533,1.1138,1.0322,1.0417,1.0622,1.3151,1.5536,1.5663,1.8352,2.0485,2.0349,2.02,2.0064,1.9888,1.963,1.9454,1.9427,1.9278,1.905,1.88,1.6401,1.4715,1.4456,1.7339,1.9156,1.9128,1.9006,1.9006,1.9156,1.9156,1.9101,1.8979,1.883,1.8667,1.8518,1.8233,1.8097,1.807,1.7935,1.6341,4.5312,4.459,4.3754,4.4479,4.2584,4.0815,4.2029,4.1546,4.0469,3.9025,3.95,4.0123,3.9959,4.1737,4.3527,4.4623,4.644,4.7829,4.815,4.831,4.823,4.7856,4.7455,4.6286,4.3622,4.1746,3.8631,3.3968,3.0655,2.7902,2.558,2.4055,2.3347,2.3307,2.3347,2.3307,2.3225,2.3225,2.3225,2.3225,2.3225,2.3185,2.3158,2.3198,2.3185,2.3158,2.3198,2.313,2.2995,2.2846,2.2547,2.2167,2.176,2.1475,2.1313,2.1408,1.9911,1.7842,1.6593,1.3129,0.9514,1.0271,0.9015,0.8162,1.3844,1.5432,1.611,1.9535,2.0539,1.9776,1.6301,1.5408,1.4524,1.1073,1.0288,1.0282,1.0309,1.1322,1.2834,1.5015,1.6375,1.7839,1.9958,2.02,2.0078,2.0037,1.9929,1.9847,1.9847,1.9644,1.8758,1.6789,1.532,1.5342,1.7281,1.8483,1.9237,1.9345,1.9196,1.9156,1.9196,1.9196,1.9128,1.8993,1.8938,1.8776,1.8531,1.8423,1.8274,1.8084,1.6106,1.4553,4.4109,4.2622,4.117,4.197,3.9641,3.7544,3.879,3.9508,3.9783,3.9281,3.9786,4.0615,4.1577,4.2752,4.3955,4.5131,4.6867,4.8123,4.823,4.815,4.7909,4.7428,4.6014,4.3987,4.1206,3.8394,3.4698,2.9622,2.7951,2.5935,2.3437,2.3347,2.3347,2.3293,2.3347,2.332,2.3225,2.3225,2.3225,2.3225,2.3225,2.3225,2.3225,2.3225,2.3225,2.3225,2.3171,2.3076,2.2927,2.2723,2.2371,2.1937,2.153,2.134,2.1167,2.0006,1.813,1.5704,1.3503,0.9508,0.5751,0.8109,0.7124,0.6146,1.196,1.3811,1.4249,1.6673,1.7321,1.6673,1.4377,1.4632,1.476,1.2451,1.0268,0.8608,0.8608,0.9506,1.1036,1.3354,1.5443,1.7516,1.9945,2.02,2.0105,2.0105,2.0105,2.0105,2.0105,1.9929,1.8922,1.6767,1.6329,1.7032,1.9212,1.9345,1.8906,1.8033,1.8799,1.9345,1.9345,1.9345,1.925,1.9061,1.9061,1.8898,1.8599,1.8545,1.7853,1.674,1.4537,1.2532,4.2156,3.9073,3.5896,3.6877,3.6125,3.5752,3.7809,3.8504,3.9412,4.1737,4.155,4.131,4.2432,4.2699,4.3287,4.5024,4.6547,4.7616,4.7883,4.7669,4.7402,4.7081,4.3249,4.0641,4.0478,3.3488,2.8864,2.8864,2.5333,2.3293,2.3429,2.3307,2.3293,2.3456,2.3307,2.3225,2.3225,2.3225,2.3225,2.3225,2.3225,2.3225,2.3225,2.3225,2.3225,2.3225,2.3063,2.2927,2.2764,2.2466,2.2072,2.1638,2.134,2.1299,2.0878,1.7269,1.5979,1.5005,0.7914,0.5343,0.5313,0.518,0.5133,0.572,0.9218,1.0329,1.0268,1.0268,1.0268,1.0268,1.0268,1.2834,1.527,1.527,1.0019,0.502,0.502,0.7839,1.0268,1.0268,1.5697,2.0196,2.0336,2.02,2.0105,2.0105,2.0105,2.0105,2.0105,2.0105,2.0051,1.9888,1.9752,1.9657,1.9657,1.9657,1.8293,1.4857,1.7806,1.9657,1.9657,1.9657,1.9522,1.9196,1.9196,1.9061,1.8762,1.8599,1.69,1.3774,1.3548,1.0253,4.0308,3.8513,3.6907,3.7788,3.7082,3.6767,3.9252,3.9893,4.0722,4.3527,4.3554,4.3207,4.3527,4.4115,4.4623,4.4943,4.6413,4.7455,4.7348,4.7428,4.6197,4.2943,4.1437,3.8423,3.2923,3.0318,2.7743,2.5062,2.3786,2.3239,2.3293,2.3239,2.3239,2.3293,2.3239,2.3225,2.3225,2.3225,2.3225,2.3225,2.3225,2.3225,2.3225,2.3225,2.3225,2.3225,2.3063,2.2927,2.2751,2.2235,2.1882,2.1652,2.1462,1.9729,1.7423,1.6397,1.2764,0.8062,0.6117,0.3717,0.198,0.433,0.509,0.5716,0.9292,1.0288,1.0268,1.0268,1.0268,1.0268,1.0268,0.925,0.8095,0.8095,0.476,0.1547,0.1547,0.4248,0.733,0.9884,1.3719,1.7387,1.9785,1.9956,1.9861,2.0064,2.0105,2.0132,2.0241,2.0254,2.0159,1.9902,1.9834,1.9766,1.9657,1.9657,1.8293,1.4857,1.7806,1.8671,1.6332,1.8428,1.9522,1.9196,1.9196,1.9061,1.8762,1.6481,1.4896,1.3659,0.9355,0.6305,3.8419,3.7207,3.6219,3.7415,3.7564,3.8263,4.0909,4.1978,4.2993,4.4997,4.4837,4.4436,4.481,4.5024,4.5211,4.5398,4.636,4.7108,4.6921,4.6948,4.533,4.1133,3.9147,3.5764,2.9449,2.7458,2.5619,2.3369,2.3225,2.3225,2.3225,2.3225,2.3225,2.3225,2.3225,2.3225,2.3225,2.3225,2.3225,2.3225,2.3225,2.3225,2.3225,2.3225,2.3185,2.3117,2.2846,2.2588,2.2303,2.195,2.1706,2.1423,1.9804,1.7854,1.5562,1.2764,0.9009,0.5018,0.3705,0.1847,0.0525,0.4041,0.4155,0.3756,0.7211,0.7325,0.6174,0.6174,0.6174,0.6174,0.6174,0.4631,0.3476,0.476,0.2448,0.0387,0.1676,0.4625,0.8058,1.1629,1.4767,1.763,1.9625,1.9902,1.9888,2.0064,2.02,2.0309,2.0404,2.0309,2.0173,1.9983,1.9902,1.982,1.9685,1.86,1.6878,1.4857,1.6564,1.6808,1.4664,1.7841,1.9427,1.9128,1.9115,1.8405,1.689,1.4994,1.2733,1.012,0.6408,0.3934,3.6672,3.5686,3.4843,3.6393,3.821,4.0241,4.2699,4.4356,4.5531,4.6039,4.5611,4.5398,4.6119,4.5638,4.5398,4.6119,4.6467,4.6514,4.6154,4.5777,4.4179,4.0034,3.6284,3.2507,2.8722,2.5205,2.3225,2.3225,2.3225,2.3225,2.3225,2.3225,2.3225,2.3225,2.3225,2.3225,2.3225,2.3225,2.3225,2.3225,2.3225,2.3225,2.3198,2.3198,2.3117,2.2927,2.2493,2.2072,2.1665,2.1665,2.1437,2.0626,1.7291,1.5582,1.4293,0.7661,0.5015,0.4372,0.1188,0.0,0.0521,0.3641,0.2591,0.0516,0.3734,0.2448,0.0,0.0,0.0,0.0,0.0,0.0,0.0774,0.3862,0.2319,0.0903,0.4377,0.767,1.1053,1.4477,1.769,1.9875,1.9888,1.9736,1.9594,1.9607,1.9846,2.0131,2.0399,2.0282,2.0105,2.0105,1.9956,1.982,1.9698,1.707,1.5216,1.4735,1.4979,1.4927,1.4552,1.7597,1.9291,1.8993,1.8758,1.7142,1.4062,1.3489,1.0333,0.4703,0.435,0.2685,3.5021,3.5477,3.6206,3.8397,4.0989,4.3233,4.4249,4.5291,4.5959,4.5852,4.6627,4.7215,4.6921,4.7108,4.7108,4.6627,4.676,4.5804,4.235,4.1809,3.9287,3.2197,3.0584,2.8597,2.4775,2.3656,2.3225,2.3225,2.3225,2.3225,2.3225,2.3225,2.3225,2.3225,2.3225,2.3225,2.3225,2.3225,2.3225,2.3225,2.3225,2.3171,2.3063,2.3063,2.2846,2.2466,2.2249,2.1964,2.1665,2.1665,1.9955,1.7147,1.6317,1.2664,0.745,0.5969,0.3559,0.1047,0.0262,0.0,0.0129,0.0905,0.0646,0.0129,0.0903,0.0645,0.0,0.0,0.0,0.0,0.0,0.0,0.0129,0.0903,0.0516,0.0903,0.4377,0.767,1.1053,1.4477,1.769,1.9902,2.0037,1.7718,1.5994,1.6179,1.6244,1.731,1.9998,2.02,2.0105,2.0105,1.9956,1.9861,1.9834,1.9141,1.7599,1.4857,1.7197,1.7332,1.4439,1.7548,1.9291,1.8993,1.6591,1.4857,1.4062,0.9143,0.6082,0.4622,0.2137,0.0591,3.479,3.5805,3.7221,4.0294,4.2779,4.4543,4.4997,4.5638,4.5592,4.3736,4.3997,4.4693,4.4516,4.3161,4.1775,4.1278,4.1184,4.0454,3.8098,3.7611,3.5482,2.9591,2.8864,2.7458,2.3499,2.3225,2.3225,2.3225,2.3225,2.3225,2.3225,2.3225,2.3225,2.3225,2.3225,2.3185,2.3117,2.3117,2.3076,2.3008,2.3008,2.29,2.2696,2.2696,2.2479,2.2113,2.1964,2.1774,2.1423,1.9675,1.7879,1.5805,1.2289,0.8651,0.5177,0.343,0.1574,0.0,0.0,0.0,0.0,0.0,0.1167,0.2202,0.0519,0.1167,0.2199,0.0517,0.0,0.0,0.0,0.0,0.0387,0.2062,0.2448,0.3345,0.6785,1.0039,1.3385,1.6921,1.7518,1.7423,1.7678,1.4802,1.3089,1.4962,1.5235,1.6359,1.9727,2.0078,1.9997,1.9997,1.9929,1.9834,1.978,1.8222,1.7161,1.6981,1.7043,1.6912,1.6591,1.8271,1.9183,1.8884,1.5869,1.3477,1.1788,0.7049,0.3962,0.2393,0.0719,0.0,3.5578,3.6801,3.8397,4.1924,4.3848,4.4943,4.5318,4.5196,4.4369,4.1395,4.0993,4.1131,4.0741,3.7986,3.5611,3.5203,3.5062,3.4557,3.3613,3.3413,3.2008,2.8388,2.7853,2.6714,2.3499,2.3225,2.3225,2.3225,2.3225,2.3225,2.3225,2.3225,2.3225,2.3225,2.3198,2.313,2.3008,2.2954,2.2886,2.2778,2.2723,2.2547,2.2249,2.2235,2.2099,2.1828,2.1692,2.157,2.1169,1.7557,1.5671,1.4587,0.8651,0.584,0.5031,0.1963,0.0912,0.078,0.0259,0.0,0.0129,0.065,0.2991,0.494,0.2471,0.3511,0.4804,0.1679,0.0516,0.0129,0.0774,0.0903,0.1805,0.5149,0.6431,0.7567,1.03,1.3133,1.6092,1.9483,1.7258,1.4493,1.3438,1.1016,1.0306,1.3719,1.4332,1.5666,1.9568,1.9435,1.8974,1.9,1.8483,1.8284,1.8806,1.631,1.5999,1.9146,1.6745,1.6259,1.8875,1.9156,1.8851,1.8065,1.5018,1.1864,0.8563,0.5409,0.2539,0.0,0.0,0.0,3.7724,3.9029,4.0535,4.2833,4.4142,4.5024,4.5558,4.3218,4.0847,4.0783,4.1276,4.0597,3.7266,3.6247,3.5773,3.5203,3.4941,3.3453,2.9911,2.9315,2.7898,2.4146,2.3748,2.3647,2.3212,2.3225,2.3225,2.3225,2.3225,2.3225,2.3225,2.3225,2.3225,2.3225,2.3103,2.3022,2.3008,2.2751,2.2683,2.2778,2.252,2.2235,2.1937,2.1815,2.1747,2.1692,2.153,2.1462,2.1169,1.7557,1.4196,1.1245,1.0238,0.793,0.513,0.4568,0.4409,0.3996,0.1032,0.0,0.0516,0.3483,0.4918,0.5842,0.8251,0.724,0.532,0.4644,0.2319,0.0645,0.3605,0.4377,0.5278,0.8731,1.1811,1.4093,1.4496,1.4836,1.619,1.9496,1.7398,1.3295,0.7233,0.6009,0.6917,1.0173,1.0616,1.2795,1.9176,1.7304,1.5409,1.5639,1.2964,1.229,1.5101,1.4886,1.5866,1.8999,1.8853,1.8655,1.8993,1.925,1.7876,1.4772,1.1753,0.8583,0.5285,0.2198,0.0368,0.0,0.0,0.0,3.9868,4.0179,4.0722,4.2752,4.3955,4.4219,4.2727,4.1138,3.8988,3.5205,3.4565,3.431,3.2719,3.2335,3.1409,2.8898,3.0017,2.9929,2.5945,2.546,2.4768,2.3246,2.313,2.3158,2.3225,2.3225,2.3225,2.3225,2.3225,2.3225,2.3225,2.3225,2.3225,2.3225,2.3076,2.2927,2.2764,2.2534,2.2371,2.2276,2.214,2.1964,2.176,2.1706,2.1625,2.1543,2.1475,2.1435,2.1169,1.7557,1.51,1.3443,1.1365,0.9452,0.7948,0.8025,0.6834,0.4889,0.3348,0.1547,0.0258,0.1692,0.4947,0.8181,0.7538,0.9094,1.0629,0.8626,0.694,0.6174,0.7587,0.7967,0.8859,1.2315,1.4249,1.5887,1.7677,1.8031,1.7378,1.4922,1.1828,0.8568,0.5506,0.5007,0.6789,1.2009,1.2713,1.3747,1.6568,1.5622,1.4012,1.2333,1.0712,1.1172,1.4359,1.4623,1.5866,1.9093,1.925,1.9169,1.9115,1.7499,1.5091,1.1601,1.0315,0.8025,0.4692,0.1591,0.0,0.0,0.0,0.0978,4.0725,3.9954,3.968,4.1897,4.3207,4.3241,4.031,3.9039,3.6845,3.0565,2.8487,2.8102,2.9395,2.949,2.831,2.5179,2.6904,2.7342,2.3564,2.2981,2.3008,2.3158,2.3171,2.3185,2.3225,2.3225,2.3225,2.3225,2.3225,2.3225,2.3225,2.3185,2.3171,2.3171,2.2995,2.2764,2.2506,2.2289,2.2018,2.1706,2.1706,2.1652,2.1543,2.1543,2.1516,2.1435,2.1435,2.1421,2.1116,1.7501,1.5969,1.5584,1.2854,1.1739,1.1541,1.1586,0.989,0.7587,0.6701,0.4773,0.2848,0.366,0.7577,1.1457,0.9651,1.2097,1.5026,1.2347,1.0908,1.0531,1.142,1.1555,1.2451,1.5908,1.6695,1.7425,1.9772,2.0349,1.8547,1.2605,0.9474,0.7459,0.6559,0.6431,0.8446,1.412,1.4322,1.3996,1.4674,1.3278,1.1295,0.8845,0.7864,0.8961,1.3092,1.3271,1.5034,1.9133,1.9278,1.884,1.7995,1.5701,1.2612,0.8487,0.8436,0.6844,0.3514,0.1104,0.037,0.1234,0.1234,0.2947,3.9408,3.7949,3.7301,3.9974,4.1684,4.222,3.9743,3.6946,3.3711,2.9834,2.6162,2.4891,2.8467,2.916,2.9193,2.8865,2.8672,2.7342,2.3564,2.2886,2.2846,2.3008,2.3022,2.3076,2.3198,2.3225,2.3225,2.3225,2.3225,2.3225,2.3225,2.3103,2.3022,2.3022,2.2723,2.2506,2.2357,2.1923,2.1543,2.1245,2.1245,2.1245,2.1231,2.1231,2.1313,2.1435,2.1435,2.1353,2.0955,1.7368,1.5847,1.5604,1.5234,1.5194,1.5164,1.5183,1.5015,1.4386,1.126,1.0125,1.0506,1.3754,1.5114,1.6073,1.8845,1.7809,1.5531,1.5173,1.2834,1.1036,1.4249,1.5143,1.6036,1.9382,2.0285,2.0285,2.0412,2.0417,1.9215,1.5749,1.5015,1.3857,1.0531,1.0012,1.1134,1.473,1.2362,1.1405,1.4538,0.9381,0.529,0.5167,0.2343,0.3072,0.9373,0.9845,1.2585,1.8866,1.9196,1.7757,1.4648,1.4511,1.1492,0.5056,0.5127,0.3571,0.0246,0.0123,0.1603,0.4675,0.4675,0.6365,4.1315,3.876,3.642,3.8557,4.0428,4.049,3.5284,3.4124,3.2513,2.6522,2.6215,2.7444,2.8865,2.9101,2.8999,2.8813,2.8577,2.7213,2.3564,2.2954,2.2981,2.313,2.3158,2.3171,2.3225,2.3225,2.3225,2.3225,2.3225,2.3225,2.3225,2.3171,2.3103,2.3008,2.271,2.2303,2.1774,2.1516,2.1285,2.1068,2.1177,2.1218,2.1218,2.1218,2.1245,2.1285,2.119,2.1177,2.1073,1.9789,1.9142,1.8889,1.884,1.8754,1.8692,1.8857,1.7447,1.5392,1.4336,1.2552,1.085,1.2023,1.3817,1.586,1.6967,1.7937,1.8795,1.8631,1.783,1.7066,1.8352,1.8618,1.8988,2.0145,2.0539,2.0539,2.0539,1.8696,1.6767,1.5653,1.3601,1.2451,1.3354,1.3601,1.4731,1.7917,1.7285,1.5404,1.2302,0.9627,0.725,0.5167,0.3817,0.5773,1.2352,1.2839,1.4775,1.9253,1.7538,1.5834,1.4613,1.0502,0.721,0.488,0.4907,0.3318,0.0,0.209,0.3694,0.4921,0.7005,0.9778,4.0972,3.8046,3.5511,3.7489,3.8985,3.8797,3.4235,3.4004,3.3252,2.7873,2.878,3.0708,3.0779,2.9646,2.8661,2.8594,2.8492,2.7213,2.3564,2.3049,2.3117,2.3198,2.3225,2.3225,2.3225,2.3225,2.3225,2.3225,2.3225,2.3225,2.3225,2.313,2.2954,2.271,2.2411,2.1991,2.1435,2.1245,2.1082,2.1001,2.1041,2.1123,2.1218,2.1218,2.1218,2.1218,2.1055,2.1014,2.1055,2.096,2.0838,2.0702,2.0756,2.0702,2.0634,2.0783,1.9393,1.7455,1.7592,1.6188,1.4215,1.4047,1.5564,1.7433,1.7224,1.868,2.0539,2.0539,2.0539,2.0539,2.0539,2.0539,2.0539,2.0539,2.0539,2.0539,2.0539,1.8746,1.7066,1.7066,1.527,1.4495,1.6695,1.7066,1.7819,2.0025,1.9264,1.6841,1.2353,1.0648,0.8992,0.6764,0.6518,0.8722,1.4237,1.4735,1.5589,1.7928,1.5955,1.4237,1.3128,0.8845,0.6518,0.6518,0.6518,0.552,0.3299,0.552,0.7128,0.8232,1.0402,1.3019,0.0,0.0,0.0,3.6714,3.7301,3.7318,3.6957,3.6686,3.5952,3.3873,3.3493,3.3711,3.4111,3.0936,2.8374,2.8402,2.8436,2.7185,2.3564,2.313,2.3225,2.3225,2.3225,2.3355,2.3369,2.3499,2.3499,2.3369,2.3355,2.3355,2.3225,2.294,2.2574,2.2113,2.1828,2.1597,2.1435,2.1136,2.1001,2.1001,2.0865,2.0933,2.1218,2.1218,2.1218,2.119,2.1055,2.0919,2.077,2.077,2.0689,2.0553,2.0716,2.077,2.0783,2.0946,2.1014,2.1041,2.1177,2.1231,2.119,2.1055,2.1001,2.0946,2.0634,2.0539,2.0539,2.0539,2.0539,2.0539,2.0539,2.0539,2.0539,2.0539,2.0539,2.0539,2.0539,2.0539,2.0539,2.0539,2.0539,2.0539,2.0539,2.0539,2.0539,2.0539,1.7724,1.5446,1.5207,1.222,1.0161,0.9955,0.9948,1.1295,1.4603,1.4857,1.4857,1.4857,1.4735,1.326,1.007,0.9825,0.9825,0.9825,0.9948,0.9948,0.9948,0.9948,1.1539,1.4715,1.4603,1.6243,3.7478,0.0,0.0,0.0,0.0,0.0,3.3547,3.3863,3.4122,3.1907,3.1885,3.1691,3.0042,2.9037,2.7536,2.4939,2.4442,2.4131,2.3137,2.313,2.3225,2.3225,2.5372,2.7046,2.7316,2.9576,2.9982,2.7442,2.7188,2.5865,2.3205,2.2669,2.2303,2.195,2.176,2.1543,2.1285,2.119,2.1109,2.1001,2.1055,2.1068,2.1068,2.1163,2.1082,2.0892,2.0865,2.0756,2.0607,2.0607,2.0648,2.0716,2.0756,2.0838,2.0946,2.1109,2.1231,2.134,2.1489,2.1543,2.1489,2.1245,2.1082,2.0946,2.0634,2.0539,2.0539,2.0539,2.0539,2.0539,2.0539,2.0539,2.0539,2.0539,2.0539,2.0539,2.0539,2.0539,2.0539,2.0539,2.0539,2.0539,2.0539,2.0539,2.0539,2.0539,1.9659,1.8019,1.5687,1.4274,1.3644,1.3626,1.3428,1.4735,1.805,1.8306,1.8306,1.8306,1.6088,1.4237,1.3382,1.105,0.9825,0.9825,1.2151,1.3382,1.3382,1.3308,1.3634,1.4603,1.6698,1.8274,3.6104,3.4931,3.4042,3.4656,0.0,0.0,3.4719,3.4717,3.5078,3.5062,3.5333,3.4283,3.0515,3.0074,2.857,2.3524,2.2764,2.2818,2.29,2.3049,2.3117,2.3049,2.6182,2.8369,2.8627,3.182,3.3197,3.0999,2.9437,2.6807,2.2878,2.2357,2.2045,2.1801,2.1652,2.1421,2.1123,2.1123,2.1055,2.0919,2.0987,2.1055,2.1082,2.1109,2.1041,2.0865,2.0811,2.0689,2.0539,2.0539,2.0634,2.077,2.0838,2.096,2.1109,2.1245,2.1408,2.1543,2.1638,2.1665,2.1625,2.1313,2.1123,2.0946,2.0634,2.0539,2.0539,2.0539,2.0539,2.0539,2.0539,2.0539,2.0539,2.0539,2.0539,2.0539,2.0539,2.0539,2.0539,2.0539,2.0539,2.0539,2.0539,2.0539,2.0539,2.0539,2.0471,1.962,1.7665,1.7227,1.7076,1.7017,1.6889,1.7563,1.9536,1.9657,1.9158,1.7697,1.5833,1.4735,1.4735,1.2893,1.2526,1.388,1.5833,1.6675,1.6617,1.6715,1.6657,1.6541,1.8312,1.9101,3.4435,3.3961,3.4282,3.5565,3.5137,0.0,3.7702,3.7275,3.7221,4.0214,4.0276,3.8324,3.3159,3.2281,3.0275,2.3767,2.3313,2.3707,2.2905,2.3197,2.3508,2.3482,2.6912,2.9384,2.9419,3.2882,3.4702,3.3691,3.01,2.6182,2.2427,2.2004,2.1801,2.1652,2.1516,2.1299,2.1014,2.1014,2.0946,2.0783,2.0783,2.0933,2.1163,2.1055,2.0987,2.0946,2.0824,2.0689,2.0539,2.0539,2.0648,2.0811,2.0946,2.1109,2.1245,2.1394,2.1543,2.1692,2.1692,2.1692,2.1652,2.1353,2.1136,2.0946,2.0648,2.0553,2.0539,2.0539,2.0539,2.0539,2.0539,2.0553,2.0553,2.0553,2.058,2.0594,2.0594,2.058,2.0553,2.0553,2.0553,2.0539,2.0539,2.0539,2.0539,2.0539,2.0539,2.0485,2.0363,2.0227,2.0064,1.9942,1.9807,1.9698,1.9685,1.9685,1.844,1.5467,1.5234,1.5234,1.5234,1.5234,1.6709,1.9657,1.9657,1.959,1.9454,1.9576,1.9508,1.9223,1.9196,1.9156,3.4251,3.4416,3.4603,3.4656,3.4843,0.0,3.5458,3.5485,3.5885,3.7489,3.5609,3.3057,3.0639,3.0333,2.922,2.5306,2.8073,2.8913,2.358,2.543,2.7278,2.7223,3.2844,3.6786,3.6963,4.0293,3.9998,3.4221,2.7395,2.3088,2.1828,2.1747,2.1638,2.1489,2.1462,2.1353,2.1177,2.1177,2.1109,2.0946,2.0946,2.0933,2.0865,2.096,2.0865,2.0634,2.0743,2.0689,2.0539,2.0539,2.0702,2.096,2.0987,2.1163,2.1408,2.1421,2.1611,2.1842,2.1842,2.1842,2.1815,2.1638,2.1313,2.096,2.0783,2.0648,2.0539,2.0539,2.0539,2.0539,2.0539,2.0634,2.0716,2.0716,2.0824,2.0906,2.0906,2.0811,2.0716,2.0716,2.0634,2.0539,2.0539,2.0539,2.0539,2.0539,2.0539,2.0526,2.0512,2.0376,2.0282,2.0241,2.0105,1.9956,1.9834,1.9834,1.9535,1.8806,1.8671,1.8671,1.8671,1.8774,1.9154,1.9657,1.9657,1.9644,1.9603,1.9522,1.9454,1.9373,1.925,1.925,3.4683,3.487,3.5004,3.5164,3.5191,0.0,0.0,3.5191,3.5351,3.6687,3.5459,3.3654,3.1642,3.1513,3.0639,2.7845,2.9723,3.0297,2.7056,2.9064,3.0798,3.0521,3.5004,3.8301,3.8418,4.0197,3.8465,3.1284,2.7003,2.376,2.1813,2.1597,2.153,2.1435,2.1367,2.1245,2.1109,2.1041,2.0919,2.077,2.077,2.077,2.077,2.077,2.0729,2.0648,2.0661,2.0607,2.0539,2.0634,2.0783,2.1001,2.1001,2.1177,2.1435,2.1435,2.1638,2.1882,2.1882,2.1882,2.1842,2.1638,2.1299,2.096,2.0716,2.0594,2.0553,2.0634,2.0648,2.0661,2.0756,2.0824,2.0878,2.0878,2.0946,2.0987,2.0892,2.0824,2.0756,2.0661,2.0594,2.0539,2.0539,2.0539,2.0539,2.0539,2.0539,2.0539,2.0539,2.0417,2.0336,2.0336,2.0187,2.0064,1.9997,1.9983,1.9929,1.978,1.9766,1.9739,1.9657,1.9725,1.9739,1.9657,1.9657,1.9657,1.9657,1.959,1.9508,1.9427,1.9359,1.9359,3.5404,3.5565,3.5778,3.6072,3.5939,3.5752,0.0,0.0,0.0,3.6473,3.6473,3.554,3.3117,3.3266,3.2917,3.0225,3.107,3.188,3.1754,3.3421,3.4312,3.344,3.6376,3.8545,3.8545,3.7599,3.4406,2.8049,2.6605,2.4718,2.1758,2.1516,2.1421,2.1408,2.1285,2.1123,2.096,2.0838,2.0702,2.0539,2.0539,2.0607,2.0716,2.0594,2.0607,2.0716,2.0594,2.0553,2.0594,2.0716,2.0878,2.1041,2.1041,2.1231,2.1475,2.1462,2.1665,2.1964,2.1896,2.1896,2.1882,2.1611,2.1285,2.0946,2.0634,2.0553,2.0607,2.0743,2.0783,2.0838,2.096,2.1014,2.1041,2.1041,2.1041,2.1001,2.0878,2.0811,2.0743,2.0607,2.0553,2.0539,2.0539,2.0539,2.0539,2.0539,2.0539,2.0539,2.0539,2.0431,2.0363,2.0363,2.0254,2.0173,2.0159,2.0119,2.0037,1.9888,1.9861,1.978,1.9657,1.9657,1.9685,1.9698,1.9685,1.9657,1.9657,1.9657,1.959,1.9481,1.9481,1.9481,3.642,3.6927,3.7355,3.666,3.6981,3.7275,3.6286,0.0,3.5885,3.5805,0.0,3.4502,3.1666,0.0,0.0,3.1324,3.4715,3.7438,3.6663,3.797,3.802,3.5863,3.9173,4.1664,4.1664,3.5956,3.0832,2.7466,2.3767,2.1584,2.1462,2.1462,2.1367,2.1245,2.1231,2.1068,2.0811,2.077,2.0702,2.0539,2.0539,2.0553,2.0553,2.0539,2.0553,2.0553,2.0539,2.0607,2.0756,2.077,2.0933,2.119,2.119,2.1367,2.1638,2.1489,2.1787,2.2249,2.1977,2.1977,2.2059,2.1882,2.1462,2.0946,2.0634,2.0634,2.0756,2.077,2.0878,2.0987,2.1001,2.1082,2.119,2.119,2.119,2.1177,2.1163,2.0946,2.077,2.0756,2.0634,2.0539,2.0539,2.0539,2.0539,2.0539,2.0539,2.0539,2.0539,2.0526,2.0526,2.0526,2.0512,2.0431,2.0309,2.0173,2.0037,1.9888,1.9752,1.9685,1.9657,1.9657,1.9712,1.9834,1.9725,1.9657,1.9657,1.9657,1.9644,1.9644,1.9644,1.9644,3.6767,3.7168,3.7515,3.7301,3.7569,0.0,3.6767,0.0,3.6233,3.5939,0.0,0.0,0.0,0.0,0.0,0.0,3.589,3.7301,3.6954,3.7863,3.84,3.8082,3.9405,3.9003,3.5687,3.0896,2.6779,2.3685,2.1867,2.096,2.1177,2.1353,2.1367,2.1218,2.1123,2.0987,2.077,2.0689,2.0607,2.0539,2.0539,2.0539,2.0539,2.0539,2.0539,2.0539,2.0634,2.0716,2.0783,2.1055,2.1231,2.1367,2.153,2.1638,2.1665,2.1692,2.1964,2.2303,2.2099,2.2059,2.2018,2.153,2.1136,2.0824,2.0607,2.0648,2.0783,2.0878,2.1014,2.1136,2.1231,2.1299,2.1353,2.1353,2.1285,2.119,2.1109,2.0933,2.0756,2.0648,2.0594,2.0539,2.0539,2.0539,2.0539,2.0539,2.0539,2.0539,2.0539,2.0539,2.0539,2.0539,2.0539,2.0526,2.0458,2.0309,2.0173,2.001,1.978,1.9657,1.9657,1.9657,1.9698,1.9752,1.9698,1.9698,1.978,1.978,1.9834,1.9902,1.9752,1.9712,3.7301,3.7622,3.7996,3.8023,3.8076,0.0,0.0,0.0,0.0,0.0,3.6206,0.0,0.0,0.0,3.5431,3.5778,0.0,3.6126,3.6046,3.666,3.7515,3.8718,3.8126,3.5578,3.0373,2.6956,2.3873,2.0752,2.0458,2.0539,2.0865,2.1123,2.1218,2.1082,2.0987,2.0865,2.0716,2.0594,2.0539,2.0539,2.0539,2.0539,2.0539,2.0539,2.0553,2.0607,2.0716,2.0824,2.0919,2.1285,2.1489,2.1597,2.1896,2.195,2.1869,2.1923,2.2167,2.2425,2.2235,2.214,2.2004,2.134,2.1055,2.0919,2.0716,2.077,2.0919,2.1041,2.1163,2.1299,2.1408,2.1435,2.1435,2.1435,2.1299,2.1123,2.1014,2.0838,2.0689,2.0553,2.0539,2.0539,2.0539,2.0539,2.0539,2.0539,2.0539,2.0539,2.0539,2.0539,2.0539,2.0539,2.0539,2.0539,2.0539,2.0363,2.0187,1.9997,1.978,1.9657,1.9657,1.9657,1.9657,1.9657,1.9657,1.9739,1.9875,1.9875,1.9942,2.0105,1.9888,1.9834,3.845,3.8878,3.9386,3.8825,3.8691,0.0,0.0,0.0,3.7702,0.0,0.0,0.0,0.0,0.0,0.0,0.0,3.5244,0.0,0.0,3.5084,3.5725,3.6901,3.4981,3.2366,2.9109,2.5783,2.2721,2.0093,1.9644,1.978,2.0526,2.0702,2.0783,2.0783,2.0783,2.0702,2.0553,2.0539,2.0539,2.0539,2.0539,2.0539,2.0539,2.0539,2.0634,2.077,2.077,2.0933,2.1218,2.1367,2.1611,2.1896,2.2194,2.2316,2.2303,2.2167,2.2398,2.2723,2.2425,2.2235,2.2045,2.1584,2.1421,2.1367,2.1068,2.1082,2.119,2.1218,2.1313,2.1435,2.1435,2.1435,2.1435,2.1435,2.1218,2.1001,2.1001,2.077,2.0539,2.0539,2.0539,2.0539,2.0539,2.0539,2.0539,2.0539,2.0539,2.0539,2.0539,2.0539,2.0539,2.0539,2.0539,2.0539,2.0539,2.0282,1.9983,1.9698,1.9657,1.9657,1.9657,1.9657,1.9657,1.9657,1.9657,1.9739,1.9875,1.9875,1.9942,2.0105,2.0078,2.0078,3.9118,3.9493,3.984,3.9626,0.0,0.0,0.0,0.0,0.0,0.0,0.0,0.0,0.0,0.0,0.0,0.0,0.0,3.5164,0.0,3.3502,3.2509,3.2853,3.1001,2.8449,2.5424,2.2185,1.9979,1.9506,1.925,1.9413,2.0064,2.0431,2.0607,2.0607,2.0716,2.0702,2.0539,2.0539,2.0539,2.0539,2.0539,2.0539,2.0539,2.0648,2.0716,2.0783,2.0987,2.1177,2.1394,2.1638,2.1923,2.2194,2.2411,2.2479,2.2479,2.2534,2.2588,2.2601,2.2411,2.2303,2.2167,2.1611,2.1435,2.1394,2.1082,2.1109,2.1218,2.1218,2.1313,2.1435,2.1435,2.1435,2.1435,2.1435,2.1218,2.1001,2.1001,2.0756,2.0539,2.0539,2.0539,2.0539,2.0539,2.0539,2.0539,2.0539,2.0539,2.0539,2.0539,2.0539,2.0539,2.0539,2.0539,2.0539,2.0539,2.0363,2.0173,1.9956,1.9861,1.9807,1.9807,1.9712,1.9657,1.9657,1.9657,1.978,2.0037,2.0037,2.0159,2.0404,2.0404,2.0349,3.9813,4.0107,0.0,4.0348,4.0401,0.0,3.9733,0.0,3.968,0.0,0.0,0.0,0.0,0.0,0.0,0.0,0.0,0.0,0.0,3.2605,3.0386,2.9405,2.7104,2.49,2.3052,2.0095,1.8396,1.864,1.8708,1.8979,1.9454,1.9956,2.0282,2.0376,2.058,2.0648,2.0539,2.0539,2.0539,2.0539,2.0539,2.0539,2.0539,2.0702,2.0811,2.0865,2.1109,2.134,2.1543,2.1774,2.2099,2.2425,2.2574,2.2642,2.2656,2.2805,2.2805,2.2696,2.2547,2.2466,2.2344,2.1896,2.1692,2.1543,2.1313,2.1258,2.134,2.1543,2.153,2.1489,2.1706,2.1597,2.1435,2.1435,2.1218,2.1001,2.1001,2.0756,2.0539,2.0539,2.0539,2.0539,2.0539,2.0539,2.0539,2.0539,2.0539,2.0539,2.0539,2.0539,2.0539,2.0539,2.0539,2.0526,2.0471,2.0376,2.0254,2.0119,1.9956,1.9875,1.9875,1.9739,1.978,2.0051,1.9807,1.9942,2.0485,2.0227,2.0254,2.0539,2.0539,2.0485]},{"header":{"parameterUnit":"m.s-1","parameterCategory":1,"la1":30.6,"la2":29.2853,"lo1":-89.7004,"lo2":-87.6739,"dy":0.0162,"dx":0.0183,"nx":112,"ny":82,"refTime":"2023-10-11T00:00:00:Z","depth":0,"parameterNumber":3,"parameterNumberName":"V-component_of_WINDS"},"data":[0.0,0.0,0.0,0.0,0.0,0.0,0.0,0.0,0.0,0.0,0.0,0.0,0.0,0.0,0.0,0.0,0.0,0.0,0.0,0.0,0.0,0.0,0.0,0.0,0.0,0.0,0.0,0.0,0.0,0.0,0.0,0.0,0.0,0.0,0.0,0.0,0.0,0.0,0.0,0.0,0.0,0.0,0.0,0.0,0.0,0.0,0.0,0.0,0.0,0.0,0.0,0.0,0.0,0.0,0.0,0.0,0.0,0.0,0.0,0.0,0.0,0.0,0.0,0.0,0.0,0.0,0.0,0.0,0.0,0.0,0.0,0.0,0.0,0.0,0.0,0.0,0.0,0.0,0.0,0.0,0.0,0.0,0.0,0.0,0.0,0.0,0.0,0.0,0.0,0.0,4.8494,5.0268,5.5082,5.8032,5.7668,5.713,5.6224,5.4871,0.0,0.0,0.0,0.0,0.0,0.0,0.0,0.0,0.0,0.0,0.0,0.0,0.0,0.0,0.0,0.0,0.0,0.0,0.0,0.0,0.0,0.0,0.0,0.0,0.0,0.0,0.0,0.0,0.0,0.0,0.0,0.0,0.0,0.0,0.0,0.0,0.0,0.0,0.0,0.0,0.0,0.0,0.0,0.0,0.0,0.0,0.0,0.0,0.0,0.0,0.0,0.0,0.0,0.0,0.0,0.0,0.0,0.0,0.0,0.0,0.0,0.0,0.0,0.0,0.0,0.0,0.0,0.0,0.0,0.0,0.0,0.0,0.0,0.0,0.0,0.0,0.0,0.0,0.0,0.0,0.0,0.0,0.0,0.0,0.0,0.0,0.0,0.0,0.0,0.0,0.0,0.0,0.0,0.0,0.0,0.0,0.0,0.0,0.0,0.0,0.0,0.0,0.0,0.0,5.1289,5.5254,5.8378,5.9994,5.967,5.7873,5.6427,5.5615,0.0,0.0,0.0,0.0,0.0,0.0,0.0,0.0,0.0,0.0,0.0,0.0,0.0,0.0,0.0,0.0,0.0,0.0,0.0,0.0,0.0,0.0,0.0,0.0,0.0,0.0,0.0,0.0,0.0,0.0,0.0,0.0,0.0,0.0,0.0,0.0,0.0,0.0,0.0,0.0,0.0,0.0,0.0,0.0,0.0,0.0,0.0,0.0,0.0,0.0,0.0,0.0,0.0,0.0,0.0,0.0,0.0,0.0,0.0,0.0,0.0,0.0,0.0,0.0,0.0,0.0,0.0,0.0,0.0,0.0,0.0,0.0,0.0,0.0,0.0,0.0,0.0,0.0,0.0,0.0,0.0,0.0,0.0,0.0,0.0,0.0,0.0,0.0,0.0,0.0,0.0,0.0,0.0,0.0,0.0,0.0,0.0,0.0,0.0,0.0,0.0,0.0,0.0,5.1134,5.3568,5.6997,5.8936,5.9883,5.9494,5.7848,5.6292,5.5209,5.3646,0.0,0.0,0.0,0.0,0.0,0.0,0.0,0.0,0.0,0.0,0.0,0.0,0.0,0.0,0.0,0.0,0.0,0.0,0.0,0.0,0.0,0.0,0.0,0.0,0.0,0.0,0.0,0.0,0.0,0.0,0.0,0.0,0.0,0.0,0.0,0.0,0.0,0.0,0.0,0.0,0.0,0.0,0.0,0.0,0.0,0.0,0.0,0.0,0.0,0.0,0.0,0.0,0.0,0.0,0.0,0.0,0.0,0.0,0.0,0.0,0.0,0.0,0.0,0.0,0.0,0.0,0.0,0.0,0.0,0.0,0.0,0.0,0.0,0.0,0.0,0.0,0.0,0.0,0.0,0.0,0.0,0.0,0.0,0.0,0.0,0.0,0.0,0.0,0.0,0.0,0.0,0.0,0.0,0.0,0.0,0.0,0.0,0.0,0.0,0.0,0.0,0.0,5.333,5.538,5.7744,5.9147,5.9658,5.9059,5.7645,5.6156,5.4668,5.3923,0.0,0.0,0.0,0.0,0.0,0.0,0.0,0.0,0.0,0.0,0.0,0.0,0.0,0.0,0.0,0.0,0.0,0.0,0.0,0.0,0.0,0.0,0.0,0.0,0.0,0.0,0.0,0.0,0.0,0.0,0.0,0.0,0.0,0.0,0.0,0.0,0.0,0.0,0.0,0.0,0.0,0.0,0.0,0.0,0.0,0.0,0.0,0.0,0.0,0.0,0.0,0.0,0.0,0.0,0.0,0.0,0.0,0.0,0.0,0.0,0.0,0.0,0.0,0.0,0.0,0.0,0.0,0.0,0.0,0.0,0.0,0.0,0.0,0.0,0.0,0.0,0.0,0.0,0.0,0.0,0.0,0.0,0.0,0.0,0.0,0.0,0.0,0.0,0.0,0.0,0.0,0.0,0.0,0.0,0.0,0.0,0.0,0.0,0.0,0.0,0.0,0.0,5.4549,5.6488,5.8492,6.0208,6.0613,5.9096,5.7645,5.6156,5.4668,5.3923,0.0,0.0,0.0,0.0,0.0,0.0,0.0,0.0,0.0,0.0,0.0,0.0,0.0,0.0,0.0,0.0,0.0,0.0,0.0,0.0,0.0,0.0,0.0,0.0,0.0,0.0,0.0,0.0,0.0,0.0,0.0,0.0,0.0,0.0,0.0,0.0,0.0,0.0,0.0,0.0,0.0,0.0,0.0,0.0,0.0,0.0,0.0,0.0,0.0,0.0,0.0,0.0,0.0,0.0,0.0,0.0,0.0,0.0,0.0,0.0,0.0,0.0,0.0,0.0,0.0,0.0,0.0,0.0,0.0,0.0,0.0,0.0,0.0,0.0,0.0,0.0,0.0,0.0,0.0,0.0,0.0,0.0,0.0,0.0,0.0,0.0,0.0,0.0,0.0,0.0,0.0,0.0,0.0,0.0,0.0,0.0,0.0,0.0,0.0,0.0,0.0,0.0,5.5076,5.7043,5.862,5.9852,6.0148,5.9133,5.7239,5.5683,5.4668,0.0,0.0,0.0,0.0,0.0,0.0,0.0,0.0,0.0,0.0,0.0,0.0,0.0,0.0,0.0,0.0,0.0,0.0,0.0,0.0,0.0,0.0,0.0,0.0,0.0,0.0,0.0,0.0,0.0,0.0,0.0,0.0,0.0,0.0,0.0,0.0,0.0,0.0,0.0,0.0,0.0,0.0,0.0,0.0,0.0,0.0,0.0,0.0,0.0,0.0,0.0,0.0,0.0,0.0,0.0,0.0,0.0,0.0,0.0,0.0,0.0,0.0,0.0,0.0,0.0,0.0,0.0,0.0,0.0,0.0,0.0,0.0,0.0,0.0,0.0,0.0,0.0,0.0,0.0,0.0,0.0,0.0,0.0,0.0,0.0,0.0,0.0,0.0,0.0,0.0,0.0,0.0,0.0,0.0,0.0,0.0,0.0,0.0,0.0,0.0,0.0,0.0,5.3542,5.5928,5.7944,5.9217,6.0229,6.0351,5.9133,5.7171,5.5615,5.4668,0.0,0.0,0.0,0.0,0.0,0.0,0.0,0.0,0.0,0.0,0.0,0.0,0.0,0.0,0.0,0.0,0.0,0.0,0.0,0.0,0.0,0.0,0.0,0.0,0.0,0.0,0.0,0.0,0.0,0.0,0.0,0.0,0.0,0.0,0.0,0.0,0.0,0.0,0.0,0.0,0.0,0.0,0.0,0.0,0.0,0.0,0.0,0.0,0.0,0.0,0.0,0.0,0.0,0.0,0.0,0.0,0.0,0.0,0.0,0.0,0.0,0.0,0.0,0.0,0.0,0.0,0.0,0.0,0.0,0.0,0.0,0.0,0.0,0.0,0.0,0.0,0.0,0.0,0.0,0.0,0.0,0.0,0.0,0.0,0.0,0.0,0.0,0.0,0.0,0.0,0.0,0.0,0.0,0.0,0.0,0.0,0.0,0.0,0.0,0.0,0.0,0.0,5.4761,5.729,5.9346,6.0492,6.1676,6.1501,5.9201,5.7645,5.6156,0.0,0.0,0.0,0.0,0.0,0.0,0.0,0.0,0.0,0.0,0.0,0.0,0.0,0.0,0.0,0.0,0.0,0.0,0.0,0.0,0.0,0.0,0.0,0.0,0.0,0.0,0.0,0.0,0.0,0.0,0.0,0.0,0.0,0.0,0.0,0.0,0.0,0.0,0.0,0.0,0.0,0.0,0.0,0.0,0.0,0.0,0.0,0.0,0.0,0.0,0.0,0.0,0.0,0.0,0.0,0.0,0.0,0.0,0.0,0.0,0.0,0.0,0.0,0.0,0.0,0.0,0.0,0.0,0.0,0.0,0.0,0.0,0.0,0.0,0.0,0.0,0.0,0.0,0.0,0.0,0.0,0.0,0.0,0.0,0.0,0.0,0.0,0.0,0.0,0.0,0.0,0.0,0.0,0.0,0.0,0.0,0.0,0.0,0.0,0.0,0.0,0.0,0.0,5.5565,5.837,6.0693,6.2002,6.2278,6.1704,5.9945,5.7983,5.6156,5.4668,0.0,0.0,0.0,0.0,0.0,0.0,0.0,0.0,0.0,0.0,0.0,0.0,0.0,0.0,0.0,0.0,0.0,0.0,0.0,0.0,0.0,0.0,0.0,0.0,0.0,0.0,0.0,0.0,0.0,0.0,0.0,0.0,0.0,0.0,0.0,0.0,0.0,0.0,0.0,0.0,0.0,0.0,0.0,0.0,0.0,0.0,0.0,0.0,0.0,0.0,0.0,0.0,0.0,0.0,0.0,0.0,0.0,0.0,0.0,0.0,0.0,0.0,0.0,0.0,0.0,0.0,0.0,0.0,0.0,0.0,0.0,0.0,0.0,0.0,0.0,0.0,0.0,0.0,0.0,0.0,0.0,0.0,0.0,0.0,0.0,0.0,0.0,0.0,0.0,0.0,0.0,0.0,0.0,0.0,0.0,0.0,0.0,0.0,0.0,0.0,0.0,0.0,5.6658,5.9566,6.2061,6.3415,6.337,6.2516,6.0757,5.8524,5.6494,5.4735,0.0,0.0,0.0,0.0,0.0,0.0,0.0,0.0,0.0,0.0,0.0,0.0,0.0,0.0,0.0,0.0,0.0,0.0,0.0,0.0,0.0,0.0,0.0,0.0,0.0,0.0,0.0,0.0,0.0,0.0,0.0,0.0,0.0,0.0,0.0,0.0,0.0,0.0,0.0,0.0,0.0,0.0,0.0,0.0,0.0,0.0,0.0,0.0,0.0,0.0,0.0,0.0,0.0,0.0,0.0,0.0,0.0,0.0,0.0,0.0,0.0,0.0,0.0,0.0,0.0,0.0,0.0,0.0,0.0,0.0,0.0,0.0,0.0,0.0,0.0,0.0,0.0,0.0,0.0,0.0,0.0,0.0,0.0,0.0,0.0,0.0,0.0,0.0,0.0,0.0,0.0,0.0,0.0,0.0,0.0,0.0,0.0,0.0,0.0,0.0,0.0,0.0,5.7877,6.1001,6.353,6.4761,6.4749,6.3734,6.1501,5.9201,5.7004,5.4873,0.0,0.0,0.0,0.0,0.0,0.0,0.0,0.0,0.0,0.0,0.0,0.0,0.0,0.0,0.0,0.0,0.0,0.0,0.0,0.0,0.0,0.0,0.0,0.0,0.0,0.0,0.0,0.0,0.0,0.0,0.0,0.0,0.0,0.0,0.0,0.0,0.0,0.0,0.0,0.0,0.0,0.0,0.0,0.0,0.0,0.0,0.0,0.0,0.0,0.0,0.0,0.0,0.0,0.0,0.0,0.0,0.0,0.0,0.0,0.0,5.3102,5.3651,0.0,0.0,0.0,0.0,0.0,0.0,0.0,0.0,0.0,0.0,0.0,0.0,0.0,0.0,0.0,0.0,0.0,0.0,0.0,0.0,0.0,0.0,0.0,0.0,0.0,0.0,0.0,0.0,0.0,0.0,0.0,0.0,0.0,0.0,0.0,0.0,0.0,0.0,0.0,0.0,5.9466,6.2855,6.5649,6.7007,6.5628,6.3734,6.1501,5.9201,5.722,5.557,5.4738,0.0,0.0,0.0,0.0,0.0,0.0,0.0,0.0,0.0,0.0,0.0,0.0,0.0,0.0,0.0,0.0,0.0,0.0,0.0,0.0,0.0,0.0,0.0,0.0,0.0,0.0,0.0,0.0,0.0,0.0,0.0,0.0,0.0,0.0,0.0,0.0,0.0,0.0,0.0,0.0,0.0,0.0,0.0,0.0,0.0,0.0,0.0,0.0,0.0,0.0,0.0,0.0,0.0,0.0,0.0,0.0,0.0,0.0,0.0,5.6001,5.5634,0.0,0.0,0.0,0.0,0.0,0.0,0.0,0.0,0.0,0.0,0.0,0.0,0.0,0.0,0.0,0.0,0.0,0.0,0.0,0.0,0.0,0.0,0.0,0.0,0.0,0.0,0.0,0.0,0.0,0.0,0.0,0.0,0.0,0.0,0.0,0.0,0.0,0.0,0.0,0.0,6.1217,6.4233,6.6643,6.7793,6.6576,6.4749,6.2584,6.0283,5.8176,5.6381,5.5545,0.0,0.0,0.0,0.0,0.0,0.0,0.0,0.0,0.0,0.0,0.0,0.0,0.0,0.0,0.0,0.0,0.0,0.0,0.0,0.0,0.0,0.0,0.0,0.0,0.0,0.0,0.0,0.0,0.0,0.0,0.0,0.0,0.0,0.0,0.0,0.0,0.0,0.0,0.0,0.0,0.0,0.0,0.0,0.0,0.0,0.0,0.0,0.0,0.0,0.0,0.0,0.0,0.0,6.0092,6.0969,6.2002,6.266,6.266,6.2002,5.9934,5.8655,5.794,5.7699,0.0,0.0,0.0,0.0,0.0,0.0,0.0,0.0,0.0,0.0,0.0,0.0,0.0,0.0,0.0,0.0,0.0,0.0,0.0,0.0,0.0,0.0,6.2742,6.4111,6.422,6.3381,6.0782,0.0,0.0,0.0,0.0,0.0,0.0,0.0,0.0,0.0,0.0,0.0,6.2703,6.5402,6.7455,6.8199,6.7387,6.6034,6.4072,6.1704,5.9507,5.7684,5.6808,5.6024,0.0,0.0,0.0,0.0,0.0,0.0,0.0,0.0,0.0,0.0,0.0,0.0,0.0,0.0,0.0,0.0,0.0,0.0,0.0,0.0,0.0,0.0,0.0,0.0,0.0,0.0,0.0,0.0,0.0,0.0,0.0,0.0,5.5026,5.2607,0.0,0.0,0.0,0.0,0.0,0.0,0.0,0.0,0.0,0.0,0.0,0.0,0.0,6.2145,6.3129,6.5202,6.5824,6.4994,6.6186,6.6247,6.5413,6.6071,6.6311,6.6192,6.6694,0.0,6.1236,6.0014,0.0,0.0,0.0,0.0,0.0,0.0,0.0,0.0,0.0,0.0,0.0,0.0,0.0,0.0,0.0,0.0,0.0,0.0,0.0,0.0,0.0,0.0,6.5353,6.623,6.6382,6.6289,6.5859,6.3378,6.1304,6.1304,5.8918,5.6977,0.0,0.0,0.0,0.0,0.0,0.0,6.2901,6.634,6.9079,6.9823,6.8064,6.644,6.5493,6.2787,6.1028,6.0797,5.9545,5.8378,5.7683,5.8348,0.0,0.0,0.0,0.0,0.0,0.0,0.0,0.0,0.0,0.0,0.0,0.0,0.0,0.0,0.0,0.0,0.0,0.0,0.0,0.0,0.0,0.0,0.0,0.0,0.0,0.0,0.0,0.0,0.0,5.6566,5.6164,5.3999,5.3877,5.3857,0.0,0.0,0.0,0.0,0.0,0.0,0.0,0.0,0.0,6.3342,6.5927,6.7575,6.8106,6.9878,7.044,6.9901,7.0859,7.0799,6.9901,7.056,7.1017,7.1169,7.116,7.0633,6.9483,6.5702,6.4828,6.5703,0.0,0.0,0.0,0.0,6.0974,6.0206,5.9787,6.0204,6.0818,6.065,0.0,0.0,0.0,0.0,0.0,0.0,0.0,6.6271,6.7079,6.7406,6.7658,6.7996,6.8064,6.8199,6.8605,6.6843,6.4957,6.4153,6.2399,6.0901,6.0173,5.9374,0.0,0.0,0.0,6.4488,6.6206,6.8345,6.9823,7.0161,6.8944,6.759,6.644,6.4343,6.3052,6.2687,6.1263,6.0308,6.0121,5.9124,5.7696,0.0,0.0,0.0,0.0,0.0,0.0,0.0,0.0,0.0,0.0,0.0,0.0,0.0,0.0,0.0,0.0,0.0,0.0,0.0,0.0,0.0,0.0,0.0,0.0,0.0,0.0,0.0,0.0,5.7784,5.7715,5.5597,5.6682,5.7231,0.0,0.0,0.0,0.0,0.0,0.0,6.4415,6.6925,6.8685,6.9688,7.1823,7.3193,7.3672,7.451,7.4929,7.4929,7.5407,7.5288,7.4689,7.5467,7.5866,7.5929,7.5925,7.6381,7.6696,7.1038,6.9174,6.9547,6.6744,6.5702,6.5701,6.3943,6.2683,6.1822,6.1463,6.216,6.313,6.2705,6.4143,6.5724,6.4028,0.0,0.0,0.0,0.0,6.901,7.0209,7.05,7.0567,7.077,7.0635,7.0703,7.1447,7.0567,6.9011,6.6981,6.5628,6.4503,6.3324,6.271,0.0,6.3482,6.4833,6.6508,6.8538,6.9755,7.05,7.05,6.9882,6.8965,6.7808,6.6456,6.531,6.4705,6.3452,6.2361,6.166,5.9911,5.8232,5.6608,0.0,0.0,0.0,0.0,0.0,0.0,0.0,0.0,0.0,0.0,0.0,0.0,0.0,0.0,0.0,0.0,0.0,0.0,0.0,0.0,0.0,0.0,0.0,0.0,0.0,0.0,0.0,0.0,0.0,5.6637,6.066,0.0,0.0,0.0,0.0,6.586,6.738,6.9679,7.3103,7.4612,7.6225,7.8148,7.834,7.9297,8.1212,8.0674,8.0375,8.0375,8.0434,8.0135,7.949,8.054,8.0693,8.0155,8.2005,8.205,8.0386,7.4653,7.3091,7.3986,7.0993,6.9166,6.7999,6.7135,6.5494,6.3917,6.4575,6.5322,6.6036,6.6511,6.7683,6.8721,6.7868,6.9107,0.0,0.0,7.2032,7.3363,7.4107,7.4356,7.4492,7.5168,7.483,7.4559,7.5236,7.483,7.3206,6.962,6.7117,6.5831,6.6424,0.0,6.5493,6.5587,6.7413,6.8673,6.8064,6.9891,7.1244,7.1244,7.077,7.0424,7.0286,6.9161,6.8067,6.7405,6.6602,6.4786,6.1696,6.1523,5.9623,5.5841,5.5646,0.0,0.0,0.0,0.0,0.0,0.0,0.0,0.0,0.0,0.0,0.0,0.0,0.0,0.0,0.0,0.0,0.0,0.0,0.0,0.0,0.0,0.0,0.0,0.0,0.0,0.0,0.0,0.0,5.9613,6.3923,0.0,6.5446,6.7171,6.9742,7.2906,7.482,7.6694,7.8878,8.0195,8.1452,8.2589,8.3008,8.3547,8.4265,8.4504,8.4384,8.3965,8.3965,8.3989,8.4165,8.4072,8.4672,8.5821,8.5964,8.5849,8.5237,8.1624,7.8482,7.5683,7.3665,7.1714,6.9933,6.9112,6.8179,6.7392,6.8725,6.9894,7.1091,7.2246,7.2256,7.1988,7.2124,7.3138,7.4221,7.4762,7.5303,7.5777,7.598,7.5709,7.5371,7.5642,7.5506,7.5506,7.6318,7.5845,7.51,7.4289,7.1921,6.9958,6.9755,6.8673,6.8199,6.9147,6.962,6.9891,7.0094,7.0838,7.1512,7.2228,7.1684,7.131,7.1482,7.0624,6.9593,6.8332,6.7528,6.6177,6.4064,6.1975,5.9779,5.727,5.5784,5.4683,0.0,0.0,0.0,0.0,0.0,0.0,0.0,0.0,0.0,0.0,0.0,0.0,0.0,0.0,0.0,0.0,0.0,0.0,0.0,0.0,0.0,0.0,0.0,0.0,0.0,6.1607,6.2973,6.2621,6.7779,7.1015,7.0192,7.3604,7.6827,7.9285,8.1153,8.2828,8.4384,8.5282,8.606,8.6718,8.6898,8.7018,8.7018,8.7257,8.7137,8.6718,8.7386,8.7722,8.7973,8.826,8.9106,9.02,8.8885,8.8171,8.7659,8.5215,8.1528,7.7384,7.591,7.4251,7.2644,7.1904,7.1089,7.0581,7.2513,7.3964,7.5147,7.6391,7.6048,7.51,7.5574,7.6251,7.6995,7.7807,7.8213,7.8416,7.8686,7.8348,7.7942,7.7942,7.7739,7.7807,7.8619,7.8145,7.7671,7.7942,7.5574,7.3274,7.2529,7.1582,7.1312,7.2259,7.1582,7.1176,7.1921,7.194,7.2056,7.2749,7.2713,7.2635,7.2478,7.18,7.0647,6.8867,6.7714,6.6085,6.3762,6.1593,5.9556,5.7754,5.6175,5.5369,5.5347,0.0,0.0,0.0,0.0,0.0,0.0,0.0,0.0,0.0,0.0,0.0,0.0,0.0,0.0,0.0,0.0,0.0,0.0,0.0,0.0,0.0,0.0,0.0,6.2503,6.5307,6.6826,6.5855,7.2409,7.5986,7.3325,7.9133,8.3547,8.4863,8.618,8.7736,8.9651,8.9771,9.007,9.0668,9.007,8.9771,8.9771,8.9112,8.8834,8.8915,9.0724,9.1312,9.0931,9.3133,9.3827,9.31,9.0796,8.9083,8.7511,8.4987,8.2098,7.9335,7.7844,7.6851,7.6163,7.5375,7.4226,7.3562,7.5974,7.7374,7.8205,7.8977,7.8754,7.8145,7.8145,7.8686,7.9431,8.0107,8.0851,8.1528,8.2272,8.2408,8.2408,8.2408,8.1866,8.1528,8.2272,8.1866,8.1122,8.0378,7.7874,7.5642,7.483,7.4695,7.4695,7.4627,7.3409,0.0,7.3341,7.3033,7.279,7.2832,7.386,7.4276,7.3444,7.2788,7.1304,6.892,6.7198,6.4582,6.0664,6.0445,5.9382,5.7022,5.7041,5.7072,5.7072,0.0,0.0,0.0,0.0,0.0,0.0,0.0,0.0,0.0,0.0,0.0,0.0,0.0,0.0,0.0,0.0,0.0,0.0,0.0,0.0,0.0,6.2069,6.4848,6.464,6.8007,7.1439,7.3843,7.8443,8.2047,8.3706,8.7073,8.9531,9.0369,9.1207,9.1746,9.1805,9.1805,9.1865,9.2045,9.1865,9.1805,9.1805,9.1147,9.1553,9.2968,9.1497,9.2738,9.6193,9.4864,9.5134,9.6482,9.3948,9.205,9.0348,8.6551,8.4661,8.3752,8.0172,7.8649,7.8464,7.8247,7.9127,8.0472,8.0587,8.1238,8.2004,8.2236,8.1799,8.1325,8.1799,8.2137,8.2475,8.3219,8.3152,8.2949,8.3152,8.2813,8.2408,8.2408,8.2272,8.2137,8.234,8.2272,8.1866,8.1122,8.031,7.9025,7.6657,7.6251,7.5912,7.4762,7.4289,7.368,7.28,7.2598,7.2585,7.2818,7.3751,7.4154,7.3449,7.3333,7.2064,6.9068,6.7359,6.5441,6.3192,6.1888,6.0669,5.9438,5.987,6.0344,0.0,0.0,0.0,0.0,0.0,0.0,0.0,0.0,0.0,0.0,0.0,0.0,0.0,0.0,0.0,0.0,0.0,0.0,0.0,0.0,0.0,0.0,6.6287,6.9901,7.1268,7.3878,7.6658,7.9265,8.3619,8.7215,8.9049,9.1713,9.3421,9.384,9.4199,9.4379,9.4259,9.402,9.384,9.384,9.384,9.3721,9.3421,9.363,9.4361,9.5512,9.5321,9.671,9.9296,9.8227,9.8321,9.9197,9.5474,9.3028,9.1396,8.7875,8.5986,8.4996,0.0,0.0,0.0,0.0,8.2293,8.4009,8.3021,8.3443,8.4437,8.4099,8.3693,8.3422,8.3828,8.3964,8.4031,8.4505,8.4505,8.437,8.4031,8.3896,8.3761,8.3422,8.3558,8.3761,8.3422,8.3625,8.349,8.2408,8.1934,0.0,7.8686,7.801,7.7401,7.6183,7.5506,7.4627,7.3477,7.3186,7.3008,7.2818,7.4117,7.4655,7.3987,7.3715,0.0,0.0,0.0,6.5514,6.3646,6.2864,0.0,0.0,0.0,6.4593,6.5356,6.724,0.0,0.0,6.5722,6.6605,0.0,0.0,0.0,0.0,0.0,0.0,0.0,0.0,0.0,0.0,0.0,0.0,0.0,0.0,0.0,0.0,7.0679,7.5308,7.9962,8.1626,8.2757,8.3614,8.8176,9.1511,9.1841,9.4429,9.6055,9.6055,9.6055,9.6234,9.6773,9.6234,0.0,0.0,0.0,9.6012,9.535,9.6716,9.744,9.7493,10.0252,10.1268,10.1097,10.1922,10.197,10.116,9.6238,9.3346,9.1991,8.925,8.7029,8.5174,8.3613,8.3553,8.4347,8.3827,8.4431,8.5498,8.4168,0.0,0.0,8.5114,8.4911,8.4911,8.4911,8.4911,8.4911,8.4911,8.5384,8.5723,8.5046,8.5317,8.5587,8.4911,8.5249,8.5587,8.4911,8.5317,8.5384,8.3896,8.3016,8.2069,8.0716,7.9701,7.8889,7.8077,7.6724,7.5574,7.483,7.4179,7.3591,7.2831,7.4458,0.0,7.4534,7.3944,7.2662,7.0418,6.8132,6.5844,6.3655,6.4237,6.5398,6.6975,6.8328,6.9455,7.027,7.1755,7.2417,7.2417,7.1254,7.1101,0.0,0.0,0.0,0.0,0.0,0.0,0.0,0.0,0.0,0.0,0.0,0.0,0.0,0.0,0.0,7.0104,7.6022,8.0938,8.375,8.9203,9.2355,9.101,9.2708,9.4995,9.7573,9.8357,9.8748,9.8748,9.8748,9.8568,9.8149,9.803,9.797,9.797,9.9731,10.0249,9.9632,10.1075,10.2077,10.242,10.09,0.0,10.3799,10.1917,10.1521,10.2102,9.8915,9.7108,9.6054,9.2826,9.116,9.0229,8.7621,8.6764,8.6934,8.7054,8.7216,8.7374,8.6499,8.6451,8.667,8.6535,8.6467,8.6467,8.6467,8.6467,0.0,8.6467,8.6602,8.667,8.6535,8.6129,8.5723,8.5587,8.5655,8.5723,8.5587,8.5655,8.552,8.4573,8.3828,8.3016,8.2137,8.0378,7.8889,7.8077,7.7266,7.6386,7.5574,7.4386,7.33,7.2552,7.3722,7.4253,7.3471,7.4142,7.3836,7.2109,7.0813,6.9595,6.8507,6.9709,7.0884,7.181,7.3155,7.4272,7.5129,7.721,7.8231,7.8154,7.5219,7.3912,0.0,0.0,0.0,0.0,0.0,0.0,0.0,0.0,0.0,0.0,0.0,6.1617,6.4379,0.0,7.1064,7.6031,8.0752,8.5479,8.9782,9.3942,9.6037,9.4479,9.6206,9.8239,9.9853,10.0004,10.0004,10.0004,10.0004,9.9825,9.9526,10.0579,10.123,10.123,10.3363,10.4437,10.3976,10.5541,10.6104,10.5951,10.5042,10.5048,10.575,10.4001,10.3062,10.2846,10.058,9.8969,9.7715,9.4994,9.4354,9.4771,9.2164,9.0634,9.0018,8.9701,8.9444,8.897,8.8226,8.7753,8.7414,8.7008,8.6941,8.6941,8.6941,8.6941,8.6941,8.6941,8.7144,8.7347,8.7008,8.6873,8.6805,8.6467,8.6602,8.6805,8.6399,8.6332,8.6129,8.5384,8.4302,8.3355,8.3016,8.1731,8.0513,7.9769,7.9025,7.8145,7.6995,7.5506,7.4521,7.434,7.463,7.4888,7.5048,7.528,7.5042,7.4255,7.3615,7.3342,7.3364,7.4757,7.6121,7.7358,7.8323,7.9374,8.0677,8.1398,8.1708,8.1631,7.9939,7.8707,0.0,0.0,0.0,0.0,0.0,0.0,0.0,5.7901,5.9056,6.227,6.3827,6.5855,7.0069,7.2953,7.6656,8.2639,8.6152,8.9903,9.529,9.7577,9.8273,9.738,9.943,10.1087,10.1517,10.1517,10.1759,10.2425,10.2364,10.2364,10.2364,10.4113,10.5032,10.4758,10.7038,10.8183,10.799,10.9586,10.9782,10.8788,10.938,10.8794,10.7306,10.6426,10.5411,10.4128,10.212,10.0443,9.8984,9.7128,9.711,9.8037,9.6074,9.4518,9.3165,9.1947,9.1068,9.0324,8.9715,8.9106,8.8564,8.7955,8.7753,8.7753,8.7617,8.7617,8.7685,8.7414,8.7888,8.8294,8.755,8.7685,8.782,8.7279,8.755,8.782,8.7279,8.7008,8.6738,8.6129,8.4776,8.3693,8.3693,8.3219,8.2543,8.1663,8.0851,8.0005,7.8895,7.738,7.6599,7.6972,7.6508,7.6622,7.7637,7.734,7.7174,7.7253,7.7379,7.7884,7.8739,7.9991,8.1306,8.2855,8.3329,8.417,8.5401,8.4709,8.417,8.3862,8.3862,8.3016,5.9899,5.9248,5.8459,5.825,5.8956,6.0814,0.0,6.5333,6.5785,6.8648,7.0104,7.2546,7.79,8.0384,8.3385,8.9004,9.3076,9.5978,9.7152,10.0419,10.2738,10.2619,10.239,10.2996,10.4993,10.5171,10.633,10.8972,10.9206,10.9206,10.9206,10.946,10.9226,10.8524,11.072,11.1635,11.0834,11.2957,11.3108,11.1016,11.116,11.035,10.8862,10.7373,10.6697,10.6426,10.4199,10.2445,10.1096,10.0826,9.9944,9.8916,9.7969,9.7157,9.6074,9.33,9.1812,9.1135,9.1068,9.1,9.0932,9.0797,9.0797,9.0662,9.0053,9.0324,9.0527,8.9173,8.9376,8.9782,8.9038,8.8429,8.7955,8.7888,8.7955,8.7955,8.7888,8.7347,8.6873,8.6805,8.552,8.4505,8.4505,8.4437,8.3896,8.2475,8.1663,8.1238,8.1444,8.0133,7.938,7.9805,7.9379,7.9444,8.0308,8.0963,8.157,8.2206,8.3411,8.449,8.5405,8.6104,8.6889,8.7889,8.7923,8.7709,8.7094,8.7017,8.6247,8.4786,8.4786,8.4247,6.1878,6.1059,6.0252,6.0597,6.2421,6.4781,6.694,6.7995,6.98,7.4504,7.6908,7.9643,8.4511,8.6745,8.9377,9.3594,9.5881,9.7906,10.0103,10.1799,10.3166,10.4157,10.3177,10.3724,10.6737,10.6978,10.8294,11.1417,11.1182,11.1054,11.1651,11.2049,11.2118,11.1727,11.3503,11.4303,11.3968,11.4851,11.468,11.3327,11.2921,11.1906,11.0418,10.8862,10.7509,10.6156,10.4396,10.3246,10.257,10.1758,10.1014,10.0269,9.9119,9.8172,9.7225,9.4721,9.33,9.2556,9.2083,9.1677,9.1271,9.1271,9.1271,9.1203,9.0932,9.1068,9.1135,9.0527,9.0807,9.126,9.0917,9.03,8.9751,8.9751,8.9172,8.8632,8.8632,8.7753,8.6941,8.6941,8.6227,8.5634,8.5634,8.6217,8.6498,8.592,8.4598,8.3928,8.4828,8.3604,8.2643,8.2467,8.2358,8.2712,8.346,8.4166,8.5181,8.6441,8.7406,8.8346,8.9209,8.9468,8.9787,9.0171,8.9171,8.8479,8.8171,8.7171,8.6247,8.5632,8.6094,8.5863,6.3638,6.31,6.3017,6.3809,6.6538,6.925,7.0104,7.2209,7.5216,7.9814,8.3046,8.6192,9.0464,9.2363,9.4442,9.7982,9.8794,9.9993,10.2355,10.338,10.3912,10.3842,10.3579,10.4736,10.7967,10.8607,11.0553,11.4345,11.4333,11.4333,11.4594,11.5203,11.5329,11.493,11.5164,11.5423,11.5221,11.5221,11.4751,11.3811,11.3923,11.3192,11.1906,11.0283,10.8253,10.602,10.4802,10.399,10.3517,10.2367,10.1758,10.1284,10.0202,9.9119,9.8104,9.6277,9.4992,9.4112,9.3571,9.2962,9.2489,9.2286,9.2353,9.2421,9.1812,9.188,9.2198,9.1648,9.1987,9.2357,9.2354,9.1898,9.1448,9.1091,9.0269,8.9538,8.9218,8.8218,8.74,8.74,8.7122,8.6878,8.6878,8.7631,8.8313,8.8623,8.7458,8.6808,8.7485,8.6916,8.624,8.5533,8.582,8.624,8.6748,8.7487,8.845,8.9914,9.0607,9.1325,9.2172,9.2018,9.1864,9.1864,9.0248,8.9248,8.9017,8.7325,8.6555,8.6863,8.7248,8.7171,6.581,6.6293,6.7368,6.884,7.1711,7.4623,7.623,7.9938,8.3433,8.4649,8.8026,9.1804,9.5788,9.6979,9.8621,10.2643,10.3261,10.3261,10.3416,10.5834,10.6109,10.2144,10.3972,10.6618,10.901,11.0542,11.3713,11.9569,12.0685,12.082,12.0077,12.0153,11.9409,11.7989,11.5817,11.4332,11.3752,11.3607,11.2948,11.1497,11.3737,11.4274,11.3463,11.1298,10.8997,10.6832,10.6088,10.4938,10.3585,10.3585,10.2705,10.1352,10.1284,10.0405,9.8984,9.8172,9.6954,9.5736,9.5736,9.5669,9.5533,9.4857,9.506,9.5263,9.303,9.3436,9.4272,9.2587,9.2545,9.3121,9.2938,9.2849,9.2515,9.1296,9.0936,9.064,8.9373,8.8905,8.8669,8.8669,8.8378,8.8133,8.8133,8.8178,8.8579,8.9801,8.9924,8.9636,8.8843,8.9632,9.0019,8.9187,8.9771,9.0184,9.0057,9.0885,9.1653,9.2367,9.3172,9.3941,9.4864,9.4095,9.3633,9.3633,9.2018,9.071,8.9863,8.8171,8.7786,8.8556,8.7786,8.7863,6.7789,6.9065,7.087,7.3256,7.608,7.905,8.2206,8.4574,8.7361,9.1274,9.2746,9.4257,9.7278,9.8391,9.9439,10.1228,10.2578,10.3921,10.5468,10.6871,10.7529,10.6655,10.7552,10.9125,11.1912,10.985,11.1289,11.8078,11.8863,11.9329,12.006,12.0204,12.0093,11.9552,11.7792,11.674,11.6615,11.6003,11.5466,11.5005,11.4795,11.4072,11.2786,11.1095,10.9335,10.7509,10.5817,10.4802,10.4261,10.3314,10.257,10.2096,10.1555,10.1081,10.0472,9.9728,9.8848,9.7766,9.6277,9.5804,9.5736,9.5533,9.5263,9.5103,9.5195,9.5203,9.5262,9.5591,9.6104,9.6446,9.5861,9.5351,9.476,9.3735,9.2849,9.2126,9.1681,9.0738,9.0163,9.0655,9.0498,9.0401,9.0975,9.1315,9.153,9.1943,9.201,9.1862,9.1641,9.1877,9.2127,9.2304,9.2123,9.2344,9.3294,9.364,9.4158,9.5,9.5249,9.5557,9.5865,9.448,9.371,9.371,9.1479,9.0171,8.994,8.8786,8.8402,8.8709,8.894,8.894,7.0873,7.2513,7.4171,7.7586,8.0673,8.3603,8.6301,8.8894,9.1603,9.4639,9.5273,9.5683,9.6924,9.7491,9.803,9.8927,10.1396,10.3944,10.618,10.8144,10.9374,10.9303,10.9715,11.0887,11.3098,10.9893,11.0799,11.8092,11.8498,11.9144,12.0806,12.1021,12.0973,12.0702,11.8734,11.7545,11.7277,11.6664,11.6573,11.6913,11.5695,11.4274,11.2786,11.1365,10.9877,10.8321,10.6291,10.5276,10.5005,10.4126,10.3382,10.284,10.2367,10.1893,10.1284,10.0811,10.0134,9.9254,9.7563,9.6819,9.6548,9.6277,9.6427,9.6735,9.7016,9.7121,9.7254,9.7985,9.8247,9.8178,9.7555,9.7028,9.6364,9.5072,9.4203,9.3455,9.2991,9.2276,9.1809,9.238,9.2364,9.2566,9.3074,9.3563,9.4017,9.423,9.4549,9.4458,9.3859,9.4225,9.4756,9.5219,9.5009,9.5305,9.6308,9.6095,9.6095,9.6711,9.648,9.6326,9.6326,9.4634,9.371,9.371,9.1171,9.0094,9.0402,8.9248,8.9017,8.9633,8.9787,8.9787,7.4938,7.6523,7.7687,8.1866,8.5465,8.8034,8.8668,9.2823,9.6115,9.4883,9.5513,9.5875,9.4499,9.4439,9.4977,9.6294,10.0071,10.3607,10.6004,10.9933,11.1868,11.0051,11.1083,11.2334,11.2995,11.1014,11.2606,11.9933,11.9716,12.0112,12.2141,12.2519,12.2258,12.1514,11.8557,11.6655,11.6075,11.5929,11.6149,11.6913,11.6169,11.5019,11.353,11.2109,11.0553,10.9065,10.7509,10.6426,10.5817,10.5682,10.487,10.3585,10.3585,10.2705,10.1551,10.1547,10.1073,10.026,9.9639,9.8831,9.8024,9.7469,9.8612,9.9902,9.8611,9.8972,9.9953,9.9693,9.9117,9.847,9.8098,9.8007,9.7478,9.5471,9.5,9.4554,9.3434,9.3425,9.3699,9.3771,9.416,9.4484,9.4411,9.5124,9.5894,9.6517,9.7389,9.7257,9.5653,9.678,9.7776,9.7776,9.8337,9.8788,9.8788,9.8019,9.748,9.748,9.6711,9.6326,9.6326,9.4634,9.371,9.371,9.1325,9.0402,9.1171,8.9633,8.9633,9.1171,9.0325,9.0402,7.6699,8.0667,8.448,8.6516,8.9451,9.2512,9.4594,9.5395,9.5629,9.5372,9.3648,9.1626,8.9771,9.1865,9.4259,9.5636,10.0761,10.6324,11.0822,11.3231,11.4884,11.5772,11.7219,11.7725,11.685,11.5203,11.6301,12.1496,12.0102,11.8976,11.883,12.2197,12.3814,12.307,12.1177,12.0136,12.0002,11.8321,11.727,11.6913,11.6169,11.5019,11.353,11.2109,11.0553,10.9065,10.6967,10.602,10.5682,10.4599,10.3923,10.3517,10.2976,10.257,10.2292,10.3413,10.3281,10.2771,10.3656,10.2408,10.0493,10.1408,10.1308,10.1011,10.1604,10.1569,10.1514,10.1806,10.1706,10.1309,9.9983,9.9255,9.8662,9.8091,9.71,9.6289,9.6559,9.5805,9.5199,9.5784,9.6437,9.6745,9.6077,9.7629,9.8654,9.754,9.9096,9.9556,9.7358,9.7949,9.8516,9.8516,9.8711,9.8788,9.8788,9.8019,9.748,9.748,9.6711,9.6326,9.6326,9.5249,9.4326,9.371,9.2479,9.1633,9.1171,9.0787,9.0787,9.1171,9.0941,9.1018,8.098,8.4742,8.8085,9.035,9.3046,9.5177,9.5232,9.5099,9.4422,9.2209,8.9711,8.7437,8.5462,8.8574,9.1985,9.3601,10.025,10.6662,11.1211,11.4471,11.7061,11.9128,12.084,12.1582,12.104,11.9903,12.0155,12.2253,12.0266,11.9441,12.0552,12.2869,12.4017,12.3611,12.2529,12.1717,12.1379,11.9214,11.7928,11.7387,11.6304,11.5222,11.4004,11.2583,11.1649,11.1033,10.8843,10.8199,10.8687,10.7581,10.6751,10.5999,10.5584,10.4963,10.453,10.5274,10.5339,10.5215,10.6618,10.5783,10.3959,10.3588,10.299,10.2592,10.3387,10.3557,10.3365,10.3714,10.3513,10.2925,10.1164,10.0503,9.9989,9.9255,9.8447,9.7787,9.786,9.7493,9.7314,9.8097,9.8873,9.9368,9.9313,10.0424,10.1106,10.0464,10.1608,10.1997,10.0629,10.0072,9.9865,9.9865,9.9865,9.9865,9.9865,9.8788,9.8096,9.8096,9.6942,9.6326,9.6326,9.548,9.4788,9.4249,9.348,9.2787,9.2326,9.1941,9.1941,9.2326,9.1941,9.1941,8.6201,8.8771,9.0558,9.3912,9.6211,9.6844,9.3626,9.3394,9.2464,8.7257,8.5043,8.3487,8.1572,8.5103,8.9052,9.1386,9.8826,10.5754,11.0225,11.4925,11.8862,12.1507,12.3164,12.4423,12.4964,12.4423,12.3767,12.3165,12.1294,12.1353,12.422,12.4199,12.3882,12.3611,12.2867,12.2123,12.1379,11.9214,11.8131,11.8131,11.6507,11.5425,11.468,11.3408,11.3085,11.3579,11.1481,11.1418,11.2637,11.166,11.0527,10.9111,10.9111,10.8119,10.6774,10.699,10.7115,10.7258,10.8791,10.8799,10.7714,10.5067,10.4535,10.4676,10.4676,10.4968,10.5201,10.5128,10.4541,10.3586,10.1971,10.1457,10.1017,9.9695,9.9255,9.8961,9.8374,9.8784,9.9536,10.0473,10.1283,10.2052,10.2918,10.322,10.3458,10.4036,10.4174,10.4174,10.3866,10.2635,10.1635,10.1481,10.1481,10.1404,10.1327,9.9788,9.8788,9.8788,9.725,9.6326,9.6326,9.5557,9.5095,9.5018,9.4249,9.3787,9.371,9.2864,9.2941,9.371,9.2864,9.2941,8.8302,9.2754,9.6694,9.7418,9.8365,9.8409,9.5674,9.2746,8.9172,8.4444,8.1991,8.0195,7.8759,8.2709,8.7556,9.1746,9.7847,10.5194,11.428,11.7316,12.0392,12.5419,12.6754,12.713,12.6588,12.6521,12.6564,12.7118,12.6242,12.4787,12.2768,12.5084,12.5506,12.3679,12.2867,12.2123,12.1379,11.9214,11.8131,11.8131,11.6507,11.5425,11.4685,11.4453,11.4153,11.3574,11.27,11.235,11.2567,11.1221,11.0016,10.9111,10.8473,10.7624,10.6936,10.8164,10.8569,10.8768,11.0279,11.0323,10.9473,10.9001,10.7995,10.6956,10.6956,10.6615,10.6009,10.5275,10.4541,10.366,10.2705,10.1531,10.0576,10.1017,10.0062,9.9255,9.9769,10.0019,10.0507,10.2098,10.3046,10.3782,10.4595,10.5871,10.6378,10.5097,10.5482,10.5482,10.4097,10.3635,10.3174,10.2481,10.2404,10.2097,10.1404,9.9788,9.8788,9.8788,9.725,9.6326,9.6326,9.6172,9.5711,9.5018,9.4864,9.4403,9.371,9.2864,9.2941,9.371,9.2864,9.2941,9.3644,9.6604,9.9137,10.0562,10.021,9.8538,9.4607,9.1293,8.7279,8.1572,7.9999,7.8989,7.7104,8.0853,8.5791,9.0685,9.5939,10.2775,11.2791,11.6475,12.006,12.5098,12.783,12.9092,12.8753,12.8686,12.8889,12.9227,12.8618,12.7253,12.5396,12.6027,12.5573,12.3679,12.2867,12.2123,12.1379,11.9214,11.8131,11.8131,11.6507,11.6066,11.6578,11.6228,11.6557,11.7301,11.5834,11.5261,11.5517,11.4051,11.2555,11.1471,11.111,11.0171,10.9208,10.9905,11.014,11.0233,11.1043,11.0928,11.0634,11.0634,10.9533,10.8064,10.7697,10.7257,10.689,10.6009,10.5201,10.4394,10.4027,10.3072,10.2191,10.2118,10.1229,10.0574,10.1388,10.2183,10.3214,10.4419,10.5663,10.6706,10.7089,10.7774,10.8021,10.7175,10.7405,10.7328,10.602,10.5867,10.502,10.2789,10.2635,10.2174,10.1404,9.9788,9.8788,9.8788,9.725,9.6326,9.6326,9.6326,9.6095,9.5711,9.5711,9.548,9.5018,9.4172,9.4249,9.5018,9.4172,9.4249,9.8231,9.9797,10.068,10.2941,10.1142,9.7635,9.3133,8.9375,8.5181,7.9445,7.8323,7.7968,7.6645,7.9574,8.4042,8.9476,9.3981,10.0382,11.0265,11.5245,11.9541,12.4424,12.829,13.0512,13.0309,13.0309,13.0309,13.0309,12.9498,12.8618,12.7941,12.6521,12.5032,12.3611,12.2867,12.2123,12.1379,11.9214,11.8131,11.8131,11.6945,11.6986,11.8291,11.8319,11.9236,12.0681,11.869,11.7957,11.8269,11.6727,11.5112,11.357,11.357,11.2616,11.1221,11.1368,11.1295,11.1221,11.1441,11.1295,11.1221,11.1221,11.0193,10.8872,10.8285,10.7887,10.752,10.6816,10.5935,10.5128,10.5128,10.4541,10.3701,10.3135,10.2574,10.2497,10.3298,10.4693,10.6019,10.6985,10.8331,10.9175,10.9406,10.9483,10.9406,10.9175,10.9175,10.8867,10.8098,10.779,10.6636,10.3712,10.3097,10.2481,10.1404,9.9942,9.9019,9.8788,9.7403,9.648,9.6326,9.6326,9.6326,9.6326,9.6326,9.6326,9.6326,9.5403,9.548,9.6249,9.5403,9.548,9.8726,10.1128,10.3131,10.3321,10.0124,9.6038,9.2827,8.7112,8.1589,7.8873,7.6648,7.5851,7.7754,7.9434,8.2579,8.8753,9.2906,9.9089,10.9788,11.5066,12.0067,12.6107,12.9402,13.0986,13.0377,13.0309,13.0309,13.0309,12.9024,12.7874,12.713,12.5641,12.4423,12.3611,12.2867,12.2123,12.1379,11.9214,11.8131,11.8063,11.8091,11.8226,11.8425,12.0618,12.1271,12.0736,11.9788,11.8982,11.8269,11.6727,11.5112,11.357,11.357,11.2616,11.1295,11.2029,11.1808,11.1295,11.2029,11.1808,11.1221,11.1221,11.0634,10.99,10.9753,10.8842,10.7593,10.7477,10.6302,10.5128,10.5128,10.4541,10.3904,10.3799,10.4305,10.509,10.5931,10.678,10.7902,10.9464,11.0,11.0329,11.1098,11.1329,11.1021,11.0175,11.0098,10.979,10.8867,10.8175,10.7328,10.6174,10.4713,10.3097,10.1404,10.0481,9.9635,9.8865,9.7942,9.7096,9.6326,9.6326,9.6326,9.6326,9.6326,9.6326,9.6326,9.5403,9.548,9.6249,9.5403,9.548,10.0824,10.2892,10.3895,10.3535,9.9346,9.485,9.2875,8.6999,8.1555,7.957,7.8438,7.7801,7.7727,7.9,8.1729,8.7047,8.9123,9.3629,10.3923,10.8012,11.32,12.1911,12.5573,12.8483,13.1324,13.1595,13.1054,12.9701,12.828,12.7618,12.7902,12.6347,12.4694,12.3002,12.219,12.1311,12.0093,11.9303,11.8915,11.8915,11.9509,12.036,12.127,12.2284,12.2833,12.3021,12.1745,12.0398,11.9003,11.7388,11.5479,11.357,11.4084,11.3277,11.2029,11.2763,11.2616,11.2029,11.2322,11.2176,11.1808,11.1368,11.1295,11.1295,11.0267,10.9606,10.8872,10.8505,10.7906,10.754,10.7985,10.7479,10.6829,10.6273,10.6481,10.6843,10.7111,10.8178,10.9374,11.0132,11.0637,11.1098,11.1406,11.1483,11.1406,11.1021,11.1021,11.0714,10.979,10.8867,10.7867,10.6482,10.4866,10.3405,10.2174,10.0866,9.9712,9.8865,9.7942,9.7173,9.6326,9.6326,9.6326,9.6326,9.6326,9.6326,9.6326,9.5942,9.5942,9.6326,9.5942,9.5942,10.0842,10.35,10.4966,10.3966,9.9814,9.5546,9.3687,8.7734,8.2273,8.0813,8.0107,7.9559,7.8877,7.9742,8.1842,8.6056,8.7345,9.0834,9.9805,10.3314,10.8321,11.7251,12.0702,12.4491,12.9701,13.1899,13.2342,13.0646,12.9351,12.8855,12.9269,12.7687,12.5912,12.4133,12.3304,12.2138,12.07,12.0298,12.0067,12.0203,12.1086,12.211,12.3208,12.3648,12.4105,12.4362,12.282,12.1279,11.9811,11.7975,11.6066,11.4305,11.4672,11.4011,11.2881,11.3971,11.388,11.3217,11.3217,11.3217,11.3026,11.1941,11.2249,11.2995,11.1815,11.1004,11.0266,10.9676,10.9594,10.9708,11.0007,10.9688,10.9068,10.8311,10.8273,10.8383,10.8383,10.9812,11.0868,11.0868,11.1637,11.2175,11.2175,11.2022,11.1868,11.1868,11.1714,11.1175,11.0329,10.9406,10.8329,10.6636,10.4866,10.3482,10.2712,10.1096,9.9712,9.8865,9.7942,9.7173,9.6326,9.6326,9.6326,9.6326,9.6326,9.6326,9.6326,9.6326,9.6326,9.6326,9.6326,9.6326,9.767,10.2603,10.6393,10.5005,10.1989,9.8576,9.5382,8.9056,8.3511,8.2353,8.0885,8.0288,8.1886,8.2173,8.3215,8.6396,8.8711,9.2556,9.9254,10.3449,10.7712,11.2989,11.5695,11.9078,12.4288,13.0518,13.4008,13.3477,13.2763,13.1984,13.1206,12.9583,12.838,12.7738,12.6889,12.5757,12.42,12.2643,12.1935,12.1935,12.283,12.3208,12.3263,12.4928,12.5243,12.4362,12.282,12.1572,12.0691,11.8195,11.6727,11.592,11.5112,11.4305,11.3823,11.553,11.5712,11.4967,11.4967,11.4967,11.4734,11.3013,11.3621,11.4967,11.4967,11.3179,11.1316,11.1316,11.1306,11.1189,11.0434,11.0186,10.9986,10.912,10.9495,11.0175,11.0175,11.1483,11.2714,11.2714,11.3407,11.4022,11.4022,11.333,11.2714,11.2714,11.2022,11.1175,11.0329,10.9406,10.8329,10.6636,10.4866,10.3482,10.2712,10.1096,9.9712,9.8865,9.7942,9.7173,9.6326,9.6326,9.6326,9.6326,9.6326,9.6326,9.6326,9.6326,9.6326,9.6326,9.6326,9.6326,9.2205,9.5424,9.7414,9.7184,9.4186,9.113,9.0359,8.5367,8.1196,8.2017,8.1369,8.1,8.1984,8.3143,8.4842,8.79,8.9444,9.1677,9.5872,10.1995,10.8374,11.4785,12.4393,13.1162,13.2909,13.3903,13.419,13.3473,13.2267,13.1802,13.2239,13.1225,12.9726,12.7803,12.5962,12.4546,12.3484,12.3019,12.2759,12.2759,12.4244,12.4928,12.4928,12.5533,12.5317,12.4436,12.3408,12.216,12.0765,11.8783,11.7168,11.6011,11.6369,11.6115,11.5571,11.7306,11.7525,11.6773,11.6773,11.6773,11.6586,11.5544,11.5918,11.6697,11.6096,11.4968,11.3904,11.3972,11.4041,11.3879,11.3711,11.3198,11.2598,11.1654,11.1736,11.1868,11.1868,11.2791,11.3637,11.3637,11.3791,11.3791,11.3176,11.2868,11.2483,11.2022,11.1714,11.1175,11.0329,10.9021,10.7636,10.6482,10.4405,10.2712,10.1789,10.0712,9.9481,9.8019,9.8173,9.7788,9.6326,9.7403,9.748,9.6326,9.6865,9.7096,9.7096,9.6557,9.6334,9.6475,9.7109,9.7032,8.6608,9.0558,9.3234,9.3077,9.1426,8.9572,8.8725,8.4807,8.1755,8.2521,8.2344,8.2211,8.301,8.3926,8.5452,8.7888,8.9334,9.1562,9.5856,10.2179,10.9295,11.6929,12.7344,13.3951,13.4111,13.4825,13.5021,13.4723,13.3493,13.2915,13.3196,13.2527,13.1196,12.9314,12.7242,12.5808,12.5148,12.4834,12.4665,12.4665,12.5808,12.6101,12.5684,12.5684,12.5317,12.4509,12.3628,12.238,0.0,11.9809,11.8514,11.7095,11.7999,11.7866,11.7418,11.8833,11.9013,11.8482,11.8179,11.833,11.8417,11.7178,11.7615,11.847,11.8022,11.6988,11.6091,11.6231,11.6187,11.5983,11.5471,11.4714,11.3758,11.3119,11.2785,11.268,11.2907,11.371,11.4484,11.4484,11.4714,11.4714,11.3791,11.3407,11.2868,11.2099,11.1406,11.0714,10.979,10.8175,10.679,10.5636,10.3712,10.2097,10.0866,10.0404,9.9481,9.8096,9.8481,9.8327,9.7326,9.825,9.8327,9.725,9.7711,9.8019,9.8019,9.7585,9.743,9.7449,9.808,9.7833,0.0,8.7249,9.2365,9.1659,9.2178,9.2083,8.9241,8.6399,0.0,8.3558,8.3422,8.3693,8.4505,8.4694,8.5342,8.7037,8.9069,9.2547,9.8458,10.4377,11.1438,12.0012,12.6231,12.9931,12.998,13.3697,13.6201,13.6513,13.5668,13.4934,13.4126,13.3351,13.2521,13.1713,13.0073,12.9122,12.8484,12.7721,12.7274,12.7187,12.7187,12.6708,12.5684,12.561,12.517,12.4362,12.3628,12.2429,12.1003,12.1099,12.0224,11.897,11.9887,11.9713,11.906,11.9999,12.0293,12.0216,11.9405,11.9711,12.0025,11.845,11.9008,12.0281,12.0396,11.9227,11.794,11.7784,11.7792,11.7407,11.5792,11.4714,11.4018,11.3511,11.3121,11.3001,11.333,11.453,11.5396,11.5396,11.599,11.6176,11.5407,11.4561,11.3714,11.2791,11.1329,10.9867,10.8867,10.7328,10.5713,10.402,10.302,10.1866,10.0173,10.0096,9.9712,9.8865,9.8865,9.8865,9.8865,9.8942,9.8942,9.8865,9.8903,9.8903,9.8788,9.9212,9.9212,9.8845,9.9135,9.864,7.573,0.0,8.3277,8.4428,8.4854,8.4843,0.0,8.3016,8.2205,8.2611,8.2678,8.3084,8.437,8.5344,8.7021,9.0328,9.3046,9.6202,10.0008,11.1071,12.1622,12.8988,13.3927,13.6009,13.4207,13.503,13.558,13.5687,13.4273,13.3392,13.3172,13.2545,13.1818,13.1048,13.0233,12.9614,12.9303,12.8706,12.7956,12.7187,12.7187,12.6708,12.5684,12.5096,12.4289,12.3481,12.2674,12.2168,12.1885,12.1291,12.1307,12.1581,12.1266,12.1004,12.0867,12.1168,12.1269,12.1192,12.1115,12.1115,12.1167,12.0786,12.0914,12.1293,12.1284,12.0468,11.9373,11.8208,11.7792,11.7638,11.6484,11.5561,11.502,11.5076,11.5093,11.5067,11.5393,11.6112,11.657,11.657,11.6476,11.6176,11.5407,11.4561,11.3714,11.2791,11.1329,10.9713,10.8175,10.6482,10.4789,10.3097,10.2097,10.1173,10.0173,10.0096,9.9712,9.8865,9.9404,9.9788,9.9788,10.0404,10.0404,9.9788,9.9917,9.9625,9.8788,10.0573,10.0611,9.9151,9.9798,9.9333,7.5193,7.7402,7.9705,8.0988,8.2138,8.2813,8.2475,8.1799,8.1393,8.1799,8.2137,8.2953,8.4592,8.6382,8.8604,9.199,9.5471,10.0303,10.7399,11.6681,12.5262,13.2039,13.5521,13.6842,13.5521,13.5007,13.4713,13.4273,13.2731,13.2037,13.2496,13.1838,13.1315,13.0864,13.0664,13.0431,12.9869,12.9598,12.8926,12.7875,12.7541,12.6578,12.5146,12.4796,12.4192,12.3425,12.3816,12.3597,12.3006,12.339,12.3369,12.3228,12.2803,12.2495,12.2062,12.1674,12.1562,12.1562,12.1562,12.1562,12.1485,12.11,12.1331,12.1562,12.1562,12.1023,12.0023,11.8792,11.8407,11.81,11.6792,11.5986,11.561,11.5832,11.5933,11.5988,11.6085,11.6632,11.6968,11.6827,11.6624,11.6099,11.4868,11.433,11.3637,11.2329,11.0714,10.9329,10.8406,10.6097,10.4174,10.3328,10.2404,10.1635,10.0712,10.1019,10.0712,9.9481,10.0173,10.0712,10.0712,10.1481,10.1866,10.1789,10.1588,10.1125,10.0481,10.1497,10.127,10.0165,10.0682,9.997,7.6927,7.8299,7.9583,7.9804,8.1511,8.2949,8.2205,8.1596,8.1173,8.1495,8.2174,8.3448,8.5888,8.8251,9.0814,9.3841,9.8568,10.5707,11.6881,12.1793,12.6418,13.2217,13.442,13.5301,13.4934,13.4126,13.3319,13.2584,13.125,13.0698,13.1595,13.118,13.0998,13.108,13.1278,13.1117,13.0384,13.0384,12.9865,12.8887,12.8243,12.6872,12.4918,12.5107,12.4684,12.3979,12.5497,12.5528,12.4492,12.5875,12.5712,12.4618,12.4187,12.3716,12.3024,12.2024,12.1562,12.1562,12.1562,12.1562,12.1485,12.0716,12.1016,12.16,12.1531,12.0862,12.0214,11.92,11.8869,11.8507,11.6979,11.619,11.6004,11.6485,11.6463,11.6374,11.6484,11.6815,11.6916,11.6568,11.6474,11.6022,11.4484,11.4099,11.3483,11.1945,11.0098,10.8867,10.8713,10.602,10.402,10.3866,10.3329,10.2482,10.1789,10.2405,10.2193,10.0808,10.1173,10.1635,10.1712,10.2481,10.3328,10.3866,10.3098,10.2636,10.2635,10.2041,10.1561,10.1327,10.1512,10.0568,7.8213,8.0293,8.1488,7.9684,8.0428,8.146,8.0716,8.0445,8.0866,8.2473,8.3403,8.5359,9.0047,9.2594,9.543,9.9857,10.6698,11.4534,12.3188,12.6711,12.9501,13.2511,13.442,13.4567,13.2511,13.1483,13.0969,13.0896,13.0203,12.9793,12.9973,13.0778,13.1254,13.142,13.1458,13.164,13.1486,13.1486,13.095,13.0006,12.9778,12.875,12.7035,12.7003,12.6552,12.5799,12.6061,12.66,12.7068,12.6735,12.6797,12.7106,12.4899,12.4024,12.3716,12.2177,12.1562,12.1562,12.1562,12.1562,12.1562,12.1408,12.1665,12.1811,12.0798,12.0606,12.0323,11.8465,11.8023,11.7826,11.7134,11.6908,11.7088,11.8364,11.8002,11.7506,11.8495,11.7773,11.702,11.6874,11.667,11.6176,11.533,11.4484,11.3714,11.2714,11.0483,10.8713,10.8021,10.6097,10.4713,10.402,10.4027,10.3863,10.3521,10.3795,10.3786,10.329,10.2712,10.2712,10.3482,10.4328,10.4482,10.3866,10.3272,10.2808,10.2635,10.2041,10.1561,10.1327,10.1327,10.0403,7.6995,7.9228,8.1054,8.0445,8.2002,8.3564,8.3102,8.2634,8.2887,8.4947,8.6298,8.8471,9.2791,9.6831,10.1918,10.9603,11.5008,11.9957,12.4949,12.6711,12.84,13.1336,13.2291,13.2511,13.1777,13.0969,13.0543,13.072,12.9581,12.9421,13.0475,13.111,13.1453,13.1591,13.2101,13.2179,13.1718,13.1718,13.1222,13.0198,12.9817,12.8754,12.7494,12.7578,12.7404,12.7134,12.8076,12.8776,12.909,12.8323,12.7898,12.764,12.5101,12.3793,12.3332,12.21,12.1562,12.1485,12.11,12.1326,12.181,12.1269,12.1357,12.1479,12.0806,12.0033,11.9178,11.8101,11.7792,11.7694,11.707,11.7037,11.7198,11.8004,11.7771,11.7508,11.7886,11.7472,11.6891,11.6769,11.6603,11.6176,11.5407,11.5022,11.4176,11.2868,11.1329,11.0021,10.9175,10.7098,10.5659,10.5476,10.5013,10.4627,10.4199,10.4473,10.4519,10.3886,10.3482,10.3712,10.4482,10.4866,10.5097,10.5174,10.4483,10.3866,10.3328,10.2632,10.1938,10.1327,10.1327,10.0712,7.6589,7.8933,8.1356,8.2309,8.4147,8.5838,8.6543,8.6198,8.6534,8.929,9.0838,9.2835,9.6455,10.204,10.8783,11.7541,12.1499,12.4289,12.6785,12.7299,12.8326,13.0823,13.0676,13.0676,13.141,13.0616,13.0057,13.0181,12.9379,12.9568,13.1322,13.153,13.1687,13.2025,13.2487,13.241,13.1718,13.1718,13.1303,13.0475,12.9893,12.913,12.8171,12.8475,12.8517,12.8394,13.0101,13.0718,13.041,12.9563,12.864,12.7409,12.5024,12.3485,12.2485,12.1793,12.1562,12.1508,12.0875,12.1289,12.2011,12.1415,12.1193,12.1118,12.0579,11.936,11.8094,11.7562,11.7484,11.7386,11.707,11.7037,11.7073,11.7605,11.752,11.7372,11.7414,11.7197,11.6933,11.6707,11.6594,11.6176,11.5407,11.5099,11.4484,11.2868,11.1791,11.1021,11.0329,10.8329,10.7104,10.7315,10.6599,10.5904,10.548,10.579,10.5713,10.5097,10.4866,10.5174,10.602,10.602,10.6174,10.6713,10.579,10.502,10.4174,10.3097,10.2327,10.1635,10.1404,10.0923,7.9092,8.187,8.4239,8.5644,8.5644,8.6296,9.0013,9.063,9.1843,9.6731,9.7889,9.9035,10.2563,10.9152,11.5461,12.0031,12.4582,12.8473,13.0896,13.1924,13.2511,13.2731,13.141,13.0529,13.0602,12.941,12.8618,12.8558,12.9455,13.0528,13.1418,13.1599,13.2128,13.2872,13.2179,13.1795,13.1718,13.1718,13.1692,13.1564,13.1487,13.1077,13.0256,13.1103,13.1026,13.0257,13.1231,13.1179,13.041,12.9563,12.8179,12.6563,12.4793,12.3101,12.1716,12.1562,12.1562,12.1577,12.1928,12.1959,12.2063,12.2285,12.1866,12.113,11.9897,11.899,11.813,11.689,11.6561,11.6693,11.6916,11.7037,11.7306,11.8383,11.7987,11.7586,11.8431,11.7705,11.702,11.7003,11.6691,11.6176,11.5407,11.4561,11.3791,11.2791,11.1329,11.0329,11.0175,10.9329,10.8734,10.8698,10.8928,10.9011,10.8888,10.8704,10.8636,10.8482,10.779,10.779,10.8636,10.8636,10.8329,10.7636,10.679,10.5867,10.502,10.3405,10.2635,10.2481,10.1712,10.1031,7.8483,8.1488,8.45,8.5444,8.7796,9.0606,9.3573,9.4983,9.6803,10.1004,10.3917,10.6605,10.9416,11.4672,11.959,12.26,12.7592,13.141,13.2291,13.2731,13.2511,13.1483,13.0382,12.9807,12.9902,12.8958,12.8865,13.0172,13.0189,13.0567,13.1599,13.2204,13.241,13.2179,13.241,13.2179,13.1718,13.1718,13.1718,13.1718,13.1718,13.1487,13.1333,13.1564,13.1487,13.1333,13.1564,13.1179,13.041,12.9563,12.7871,12.5717,12.3408,12.1793,12.0869,12.1408,12.1425,12.1193,12.1923,12.2344,12.26,12.199,12.1306,12.0505,11.9198,11.8215,11.7415,11.6736,11.6484,11.6616,11.6916,11.7037,11.7228,11.7683,11.7597,11.752,11.7831,11.7581,11.719,11.7009,11.6511,11.5901,11.5396,11.4561,11.3868,11.3637,11.3022,11.256,11.256,11.1406,11.0608,11.0687,10.9874,10.9161,10.9108,10.899,10.9098,10.9713,10.8867,10.8636,10.8867,10.8867,10.8482,10.7713,10.7405,10.6482,10.5097,10.4482,10.3635,10.2558,10.2413,10.1935,7.9166,8.2095,8.5355,8.653,9.0359,9.4704,9.816,9.9977,10.2302,10.6835,10.9312,11.1588,11.4231,11.7461,12.0765,12.3995,12.8767,13.2217,13.2511,13.2291,13.163,13.0309,12.9489,12.9119,12.9213,12.9099,12.9494,13.0909,13.0797,13.1131,13.2077,13.241,13.241,13.2102,13.241,13.2256,13.1718,13.1718,13.1718,13.1718,13.1718,13.1718,13.1718,13.1718,13.1718,13.1718,13.141,13.0871,13.0025,12.8871,12.6871,12.4409,12.21,12.1023,12.0816,12.1172,12.1309,12.1331,12.2068,12.2522,12.2521,12.1683,12.0805,11.9764,11.8774,11.7787,11.7105,11.6784,11.6769,11.6784,11.7089,11.7058,11.7041,11.7231,11.7364,11.7576,11.7576,11.7506,11.7294,11.721,11.6323,11.5476,11.5319,11.4561,11.4022,11.4022,11.4022,11.4022,11.4022,11.3022,11.2323,11.2191,11.0914,10.9859,10.9658,10.9713,11.0028,11.0728,11.0125,10.9713,10.9713,10.9713,10.9175,10.8098,10.8098,10.7175,10.5482,10.5174,10.4581,10.3498,10.3436,10.299,8.1632,8.4273,8.7197,8.9581,9.3498,9.8227,10.388,10.5789,10.8285,11.4672,11.4158,11.3497,11.658,11.7314,11.893,12.3701,12.7886,13.0823,13.1557,13.0969,13.0235,12.9354,12.8791,12.8409,12.8379,12.9489,13.0198,13.0198,13.109,13.2102,13.2872,13.2179,13.2102,13.3026,13.2179,13.1718,13.1718,13.1718,13.1718,13.1718,13.1718,13.1718,13.1718,13.1718,13.1718,13.1718,13.0794,13.0025,12.9102,12.7409,12.5178,12.2716,12.1023,12.0793,12.15,12.0961,12.1374,12.2207,12.2792,12.2383,12.1681,12.1686,12.0594,11.9081,11.8783,11.8064,11.7364,11.7364,11.7364,11.7364,11.7364,11.719,11.6976,11.6976,11.7464,11.794,11.794,11.7629,11.7364,11.7364,11.6289,11.5275,11.533,11.4561,11.4022,11.4022,11.4022,11.4022,11.4022,11.4022,11.3714,11.2791,11.2022,11.1483,11.1483,11.1483,11.1557,11.1908,11.1635,11.1483,11.1483,11.1483,11.0714,10.8867,10.8867,10.8098,10.6405,10.5482,10.5214,10.5511,10.4673,10.4105,8.4036,8.6501,8.9654,9.2079,9.5976,10.1017,10.7844,10.9606,11.1882,11.959,11.9664,11.8709,11.959,12.1205,12.26,12.3481,12.7519,13.0382,13.0088,13.0309,13.0004,12.8811,12.8483,12.8683,12.9634,13.0027,13.0521,13.1222,13.1538,13.1795,13.2102,13.1795,13.1795,13.2102,13.1795,13.1718,13.1718,13.1718,13.1718,13.1718,13.1718,13.1718,13.1718,13.1718,13.1718,13.1718,13.0794,13.0025,12.9025,12.6101,12.4101,12.2793,12.1716,12.1138,12.1096,12.1476,12.144,12.0981,12.1799,12.1662,12.0999,12.0234,11.9579,11.9003,11.8072,11.7597,11.7364,11.7364,11.7364,11.7364,11.7364,11.7527,11.7612,11.7612,11.7872,11.8193,11.8193,11.797,11.7741,11.7397,11.5909,11.4626,11.4395,11.3176,11.2637,11.3791,11.4022,11.4176,11.4791,11.4868,11.433,11.2868,11.2483,11.2099,11.1483,11.1483,11.1557,11.1908,11.1635,11.1573,11.1782,11.1614,11.0714,10.8867,10.8867,10.8098,10.6405,10.6308,10.5989,10.5526,10.5602,10.4967,8.6799,8.9275,9.2539,9.5595,9.9805,10.5128,11.2396,11.5332,11.8122,12.3628,12.3188,12.2086,12.3114,12.3701,12.4215,12.4729,12.7372,12.9428,12.8914,12.8987,12.8902,12.8499,12.8546,12.8961,13.0147,13.0581,13.1034,13.1692,13.1718,13.1718,13.1718,13.1718,13.1718,13.1718,13.1718,13.1718,13.1718,13.1718,13.1718,13.1718,13.1718,13.1718,13.1718,13.1718,13.1487,13.1102,12.9563,12.8102,12.6486,12.4486,12.3101,12.2278,12.1601,12.1271,12.1271,12.144,12.1228,12.0989,12.1271,12.0923,12.0311,11.9463,11.899,11.869,11.7904,11.7663,11.7807,11.7807,11.7807,11.7807,11.7807,11.7878,11.7995,11.7872,11.8099,11.828,11.8191,11.7721,11.7066,11.6766,11.5072,11.3719,11.3471,11.2868,11.2791,11.3791,11.4561,11.5176,11.5715,11.5176,11.4407,11.333,11.2868,11.2406,11.1637,11.1902,11.2096,11.1908,11.1668,11.1632,11.1382,11.1076,11.0175,10.8482,10.8406,10.7815,10.6639,10.6686,10.6586,10.6316,10.6682,10.6021,8.9919,9.2663,9.5731,9.9989,10.4981,11.056,11.7314,12.1866,12.5096,12.6491,12.5317,12.4729,12.6711,12.539,12.4729,12.6711,12.7666,12.823,12.8111,12.75,12.7401,12.8436,12.8653,12.9176,13.0229,13.1194,13.1718,13.1718,13.1718,13.1718,13.1718,13.1718,13.1718,13.1718,13.1718,13.1718,13.1718,13.1718,13.1718,13.1718,13.1718,13.1718,13.1564,13.1564,13.1102,13.0025,12.7563,12.5178,12.287,12.287,12.2355,12.1623,12.1115,12.1426,12.1899,12.0929,12.0911,12.1405,12.101,12.0234,11.9374,11.9163,11.8721,11.828,11.7988,11.8099,11.8281,11.8281,11.8281,11.8281,11.8281,11.8281,11.82,11.7983,11.8102,11.8199,11.7965,11.7014,11.6115,11.5817,11.4105,11.2714,11.2791,11.3373,11.4032,11.4109,11.5495,11.6397,11.6429,11.5022,11.4022,11.4022,11.3176,11.2406,11.1714,11.2541,11.2727,11.1925,11.1892,11.1505,11.053,11.0324,10.9406,10.7713,10.7754,10.7469,10.6812,10.6965,10.7316,10.771,10.7724,10.6997,9.3667,9.6164,9.9475,10.5495,11.2616,11.8783,12.1572,12.4436,12.6271,12.5977,12.8106,12.9721,12.8914,12.9428,12.9428,12.8106,12.8473,12.89,12.8432,12.8198,12.8503,12.9736,12.9885,13.0337,13.1276,13.1641,13.1718,13.1718,13.1718,13.1718,13.1718,13.1718,13.1718,13.1718,13.1718,13.1718,13.1718,13.1718,13.1718,13.1718,13.1718,13.141,13.0794,13.0794,12.9563,12.7409,12.6178,12.4562,12.287,12.287,12.2526,12.2004,12.1881,12.1765,12.1803,12.1494,12.0807,11.9995,11.9921,11.9297,11.8593,11.8512,11.8435,11.8281,11.8199,11.8279,11.8281,11.8281,11.8281,11.8281,11.8281,11.8281,11.8281,11.8199,11.828,11.8199,11.7965,11.7014,11.6115,11.5817,11.4105,11.2868,11.3637,11.3468,11.3803,11.5118,11.5583,11.5823,11.5627,11.4561,11.4022,11.4022,11.3176,11.2637,11.2483,11.2128,11.1906,11.1908,11.1731,11.0998,10.9678,11.0015,10.9406,10.7713,10.8583,10.8282,10.6812,10.86,10.9206,10.8573,10.8807,10.8436,9.5584,9.8374,10.2265,11.0707,11.7535,12.238,12.3628,12.539,12.6985,12.7471,12.9611,13.119,13.0672,13.1372,13.1492,12.9928,12.9631,12.9287,12.8616,12.8515,12.9038,13.0115,13.0198,13.0581,13.159,13.1718,13.1718,13.1718,13.1718,13.1718,13.1718,13.1718,13.1718,13.1718,13.1718,13.1487,13.1102,13.1102,13.0871,13.0487,13.0487,12.9871,12.8717,12.8717,12.7486,12.5409,12.4562,12.3485,12.2278,12.2492,12.2372,12.2106,12.2039,12.1802,12.1608,12.0889,12.0224,11.9531,11.9062,11.8672,11.8437,11.8828,11.8822,11.8729,11.8905,11.8822,11.8573,11.8436,11.8281,11.8281,11.8281,11.8281,11.828,11.8107,11.8099,11.7921,11.7225,11.6208,11.5241,11.4933,11.3816,11.3198,11.4028,11.4358,11.4881,11.5598,11.572,11.5487,11.4802,11.3868,11.3407,11.3407,11.3022,11.2483,11.2175,11.1885,11.1499,11.1132,11.0727,10.9878,10.8583,10.9185,10.879,10.7098,10.8612,10.8777,10.7637,10.9382,11.0007,10.9661,10.9919,10.9218,9.5794,10.0089,10.5495,11.5185,12.0471,12.3481,12.4509,12.5882,12.75,12.9317,13.051,13.1449,13.2225,13.2474,13.2323,13.1381,13.0286,12.9532,12.8811,12.8621,12.8978,13.0063,13.0338,13.0576,13.159,13.1718,13.1718,13.1718,13.1718,13.1718,13.1718,13.1718,13.1718,13.1718,13.1564,13.1179,13.0487,13.0179,12.9794,12.9179,12.8871,12.7871,12.6178,12.6101,12.5332,12.3793,12.3024,12.2331,12.1608,12.2024,12.2123,12.21,12.1802,12.1578,12.1302,11.9984,11.9371,11.9216,11.8515,11.8281,11.8437,11.9139,11.9181,11.9116,11.9193,11.9167,11.8965,11.8425,11.828,11.8281,11.82,11.8199,11.8189,11.7934,11.7793,11.7412,11.6263,11.527,11.4499,11.413,11.3776,11.3925,11.4605,11.5727,11.6341,11.5909,11.5678,11.511,11.3878,11.3108,11.2631,11.2785,11.2713,11.2271,11.163,11.1627,11.1198,10.9986,10.9587,10.8791,10.7734,10.8636,10.8293,10.6526,10.8575,10.9437,10.8804,11.0101,11.083,11.0781,11.0781,11.0,9.337,10.2007,11.1368,11.7682,12.1279,12.3701,12.517,12.641,12.7606,12.9348,13.0912,13.2269,13.3246,13.3527,13.2926,13.1381,12.9833,12.8772,12.8919,12.8255,12.849,13.0281,13.0513,13.0769,13.1641,13.1718,13.1718,13.1718,13.1718,13.1718,13.1718,13.1718,13.1718,13.1718,13.1025,13.0564,13.0487,12.9025,12.864,12.9179,12.7717,12.6101,12.4409,12.3716,12.3332,12.3024,12.21,12.1716,12.1608,12.2024,12.2225,12.2375,12.1601,12.099,12.0516,11.96,11.8824,11.8135,11.8276,11.8281,11.828,11.823,11.857,11.8919,11.7993,11.8372,11.8865,11.819,11.8102,11.8201,11.7992,11.7965,11.7929,11.7488,11.7297,11.6888,11.5972,11.5614,11.5196,11.4207,11.4703,11.5566,11.6181,11.7111,11.7296,11.6274,11.5529,11.4522,11.3073,11.2426,11.2307,11.3064,11.2694,11.2219,11.1876,11.1195,11.027,10.914,10.9006,10.8565,10.7713,10.9175,10.9013,10.6796,10.9527,11.0605,11.0029,11.1931,11.2421,11.1718,11.1718,11.1172,9.5953,10.3992,11.1882,11.7461,12.0765,12.3161,12.5421,12.6609,12.8023,13.0814,13.1873,13.2666,13.3711,13.3402,13.2741,13.171,13.0017,12.8995,12.9696,12.9473,12.9687,13.1,13.1179,13.1333,13.1718,13.1718,13.1718,13.1718,13.1718,13.1718,13.1718,13.1718,13.1718,13.1718,13.0871,13.0025,12.9102,12.7794,12.6871,12.6332,12.5563,12.4562,12.3408,12.3101,12.2639,12.2177,12.1793,12.1562,12.1608,12.2024,12.188,12.1524,12.0794,12.0097,11.9266,11.8478,11.8083,11.7867,11.7999,11.8193,11.8437,11.9285,11.9272,11.8859,11.898,11.8871,11.8508,11.7809,11.7686,11.7807,11.7724,11.7621,11.7479,11.7167,11.7105,11.6736,11.5688,11.5475,11.5418,11.5288,11.6196,11.703,11.7292,11.7628,11.7303,11.5471,11.4924,11.4018,11.2537,11.2041,11.2096,11.2608,11.2538,11.2179,11.1895,11.1073,11.027,10.9678,10.9175,10.8713,10.8406,10.9707,10.9985,10.9229,11.0927,11.1273,11.0212,11.2176,11.2968,11.2578,11.2578,11.2105,9.7119,10.3409,10.9019,11.5112,11.8709,12.1686,12.4988,12.67,12.8493,13.1735,13.2599,13.2921,13.3281,13.302,13.2477,13.1836,13.0059,12.9328,13.0308,13.0333,13.0487,13.1333,13.141,13.1487,13.1718,13.1718,13.1718,13.1718,13.1718,13.1718,13.1718,13.1487,13.141,13.141,13.041,12.9102,12.764,12.6409,12.487,12.3101,12.3101,12.2793,12.2177,12.2177,12.2024,12.1562,12.1562,12.1485,12.1301,12.1638,12.1297,12.0402,11.9781,11.9189,11.8502,11.7634,11.7475,11.7724,11.8013,11.8185,11.8637,11.9788,11.9604,11.8981,11.9297,11.8839,11.811,11.7478,11.7306,11.7419,11.7257,11.7323,11.7231,11.6891,11.6939,11.6595,11.5824,11.5407,11.5473,11.6272,11.7117,11.7732,11.7786,11.7793,11.7117,11.4996,11.4577,11.3987,11.2405,11.2185,11.2167,11.2387,11.246,11.2299,11.1657,11.1085,11.0466,10.9909,10.9329,10.8929,10.8993,10.9978,11.069,11.0926,11.187,11.19,11.1038,11.2494,11.3202,11.3118,11.3118,11.2539,9.369,9.7902,10.2485,10.9826,11.4525,11.8815,12.3693,12.6756,12.9189,13.1181,13.2281,13.2685,13.1804,13.2213,13.2365,13.1558,13.0,12.9328,13.0308,12.9794,12.9563,13.0487,13.0564,13.0871,13.1564,13.1718,13.1718,13.1718,13.1718,13.1718,13.1718,13.1025,13.0564,13.0564,12.8871,12.764,12.6794,12.4332,12.2177,12.0485,12.0485,12.0485,12.0408,12.0408,12.0869,12.1562,12.1562,12.11,12.0377,12.071,12.0367,11.9532,11.8714,11.8404,11.8171,11.7302,11.7009,11.7167,11.8293,11.8709,11.8598,11.8422,11.8808,11.9076,11.7324,11.7407,11.7966,11.7225,11.719,11.7294,11.7105,11.6993,11.6874,11.6603,11.6529,11.6529,11.6506,11.5792,11.5601,11.6676,11.7009,11.7073,11.7419,11.7386,11.6971,11.5785,11.5198,11.4511,11.329,11.2892,11.2688,11.2694,11.3022,11.2614,11.1325,11.1127,11.0457,10.9083,10.8867,10.9032,10.9414,11.0221,11.0498,11.0275,11.1835,11.2834,11.2968,11.3125,11.3035,11.2715,11.2715,11.2085,9.2523,9.6237,10.0062,10.5935,11.1074,11.5946,12.0079,12.4631,12.861,13.1094,13.1793,13.1941,13.1558,13.1266,13.0808,12.9969,12.8901,12.8717,13.0308,13.0179,13.0333,13.1179,13.1333,13.141,13.1718,13.1718,13.1718,13.1718,13.1718,13.1718,13.1718,13.141,13.1025,13.0487,12.8794,12.6486,12.3485,12.2024,12.0716,11.9485,12.01,12.0331,12.0331,12.0331,12.0485,12.0716,12.0177,12.01,12.0277,11.9861,11.9175,11.8425,11.8116,11.7576,11.719,11.7401,11.7619,11.7906,11.8904,11.942,11.9508,11.9396,11.8966,11.8474,11.7926,11.7387,11.7015,11.6804,11.6692,11.6806,11.6691,11.6727,11.6589,11.6474,11.6484,11.6484,11.6484,11.6398,11.6534,11.6925,11.7103,11.7231,11.721,11.7103,11.6809,11.5572,11.48,11.4121,11.3475,11.2871,11.2501,11.2694,11.2826,11.2508,11.1662,11.1607,11.1289,11.0602,11.0729,11.0906,11.0995,11.1616,11.1877,11.1768,11.2393,11.2607,11.2422,11.2715,11.283,11.2705,11.2516,11.176,9.1221,9.4167,9.7566,10.2999,10.711,11.1489,11.7456,12.1584,12.519,12.9055,12.9817,12.9776,13.008,12.9702,12.9283,12.8978,12.852,12.8717,13.0308,13.0718,13.1102,13.1564,13.1718,13.1718,13.1718,13.1718,13.1718,13.1718,13.1718,13.1718,13.1718,13.1179,13.0179,12.8794,12.7101,12.4716,12.1562,12.0485,11.9562,11.91,11.9331,11.9792,12.0331,12.0331,12.0331,12.0331,11.9408,11.9177,11.9408,11.8869,11.8177,11.7407,11.7715,11.7407,11.7023,11.7869,11.8264,11.8565,11.9493,11.9928,12.0099,11.9804,11.9223,11.8411,11.7889,11.7113,11.6484,11.6484,11.6484,11.6484,11.6484,11.6484,11.6484,11.6484,11.6484,11.6484,11.6484,11.6707,11.6806,11.6806,11.6976,11.6996,11.6939,11.6806,11.6615,11.5781,11.5118,11.4392,11.3941,11.3172,11.2688,11.2609,11.2624,11.2396,11.191,11.1925,11.1809,11.1616,11.1757,11.191,11.1967,11.2387,11.2624,11.2624,11.2624,11.2364,11.1982,11.2364,11.2509,11.2433,11.1861,11.1036,0.0,0.0,0.0,10.087,10.2485,10.5384,11.589,11.7696,11.8984,12.4781,12.6096,12.6362,12.7306,12.7632,12.7986,12.878,12.8932,12.9282,13.0308,13.1179,13.1718,13.1718,13.1718,13.1615,13.1692,13.159,13.159,13.1692,13.1615,13.1615,13.1718,13.0102,12.8025,12.5409,12.3793,12.2485,12.1562,11.9869,11.91,11.91,11.8331,11.8715,12.0331,12.0331,12.0331,12.0177,11.9408,11.8638,11.7792,11.7792,11.733,11.6561,11.7484,11.7792,11.7869,11.8792,11.9177,11.9331,12.01,12.0408,12.0177,11.9408,11.91,11.8792,11.7023,11.6484,11.6484,11.6484,11.6484,11.6484,11.6484,11.6484,11.6484,11.6484,11.6484,11.6484,11.6484,11.6484,11.6484,11.6484,11.6484,11.6484,11.6484,11.6484,11.6484,11.6484,11.5997,11.5377,11.4542,11.3877,11.3295,11.2372,11.2294,11.2167,11.1863,11.1908,11.1908,11.1908,11.1925,11.203,11.2283,11.2305,11.2305,11.2305,11.2294,11.2294,11.2294,11.2294,11.2142,11.177,11.0918,10.9505,8.9924,0.0,0.0,0.0,0.0,0.0,10.6399,10.9901,11.3823,11.908,12.1107,12.3095,12.6963,12.7677,12.8169,12.9813,12.951,12.941,13.0385,13.1179,13.1718,13.1718,13.0525,13.0029,13.0611,12.9397,12.9223,13.0505,13.0,13.003,13.0769,12.8563,12.6486,12.4486,12.3408,12.2177,12.0716,12.0177,11.9715,11.91,11.9408,11.9485,11.9485,12.0023,11.9562,11.8484,11.8331,11.7715,11.6869,11.6869,11.71,11.7484,11.7715,11.8177,11.8792,11.9715,12.0408,12.1023,12.187,12.2177,12.187,12.0485,11.9562,11.8792,11.7023,11.6484,11.6484,11.6484,11.6484,11.6484,11.6484,11.6484,11.6484,11.6484,11.6484,11.6484,11.6484,11.6484,11.6484,11.6484,11.6484,11.6484,11.6484,11.6484,11.6484,11.6484,11.5923,11.5398,11.5265,11.4189,11.3165,11.3009,11.2404,11.1925,11.1596,11.1634,11.1634,11.1634,11.1817,11.191,11.2016,11.2191,11.2305,11.2305,11.2077,11.2016,11.2016,11.1395,11.1041,11.0918,10.9278,10.8471,9.1073,9.2198,9.3529,9.5217,0.0,0.0,10.3388,10.5283,10.796,11.4682,11.6477,11.8581,12.4116,12.5268,12.6261,12.8489,12.9102,12.941,12.9871,13.0718,13.1102,13.0718,12.9409,12.8627,12.913,12.822,12.7789,12.8501,12.8788,12.8882,12.8923,12.6794,12.5024,12.3639,12.2793,12.1485,11.9792,11.9792,11.9408,11.8638,11.9023,11.9408,11.9562,11.9715,11.9331,11.8331,11.8023,11.733,11.6484,11.6484,11.7023,11.7792,11.8177,11.8869,11.9715,12.0485,12.1408,12.2177,12.2716,12.287,12.2639,12.0869,11.9792,11.8792,11.7023,11.6484,11.6484,11.6484,11.6484,11.6484,11.6484,11.6484,11.6484,11.6484,11.6484,11.6484,11.6484,11.6484,11.6484,11.6484,11.6484,11.6484,11.6484,11.6484,11.6484,11.6484,11.6099,11.5692,11.5611,11.4413,11.3409,11.3023,11.2173,11.1674,11.1504,11.1483,11.1491,11.1732,11.1775,11.1925,11.1925,11.2073,11.2115,11.2034,11.1775,11.1573,11.1187,11.1014,11.0628,10.9855,10.8702,10.8329,9.2718,9.3308,9.4189,9.7713,9.6539,0.0,10.3586,10.2412,10.2265,11.0487,11.1794,11.3303,11.9062,12.1002,12.2566,12.5185,12.7336,12.8694,12.9077,12.9898,13.0001,12.9053,12.7982,12.7277,12.7429,12.7145,12.6741,12.6286,12.7832,12.7974,12.6385,12.4793,12.3639,12.2793,12.2024,12.0793,11.9177,11.9177,11.8792,11.7869,11.7869,11.8715,12.0023,11.9408,11.9023,11.8792,11.81,11.733,11.6484,11.6484,11.71,11.8023,11.8792,11.9715,12.0485,12.1331,12.2177,12.3024,12.3024,12.3024,12.2793,12.11,11.9869,11.8792,11.71,11.6561,11.6484,11.6484,11.6484,11.6484,11.6484,11.6561,11.6561,11.6561,11.6715,11.6792,11.6792,11.6715,11.6561,11.6561,11.6561,11.6484,11.6484,11.6484,11.6484,11.6484,11.6484,11.6176,11.5484,11.4714,11.3791,11.3099,11.2329,11.1714,11.1637,11.1637,11.1691,11.1826,11.1937,11.1937,11.1937,11.1937,11.1805,11.1483,11.1483,11.1098,11.0329,11.1021,11.0637,10.9021,10.8867,10.8636,9.3785,9.4556,9.507,9.5217,9.5731,0.0,9.7419,9.7493,9.8594,10.2999,10.4902,10.7288,11.2382,11.5214,11.7193,11.842,12.2207,12.5862,12.8796,12.932,12.9023,12.8076,12.5863,12.4686,12.5286,12.4009,12.4022,12.6062,12.6841,12.6107,12.3793,12.3332,12.2716,12.187,12.1716,12.11,12.01,12.01,11.9715,11.8792,11.8792,11.8715,11.8331,11.8869,11.8331,11.7023,11.7638,11.733,11.6484,11.6484,11.7407,11.8869,11.9023,12.0023,12.1408,12.1485,12.2562,12.387,12.387,12.387,12.3716,12.2716,12.0869,11.8869,11.7869,11.71,11.6484,11.6484,11.6484,11.6484,11.6484,11.7023,11.7484,11.7484,11.81,11.8561,11.8561,11.8023,11.7484,11.7484,11.7023,11.6484,11.6484,11.6484,11.6484,11.6484,11.6484,11.6407,11.633,11.5561,11.5022,11.4791,11.4022,11.3176,11.2483,11.2483,11.2218,11.163,11.1573,11.1573,11.1573,11.219,11.2205,11.1483,11.1483,11.1406,11.1175,11.0714,11.0329,10.9867,10.9175,10.9175,9.529,9.5804,9.6171,9.6612,9.6685,0.0,0.0,9.6685,9.7126,10.0796,10.1897,10.3576,10.8121,11.0354,11.2382,11.4876,11.8114,12.095,12.2676,12.5266,12.646,12.5321,12.3088,12.1939,12.2311,12.1902,12.246,12.4891,12.4368,12.3676,12.2923,12.2485,12.21,12.1562,12.1177,12.0485,11.9715,11.9331,11.8638,11.7792,11.7792,11.7792,11.7792,11.7792,11.7561,11.71,11.7176,11.6869,11.6484,11.7023,11.7869,11.91,11.91,12.01,12.1562,12.1562,12.2716,12.4101,12.4101,12.4101,12.387,12.2716,12.0793,11.8869,11.7484,11.6792,11.6561,11.7023,11.71,11.7176,11.7715,11.81,11.8407,11.8407,11.8792,11.9023,11.8484,11.81,11.7715,11.7176,11.6792,11.6484,11.6484,11.6484,11.6484,11.6484,11.6484,11.6484,11.6484,11.5792,11.533,11.533,11.4484,11.3791,11.3407,11.333,11.3022,11.2175,11.2099,11.1945,11.1483,11.1868,11.1945,11.1483,11.1483,11.1483,11.1483,11.1098,11.0637,11.0175,10.979,10.979,9.7273,9.7713,9.83,9.9108,9.8741,9.8227,0.0,0.0,0.0,10.0209,10.0209,10.071,10.4241,10.5505,10.7249,11.039,11.2993,11.4471,11.402,11.8502,12.166,12.1092,11.9916,11.9073,11.9073,11.9702,12.0984,12.3335,12.1896,12.1495,12.2615,12.2024,12.1485,12.1408,12.0716,11.9792,11.8869,11.8177,11.7407,11.6484,11.6484,11.6869,11.7484,11.6792,11.6869,11.7484,11.6792,11.6561,11.6792,11.7484,11.8407,11.9331,11.9331,12.0408,12.1793,12.1716,12.287,12.4562,12.4178,12.4178,12.4101,12.2562,12.0716,11.8792,11.7023,11.6561,11.6869,11.7638,11.7869,11.8177,11.8869,11.9177,11.9331,11.9331,11.9331,11.91,11.8407,11.8023,11.7638,11.6869,11.6561,11.6484,11.6484,11.6484,11.6484,11.6484,11.6484,11.6484,11.6484,11.5869,11.5484,11.5484,11.4868,11.4407,11.433,11.4099,11.3637,11.2791,11.2637,11.2175,11.1483,11.1483,11.1637,11.1714,11.1637,11.1483,11.1483,11.1483,11.1098,11.0483,11.0483,11.0483,10.0062,10.1457,10.2632,10.0723,10.1604,10.2412,9.9695,0.0,9.8594,9.8374,0.0,9.7431,9.8553,0.0,0.0,9.9727,10.4131,10.6833,10.4621,10.7971,11.2004,11.5497,11.6232,11.6442,11.6442,11.6695,11.8153,12.1384,12.0172,12.0107,12.1716,12.1716,12.1177,12.0485,12.0408,11.9485,11.8023,11.7792,11.7407,11.6484,11.6484,11.6561,11.6561,11.6484,11.6561,11.6561,11.6484,11.6869,11.7715,11.7792,11.8715,12.0177,12.0177,12.1177,12.2716,12.187,12.3562,12.6178,12.4639,12.4639,12.5101,12.4101,12.1716,11.8792,11.7023,11.7023,11.7715,11.7792,11.8407,11.9023,11.91,11.9562,12.0177,12.0177,12.0177,12.01,12.0023,11.8792,11.7792,11.7715,11.7023,11.6484,11.6484,11.6484,11.6484,11.6484,11.6484,11.6484,11.6484,11.6407,11.6407,11.6407,11.633,11.5869,11.5176,11.4407,11.3637,11.2791,11.2022,11.1637,11.1483,11.1483,11.1791,11.2483,11.1868,11.1483,11.1483,11.1483,11.1406,11.1406,11.1406,11.1406,10.1017,10.2118,10.3072,10.2485,10.3219,0.0,10.1017,0.0,9.9548,9.8741,0.0,0.0,0.0,0.0,0.0,0.0,10.1,10.2485,10.1531,10.4027,10.7321,11.0992,11.1276,11.2079,11.4489,11.5307,11.6573,11.9073,11.8706,11.8869,12.01,12.11,12.1177,12.0331,11.9792,11.9023,11.7792,11.733,11.6869,11.6484,11.6484,11.6484,11.6484,11.6484,11.6484,11.6484,11.7023,11.7484,11.7869,11.9408,12.0408,12.1177,12.21,12.2716,12.287,12.3024,12.4562,12.6486,12.5332,12.5101,12.487,12.21,11.9869,11.81,11.6869,11.71,11.7869,11.8407,11.9177,11.9869,12.0408,12.0793,12.11,12.11,12.0716,12.0177,11.9715,11.8715,11.7715,11.71,11.6792,11.6484,11.6484,11.6484,11.6484,11.6484,11.6484,11.6484,11.6484,11.6484,11.6484,11.6484,11.6484,11.6407,11.6022,11.5176,11.4407,11.3483,11.2175,11.1483,11.1483,11.1483,11.1714,11.2022,11.1714,11.1714,11.2175,11.2175,11.2483,11.2868,11.2022,11.1791,10.2485,10.3366,10.4394,10.4467,10.4614,0.0,0.0,0.0,0.0,0.0,9.9475,0.0,0.0,0.0,9.7346,9.83,0.0,9.9255,9.9035,10.0723,10.3072,10.6376,10.6921,10.8289,11.1888,11.2278,11.3532,11.6208,11.6022,11.6484,11.8331,11.9792,12.0331,11.9562,11.9023,11.8331,11.7484,11.6792,11.6484,11.6484,11.6484,11.6484,11.6484,11.6484,11.6561,11.6869,11.7484,11.81,11.8638,12.0716,12.187,12.2485,12.4178,12.4486,12.4024,12.4332,12.5717,12.7178,12.6101,12.5563,12.4793,12.1023,11.9408,11.8638,11.7484,11.7792,11.8638,11.9331,12.0023,12.0793,12.1408,12.1562,12.1562,12.1562,12.0793,11.9792,11.9177,11.8177,11.733,11.6561,11.6484,11.6484,11.6484,11.6484,11.6484,11.6484,11.6484,11.6484,11.6484,11.6484,11.6484,11.6484,11.6484,11.6484,11.6484,11.5484,11.4484,11.3407,11.2175,11.1483,11.1483,11.1483,11.1483,11.1483,11.1483,11.1945,11.2714,11.2714,11.3099,11.4022,11.2791,11.2483,10.5642,10.6816,10.8211,10.667,10.6302,0.0,0.0,0.0,10.3586,0.0,0.0,0.0,0.0,0.0,0.0,0.0,9.6832,0.0,0.0,9.6392,9.8154,10.1384,10.3795,10.5866,10.7698,10.6373,10.7468,11.2517,11.1406,11.2175,11.6407,11.7407,11.7869,11.7869,11.7869,11.7407,11.6561,11.6484,11.6484,11.6484,11.6484,11.6484,11.6484,11.6484,11.7023,11.7792,11.7792,11.8715,12.0331,12.1177,12.2562,12.4178,12.587,12.6563,12.6486,12.5717,12.7025,12.8871,12.7178,12.6101,12.5024,12.2408,12.1485,12.1177,11.9485,11.9562,12.0177,12.0331,12.0869,12.1562,12.1562,12.1562,12.1562,12.1562,12.0331,11.91,11.91,11.7792,11.6484,11.6484,11.6484,11.6484,11.6484,11.6484,11.6484,11.6484,11.6484,11.6484,11.6484,11.6484,11.6484,11.6484,11.6484,11.6484,11.6484,11.5022,11.333,11.1714,11.1483,11.1483,11.1483,11.1483,11.1483,11.1483,11.1483,11.1945,11.2714,11.2714,11.3099,11.4022,11.3868,11.3868,10.7477,10.8505,10.9459,10.8872,0.0,0.0,0.0,0.0,0.0,0.0,0.0,0.0,0.0,0.0,0.0,0.0,0.0,9.6612,0.0,9.6953,9.7867,9.8905,10.2198,10.4801,10.5897,10.5505,10.6501,10.9923,10.9175,11.0098,11.3791,11.5869,11.6869,11.6869,11.7484,11.7407,11.6484,11.6484,11.6484,11.6484,11.6484,11.6484,11.6484,11.71,11.7484,11.7869,11.9023,12.01,12.1331,12.2716,12.4332,12.587,12.7101,12.7486,12.7486,12.7794,12.8102,12.8179,12.7101,12.6486,12.5717,12.2562,12.1562,12.1331,11.9562,11.9715,12.0331,12.0331,12.0869,12.1562,12.1562,12.1562,12.1562,12.1562,12.0331,11.91,11.91,11.7715,11.6484,11.6484,11.6484,11.6484,11.6484,11.6484,11.6484,11.6484,11.6484,11.6484,11.6484,11.6484,11.6484,11.6484,11.6484,11.6484,11.6484,11.5484,11.4407,11.3176,11.2637,11.2329,11.2329,11.1791,11.1483,11.1483,11.1483,11.2175,11.3637,11.3637,11.433,11.5715,11.5715,11.5407,10.9386,11.0193,0.0,11.0854,11.1001,0.0,10.9166,0.0,10.9019,0.0,0.0,0.0,0.0,0.0,0.0,0.0,0.0,0.0,0.0,9.7093,9.7483,9.7702,10.0713,10.2728,10.2918,10.3377,10.4328,10.5713,10.6097,10.7636,11.0329,11.3176,11.5022,11.5561,11.6715,11.71,11.6484,11.6484,11.6484,11.6484,11.6484,11.6484,11.6484,11.7407,11.8023,11.8331,11.9715,12.1023,12.2177,12.3485,12.5332,12.7178,12.8025,12.8409,12.8486,12.9333,12.9333,12.8717,12.7871,12.7409,12.6717,12.4178,12.3024,12.2177,12.0869,12.0562,12.1023,12.2177,12.21,12.187,12.3101,12.2485,12.1562,12.1562,12.0331,11.91,11.91,11.7715,11.6484,11.6484,11.6484,11.6484,11.6484,11.6484,11.6484,11.6484,11.6484,11.6484,11.6484,11.6484,11.6484,11.6484,11.6484,11.6407,11.6099,11.5561,11.4868,11.4099,11.3176,11.2714,11.2714,11.1945,11.2175,11.3714,11.2329,11.3099,11.6176,11.4714,11.4868,11.6484,11.6484,11.6176]}]]